Wetterdaten: Sonntag, 07.01.2024
Datum Zeit Temp. I. Temp. A. Feuchte I. Feuchte A. Luftdruck Regen Wind Richtung Richtung Sonnenschein Solar Taupunkt Windchill Windböen
07.01.2024 00:00 21,6 °C 0,2 °C 55 % 94 % 1015,6 hPa 0,0 l/m² 6,4 km/h (2 Bft) NO 45 ° 0 min 0 W/m² -0,6 °C 0,2 °C 11,3 km/h (2 Bft)
07.01.2024 00:01 21,6 °C 0,1 °C 55 % 94 % 1015,6 hPa 0,0 l/m² 11,3 km/h (2 Bft) N-NO 22 ° 0 min 0 W/m² -0,7 °C -4,4 °C 17,7 km/h (3 Bft)
07.01.2024 00:02 21,6 °C 0,1 °C 55 % 94 % 1015,5 hPa 0,0 l/m² 8,0 km/h (2 Bft) N-NO 22 ° 0 min 0 W/m² -0,7 °C -1,5 °C 14,5 km/h (3 Bft)
07.01.2024 00:03 21,6 °C 0,1 °C 55 % 94 % 1015,5 hPa 0,0 l/m² 8,0 km/h (2 Bft) N-NO 22 ° 0 min 0 W/m² -0,7 °C -1,5 °C 11,3 km/h (2 Bft)
07.01.2024 00:04 21,6 °C 0,1 °C 55 % 94 % 1015,6 hPa 0,0 l/m² 9,7 km/h (2 Bft) N-NO 22 ° 0 min 0 W/m² -0,7 °C -3,1 °C 19,3 km/h (3 Bft)
07.01.2024 00:05 21,6 °C 0,1 °C 55 % 94 % 1015,6 hPa 0,0 l/m² 6,4 km/h (2 Bft) N-NO 22 ° 0 min 0 W/m² -0,7 °C 0,1 °C 14,5 km/h (3 Bft)
07.01.2024 00:06 21,6 °C 0,1 °C 55 % 94 % 1015,6 hPa 0,0 l/m² 8,0 km/h (2 Bft) N 360 ° 0 min 0 W/m² -0,7 °C -1,5 °C 12,9 km/h (3 Bft)
07.01.2024 00:07 21,6 °C 0,1 °C 55 % 94 % 1015,6 hPa 0,0 l/m² 6,4 km/h (2 Bft) N-NO 22 ° 0 min 0 W/m² -0,7 °C 0,1 °C 14,5 km/h (3 Bft)
07.01.2024 00:08 21,6 °C 0,1 °C 55 % 94 % 1015,6 hPa 0,0 l/m² 8,0 km/h (2 Bft) N-NO 22 ° 0 min 0 W/m² -0,7 °C -1,5 °C 14,5 km/h (3 Bft)
07.01.2024 00:09 21,6 °C 0,1 °C 55 % 94 % 1015,6 hPa 0,0 l/m² 6,4 km/h (2 Bft) N-NO 22 ° 0 min 0 W/m² -0,7 °C 0,1 °C 9,7 km/h (2 Bft)
07.01.2024 00:10 21,6 °C 0,1 °C 55 % 94 % 1015,7 hPa 0,0 l/m² 8,0 km/h (2 Bft) N-NO 22 ° 0 min 0 W/m² -0,7 °C -1,5 °C 14,5 km/h (3 Bft)
07.01.2024 00:11 21,6 °C 0,1 °C 55 % 94 % 1015,7 hPa 0,0 l/m² 8,0 km/h (2 Bft) NO 45 ° 0 min 0 W/m² -0,7 °C -1,5 °C 12,9 km/h (3 Bft)
07.01.2024 00:12 21,6 °C 0,1 °C 55 % 94 % 1015,7 hPa 0,0 l/m² 4,8 km/h (1 Bft) NO 45 ° 0 min 0 W/m² -0,7 °C 0,1 °C 8,0 km/h (2 Bft)
07.01.2024 00:13 21,6 °C 0,1 °C 55 % 94 % 1015,6 hPa 0,0 l/m² 4,8 km/h (1 Bft) NO 45 ° 0 min 0 W/m² -0,7 °C 0,1 °C 8,0 km/h (2 Bft)
07.01.2024 00:14 21,6 °C 0,1 °C 55 % 94 % 1015,7 hPa 0,0 l/m² 8,0 km/h (2 Bft) N-NO 22 ° 0 min 0 W/m² -0,7 °C -1,5 °C 16,1 km/h (3 Bft)
07.01.2024 00:15 21,6 °C 0,1 °C 55 % 94 % 1015,7 hPa 0,0 l/m² 8,0 km/h (2 Bft) NO 45 ° 0 min 0 W/m² -0,7 °C -1,5 °C 14,5 km/h (3 Bft)
07.01.2024 00:16 21,6 °C 0,1 °C 55 % 94 % 1015,7 hPa 0,0 l/m² 4,8 km/h (1 Bft) N-NO 22 ° 0 min 0 W/m² -0,7 °C 0,1 °C 8,0 km/h (2 Bft)
07.01.2024 00:17 21,6 °C 0,0 °C 55 % 94 % 1015,8 hPa 0,0 l/m² 8,0 km/h (2 Bft) NO 45 ° 0 min 0 W/m² -0,8 °C -1,6 °C 16,1 km/h (3 Bft)
07.01.2024 00:18 21,5 °C 0,0 °C 55 % 94 % 1015,8 hPa 0,0 l/m² 8,0 km/h (2 Bft) NO 45 ° 0 min 0 W/m² -0,8 °C -1,6 °C 14,5 km/h (3 Bft)
07.01.2024 00:19 21,6 °C 0,0 °C 56 % 94 % 1015,9 hPa 0,0 l/m² 8,0 km/h (2 Bft) N-NO 22 ° 0 min 0 W/m² -0,8 °C -1,6 °C 14,5 km/h (3 Bft)
07.01.2024 00:20 21,6 °C 0,0 °C 55 % 94 % 1015,7 hPa 0,0 l/m² 9,7 km/h (2 Bft) N-NO 22 ° 0 min 0 W/m² -0,8 °C -3,2 °C 16,1 km/h (3 Bft)
07.01.2024 00:21 21,6 °C 0,0 °C 55 % 94 % 1015,9 hPa 0,0 l/m² 6,4 km/h (2 Bft) NO 45 ° 0 min 0 W/m² -0,8 °C 0,0 °C 9,7 km/h (2 Bft)
07.01.2024 00:22 21,6 °C -0,1 °C 56 % 94 % 1015,8 hPa 0,0 l/m² 6,4 km/h (2 Bft) N-NO 22 ° 0 min 0 W/m² -0,9 °C -0,1 °C 12,9 km/h (3 Bft)
07.01.2024 00:23 21,5 °C 0,0 °C 55 % 94 % 1015,8 hPa 0,0 l/m² 4,8 km/h (1 Bft) N-NO 22 ° 0 min 0 W/m² -0,8 °C 0,0 °C 6,4 km/h (2 Bft)
07.01.2024 00:24 21,6 °C 0,0 °C 55 % 94 % 1015,9 hPa 0,0 l/m² 8,0 km/h (2 Bft) NO 45 ° 0 min 0 W/m² -0,8 °C -1,6 °C 16,1 km/h (3 Bft)
07.01.2024 00:25 21,6 °C -0,1 °C 56 % 94 % 1015,9 hPa 0,0 l/m² 9,7 km/h (2 Bft) NO 45 ° 0 min 0 W/m² -0,9 °C -3,3 °C 17,7 km/h (3 Bft)
07.01.2024 00:26 21,5 °C -0,1 °C 56 % 94 % 1015,8 hPa 0,0 l/m² 6,4 km/h (2 Bft) NO 45 ° 0 min 0 W/m² -0,9 °C -0,1 °C 11,3 km/h (2 Bft)
07.01.2024 00:27 21,5 °C 0,0 °C 56 % 94 % 1015,8 hPa 0,0 l/m² 8,0 km/h (2 Bft) NO 45 ° 0 min 0 W/m² -0,8 °C -1,6 °C 14,5 km/h (3 Bft)
07.01.2024 00:28 21,5 °C -0,1 °C 56 % 94 % 1015,9 hPa 0,0 l/m² 11,3 km/h (2 Bft) NO 45 ° 0 min 0 W/m² -0,9 °C -4,6 °C 16,1 km/h (3 Bft)
07.01.2024 00:29 21,5 °C -0,1 °C 56 % 94 % 1015,9 hPa 0,0 l/m² 8,0 km/h (2 Bft) N-NO 22 ° 0 min 0 W/m² -0,9 °C -1,8 °C 12,9 km/h (3 Bft)
07.01.2024 00:30 21,5 °C -0,1 °C 56 % 94 % 1015,9 hPa 0,0 l/m² 8,0 km/h (2 Bft) N-NO 22 ° 0 min 0 W/m² -0,9 °C -1,8 °C 12,9 km/h (3 Bft)
07.01.2024 00:31 21,6 °C -0,1 °C 56 % 94 % 1015,9 hPa 0,0 l/m² 4,8 km/h (1 Bft) N-NO 22 ° 0 min 0 W/m² -0,9 °C -0,1 °C 8,0 km/h (2 Bft)
07.01.2024 00:32 21,5 °C -0,1 °C 56 % 94 % 1016,0 hPa 0,0 l/m² 1,6 km/h (1 Bft) NO 45 ° 0 min 0 W/m² -0,9 °C -0,1 °C 6,4 km/h (2 Bft)
07.01.2024 00:33 21,5 °C -0,1 °C 56 % 94 % 1015,8 hPa 0,0 l/m² 4,8 km/h (1 Bft) NO 45 ° 0 min 0 W/m² -0,9 °C -0,1 °C 9,7 km/h (2 Bft)
07.01.2024 00:34 21,5 °C -0,1 °C 56 % 94 % 1015,9 hPa 0,0 l/m² 3,2 km/h (1 Bft) O-NO 67 ° 0 min 0 W/m² -0,9 °C -0,1 °C 8,0 km/h (2 Bft)
07.01.2024 00:35 21,5 °C -0,1 °C 56 % 94 % 1015,9 hPa 0,0 l/m² 6,4 km/h (2 Bft) NO 45 ° 0 min 0 W/m² -0,9 °C -0,1 °C 9,7 km/h (2 Bft)
07.01.2024 00:36 21,5 °C -0,1 °C 56 % 94 % 1016,0 hPa 0,0 l/m² 1,6 km/h (1 Bft) NO 45 ° 0 min 0 W/m² -0,9 °C -0,1 °C 4,8 km/h (1 Bft)
07.01.2024 00:37 21,5 °C -0,1 °C 56 % 94 % 1015,9 hPa 0,0 l/m² 1,6 km/h (1 Bft) NO 45 ° 0 min 0 W/m² -0,9 °C -0,1 °C 3,2 km/h (1 Bft)
07.01.2024 00:38 21,4 °C -0,1 °C 56 % 94 % 1015,9 hPa 0,0 l/m² 0,0 km/h (0 Bft) NO 45 ° 0 min 0 W/m² -0,9 °C -0,1 °C 3,2 km/h (1 Bft)
07.01.2024 00:39 21,4 °C -0,1 °C 56 % 94 % 1016,0 hPa 0,0 l/m² 3,2 km/h (1 Bft) N-NO 22 ° 0 min 0 W/m² -0,9 °C -0,1 °C 6,4 km/h (2 Bft)
07.01.2024 00:40 21,4 °C -0,1 °C 56 % 94 % 1016,1 hPa 0,0 l/m² 1,6 km/h (1 Bft) N-NO 22 ° 0 min 0 W/m² -0,9 °C -0,1 °C 6,4 km/h (2 Bft)
07.01.2024 00:41 21,4 °C -0,1 °C 56 % 94 % 1016,0 hPa 0,0 l/m² 1,6 km/h (1 Bft) N-NO 22 ° 0 min 0 W/m² -0,9 °C -0,1 °C 4,8 km/h (1 Bft)
07.01.2024 00:42 21,4 °C -0,1 °C 56 % 94 % 1016,0 hPa 0,0 l/m² 3,2 km/h (1 Bft) N-NO 22 ° 0 min 0 W/m² -0,9 °C -0,1 °C 4,8 km/h (1 Bft)
07.01.2024 00:43 21,4 °C -0,1 °C 56 % 94 % 1016,0 hPa 0,0 l/m² 3,2 km/h (1 Bft) N 360 ° 0 min 0 W/m² -0,9 °C -0,1 °C 11,3 km/h (2 Bft)
07.01.2024 00:44 21,4 °C -0,1 °C 56 % 94 % 1016,0 hPa 0,0 l/m² 6,4 km/h (2 Bft) N-NO 22 ° 0 min 0 W/m² -0,9 °C -0,1 °C 8,0 km/h (2 Bft)
07.01.2024 00:45 21,5 °C -0,1 °C 56 % 94 % 1016,0 hPa 0,0 l/m² 8,0 km/h (2 Bft) NO 45 ° 0 min 0 W/m² -0,9 °C -1,8 °C 14,5 km/h (3 Bft)
07.01.2024 00:46 21,4 °C -0,1 °C 56 % 94 % 1016,0 hPa 0,0 l/m² 6,4 km/h (2 Bft) O-NO 67 ° 0 min 0 W/m² -0,9 °C -0,1 °C 14,5 km/h (3 Bft)
07.01.2024 00:47 21,4 °C -0,1 °C 56 % 94 % 1016,1 hPa 0,0 l/m² 6,4 km/h (2 Bft) NO 45 ° 0 min 0 W/m² -0,9 °C -0,1 °C 14,5 km/h (3 Bft)
07.01.2024 00:48 21,4 °C -0,1 °C 56 % 94 % 1016,1 hPa 0,0 l/m² 6,4 km/h (2 Bft) NO 45 ° 0 min 0 W/m² -0,9 °C -0,1 °C 11,3 km/h (2 Bft)
07.01.2024 00:49 21,4 °C -0,1 °C 56 % 94 % 1016,1 hPa 0,0 l/m² 8,0 km/h (2 Bft) N-NO 22 ° 0 min 0 W/m² -0,9 °C -1,8 °C 12,9 km/h (3 Bft)
07.01.2024 00:50 21,4 °C -0,1 °C 56 % 94 % 1016,1 hPa 0,0 l/m² 4,8 km/h (1 Bft) N-NO 22 ° 0 min 0 W/m² -0,9 °C -0,1 °C 8,0 km/h (2 Bft)
07.01.2024 00:51 21,4 °C -0,1 °C 56 % 94 % 1016,0 hPa 0,0 l/m² 6,4 km/h (2 Bft) NO 45 ° 0 min 0 W/m² -0,9 °C -0,1 °C 11,3 km/h (2 Bft)
07.01.2024 00:52 21,4 °C -0,1 °C 56 % 94 % 1016,1 hPa 0,0 l/m² 4,8 km/h (1 Bft) N-NO 22 ° 0 min 0 W/m² -0,9 °C -0,1 °C 8,0 km/h (2 Bft)
07.01.2024 00:53 21,4 °C -0,1 °C 56 % 94 % 1016,1 hPa 0,0 l/m² 1,6 km/h (1 Bft) N-NO 22 ° 0 min 0 W/m² -0,9 °C -0,1 °C 6,4 km/h (2 Bft)
07.01.2024 00:54 21,4 °C -0,1 °C 56 % 94 % 1016,1 hPa 0,0 l/m² 3,2 km/h (1 Bft) N-NO 22 ° 0 min 0 W/m² -0,9 °C -0,1 °C 6,4 km/h (2 Bft)
07.01.2024 00:55 21,4 °C -0,1 °C 56 % 94 % 1016,1 hPa 0,0 l/m² 4,8 km/h (1 Bft) N-NO 22 ° 0 min 0 W/m² -0,9 °C -0,1 °C 11,3 km/h (2 Bft)
07.01.2024 00:56 21,4 °C -0,1 °C 56 % 94 % 1016,1 hPa 0,0 l/m² 4,8 km/h (1 Bft) NO 45 ° 0 min 0 W/m² -0,9 °C -0,1 °C 12,9 km/h (3 Bft)
07.01.2024 00:57 21,4 °C -0,1 °C 56 % 94 % 1016,1 hPa 0,0 l/m² 4,8 km/h (1 Bft) N 360 ° 0 min 0 W/m² -0,9 °C -0,1 °C 14,5 km/h (3 Bft)
07.01.2024 00:58 21,4 °C -0,1 °C 56 % 94 % 1016,1 hPa 0,0 l/m² 11,3 km/h (2 Bft) N-NO 22 ° 0 min 0 W/m² -0,9 °C -4,6 °C 16,1 km/h (3 Bft)
07.01.2024 00:59 21,4 °C -0,1 °C 56 % 94 % 1016,1 hPa 0,0 l/m² 6,4 km/h (2 Bft) N-NO 22 ° 0 min 0 W/m² -0,9 °C -0,1 °C 11,3 km/h (2 Bft)
07.01.2024 01:00 21,4 °C -0,1 °C 56 % 94 % 1016,1 hPa 0,0 l/m² 6,4 km/h (2 Bft) N-NO 22 ° 0 min 0 W/m² -0,9 °C -0,1 °C 11,3 km/h (2 Bft)
07.01.2024 01:01 21,4 °C -0,1 °C 56 % 94 % 1016,1 hPa 0,0 l/m² 11,3 km/h (2 Bft) N-NO 22 ° 0 min 0 W/m² -0,9 °C -4,6 °C 22,5 km/h (4 Bft)
07.01.2024 01:02 21,4 °C -0,2 °C 56 % 94 % 1016,1 hPa 0,0 l/m² 11,3 km/h (2 Bft) N-NO 22 ° 0 min 0 W/m² -1,0 °C -4,7 °C 22,5 km/h (4 Bft)
07.01.2024 01:03 21,4 °C -0,2 °C 56 % 94 % 1016,1 hPa 0,0 l/m² 14,5 km/h (3 Bft) N-NO 22 ° 0 min 0 W/m² -1,0 °C -6,9 °C 19,3 km/h (3 Bft)
07.01.2024 01:04 21,4 °C -0,2 °C 56 % 94 % 1016,1 hPa 0,0 l/m² 8,0 km/h (2 Bft) O-NO 67 ° 0 min 0 W/m² -1,0 °C -1,9 °C 14,5 km/h (3 Bft)
07.01.2024 01:05 21,4 °C -0,2 °C 56 % 94 % 1016,1 hPa 0,0 l/m² 8,0 km/h (2 Bft) NO 45 ° 0 min 0 W/m² -1,0 °C -1,9 °C 16,1 km/h (3 Bft)
07.01.2024 01:06 21,4 °C -0,2 °C 56 % 94 % 1016,1 hPa 0,0 l/m² 11,3 km/h (2 Bft) NO 45 ° 0 min 0 W/m² -1,0 °C -4,7 °C 16,1 km/h (3 Bft)
07.01.2024 01:07 21,4 °C -0,2 °C 56 % 94 % 1016,1 hPa 0,0 l/m² 6,4 km/h (2 Bft) N-NO 22 ° 0 min 0 W/m² -1,0 °C -0,2 °C 9,7 km/h (2 Bft)
07.01.2024 01:08 21,4 °C -0,2 °C 56 % 94 % 1016,2 hPa 0,0 l/m² 9,7 km/h (2 Bft) N 360 ° 0 min 0 W/m² -1,0 °C -3,4 °C 14,5 km/h (3 Bft)
07.01.2024 01:09 21,4 °C -0,2 °C 56 % 94 % 1016,1 hPa 0,0 l/m² 12,9 km/h (3 Bft) NO 45 ° 0 min 0 W/m² -1,0 °C -5,9 °C 19,3 km/h (3 Bft)
07.01.2024 01:10 21,4 °C -0,3 °C 56 % 94 % 1016,2 hPa 0,0 l/m² 11,3 km/h (2 Bft) N-NO 22 ° 0 min 0 W/m² -1,1 °C -4,8 °C 17,7 km/h (3 Bft)
07.01.2024 01:11 21,4 °C -0,2 °C 56 % 94 % 1016,1 hPa 0,0 l/m² 8,0 km/h (2 Bft) N-NO 22 ° 0 min 0 W/m² -1,0 °C -1,9 °C 16,1 km/h (3 Bft)
07.01.2024 01:12 21,4 °C -0,3 °C 56 % 94 % 1016,1 hPa 0,0 l/m² 4,8 km/h (1 Bft) NO 45 ° 0 min 0 W/m² -1,1 °C -0,3 °C 8,0 km/h (2 Bft)
07.01.2024 01:13 21,4 °C -0,3 °C 56 % 94 % 1016,1 hPa 0,0 l/m² 4,8 km/h (1 Bft) N-NO 22 ° 0 min 0 W/m² -1,1 °C -0,3 °C 14,5 km/h (3 Bft)
07.01.2024 01:14 21,4 °C -0,3 °C 56 % 94 % 1016,1 hPa 0,0 l/m² 9,7 km/h (2 Bft) N 360 ° 0 min 0 W/m² -1,1 °C -3,5 °C 14,5 km/h (3 Bft)
07.01.2024 01:15 21,4 °C -0,3 °C 56 % 94 % 1016,1 hPa 0,0 l/m² 9,7 km/h (2 Bft) NO 45 ° 0 min 0 W/m² -1,1 °C -3,5 °C 16,1 km/h (3 Bft)
07.01.2024 01:16 21,4 °C -0,3 °C 56 % 94 % 1016,1 hPa 0,0 l/m² 6,4 km/h (2 Bft) NO 45 ° 0 min 0 W/m² -1,1 °C -0,3 °C 11,3 km/h (2 Bft)
07.01.2024 01:17 21,4 °C -0,3 °C 56 % 94 % 1016,1 hPa 0,0 l/m² 8,0 km/h (2 Bft) N-NO 22 ° 0 min 0 W/m² -1,1 °C -2,0 °C 12,9 km/h (3 Bft)
07.01.2024 01:18 21,4 °C -0,3 °C 56 % 94 % 1016,1 hPa 0,0 l/m² 9,7 km/h (2 Bft) NO 45 ° 0 min 0 W/m² -1,1 °C -3,5 °C 14,5 km/h (3 Bft)
07.01.2024 01:19 21,4 °C -0,3 °C 56 % 94 % 1016,2 hPa 0,0 l/m² 6,4 km/h (2 Bft) O-NO 67 ° 0 min 0 W/m² -1,1 °C -0,3 °C 14,5 km/h (3 Bft)
07.01.2024 01:20 21,4 °C -0,3 °C 56 % 94 % 1016,2 hPa 0,0 l/m² 8,0 km/h (2 Bft) NO 45 ° 0 min 0 W/m² -1,1 °C -2,0 °C 16,1 km/h (3 Bft)
07.01.2024 01:21 21,3 °C -0,3 °C 56 % 94 % 1016,1 hPa 0,0 l/m² 8,0 km/h (2 Bft) NO 45 ° 0 min 0 W/m² -1,1 °C -2,0 °C 12,9 km/h (3 Bft)
07.01.2024 01:22 21,4 °C -0,3 °C 56 % 94 % 1016,1 hPa 0,0 l/m² 8,0 km/h (2 Bft) N-NO 22 ° 0 min 0 W/m² -1,1 °C -2,0 °C 16,1 km/h (3 Bft)
07.01.2024 01:23 21,4 °C -0,3 °C 56 % 94 % 1016,1 hPa 0,0 l/m² 9,7 km/h (2 Bft) NO 45 ° 0 min 0 W/m² -1,1 °C -3,5 °C 14,5 km/h (3 Bft)
07.01.2024 01:24 21,4 °C -0,3 °C 56 % 94 % 1016,2 hPa 0,0 l/m² 4,8 km/h (1 Bft) NO 45 ° 0 min 0 W/m² -1,1 °C -0,3 °C 9,7 km/h (2 Bft)
07.01.2024 01:25 21,4 °C -0,3 °C 56 % 94 % 1016,2 hPa 0,0 l/m² 4,8 km/h (1 Bft) NO 45 ° 0 min 0 W/m² -1,1 °C -0,3 °C 8,0 km/h (2 Bft)
07.01.2024 01:26 21,3 °C -0,3 °C 56 % 94 % 1016,1 hPa 0,0 l/m² 4,8 km/h (1 Bft) O-NO 67 ° 0 min 0 W/m² -1,1 °C -0,3 °C 9,7 km/h (2 Bft)
07.01.2024 01:27 21,4 °C -0,3 °C 56 % 94 % 1016,2 hPa 0,0 l/m² 1,6 km/h (1 Bft) NO 45 ° 0 min 0 W/m² -1,1 °C -0,3 °C 4,8 km/h (1 Bft)
07.01.2024 01:28 21,4 °C -0,3 °C 56 % 94 % 1016,1 hPa 0,0 l/m² 4,8 km/h (1 Bft) N-NO 22 ° 0 min 0 W/m² -1,1 °C -0,3 °C 14,5 km/h (3 Bft)
07.01.2024 01:29 21,4 °C -0,3 °C 56 % 94 % 1016,2 hPa 0,0 l/m² 8,0 km/h (2 Bft) NO 45 ° 0 min 0 W/m² -1,1 °C -2,0 °C 12,9 km/h (3 Bft)
07.01.2024 01:30 21,4 °C -0,3 °C 56 % 94 % 1016,3 hPa 0,0 l/m² 9,7 km/h (2 Bft) NO 45 ° 0 min 0 W/m² -1,1 °C -3,5 °C 14,5 km/h (3 Bft)
07.01.2024 01:31 21,3 °C -0,3 °C 56 % 94 % 1016,1 hPa 0,0 l/m² 6,4 km/h (2 Bft) NO 45 ° 0 min 0 W/m² -1,1 °C -0,3 °C 9,7 km/h (2 Bft)
07.01.2024 01:32 21,4 °C -0,3 °C 56 % 94 % 1016,2 hPa 0,0 l/m² 8,0 km/h (2 Bft) N-NO 22 ° 0 min 0 W/m² -1,1 °C -2,0 °C 12,9 km/h (3 Bft)
07.01.2024 01:33 21,4 °C -0,3 °C 56 % 94 % 1016,2 hPa 0,0 l/m² 6,4 km/h (2 Bft) NO 45 ° 0 min 0 W/m² -1,1 °C -0,3 °C 9,7 km/h (2 Bft)
07.01.2024 01:34 21,3 °C -0,3 °C 56 % 94 % 1016,2 hPa 0,0 l/m² 3,2 km/h (1 Bft) NO 45 ° 0 min 0 W/m² -1,1 °C -0,3 °C 4,8 km/h (1 Bft)
07.01.2024 01:35 21,3 °C -0,3 °C 56 % 94 % 1016,2 hPa 0,0 l/m² 4,8 km/h (1 Bft) NO 45 ° 0 min 0 W/m² -1,1 °C -0,3 °C 9,7 km/h (2 Bft)
07.01.2024 01:36 21,4 °C -0,3 °C 56 % 94 % 1016,3 hPa 0,0 l/m² 6,4 km/h (2 Bft) N-NO 22 ° 0 min 0 W/m² -1,1 °C -0,3 °C 14,5 km/h (3 Bft)
07.01.2024 01:37 21,3 °C -0,3 °C 56 % 94 % 1016,2 hPa 0,0 l/m² 3,2 km/h (1 Bft) N 360 ° 0 min 0 W/m² -1,1 °C -0,3 °C 6,4 km/h (2 Bft)
07.01.2024 01:38 21,4 °C -0,3 °C 56 % 94 % 1016,2 hPa 0,0 l/m² 8,0 km/h (2 Bft) N-NO 22 ° 0 min 0 W/m² -1,1 °C -2,0 °C 14,5 km/h (3 Bft)
07.01.2024 01:39 21,3 °C -0,3 °C 56 % 94 % 1016,3 hPa 0,0 l/m² 6,4 km/h (2 Bft) NO 45 ° 0 min 0 W/m² -1,1 °C -0,3 °C 12,9 km/h (3 Bft)
07.01.2024 01:40 21,3 °C -0,3 °C 56 % 94 % 1016,3 hPa 0,0 l/m² 9,7 km/h (2 Bft) N-NO 22 ° 0 min 0 W/m² -1,1 °C -3,5 °C 14,5 km/h (3 Bft)
07.01.2024 01:41 21,4 °C -0,4 °C 56 % 94 % 1016,3 hPa 0,0 l/m² 6,4 km/h (2 Bft) N 360 ° 0 min 0 W/m² -1,2 °C -0,4 °C 12,9 km/h (3 Bft)
07.01.2024 01:42 21,4 °C -0,3 °C 56 % 94 % 1016,3 hPa 0,0 l/m² 6,4 km/h (2 Bft) N-NO 22 ° 0 min 0 W/m² -1,1 °C -0,3 °C 12,9 km/h (3 Bft)
07.01.2024 01:43 21,3 °C -0,3 °C 56 % 94 % 1016,3 hPa 0,0 l/m² 3,2 km/h (1 Bft) N-NO 22 ° 0 min 0 W/m² -1,1 °C -0,3 °C 6,4 km/h (2 Bft)
07.01.2024 01:44 21,3 °C -0,4 °C 56 % 94 % 1016,3 hPa 0,0 l/m² 4,8 km/h (1 Bft) N-NO 22 ° 0 min 0 W/m² -1,2 °C -0,4 °C 9,7 km/h (2 Bft)
07.01.2024 01:45 21,4 °C -0,4 °C 56 % 94 % 1016,4 hPa 0,0 l/m² 9,7 km/h (2 Bft) N-NO 22 ° 0 min 0 W/m² -1,2 °C -3,6 °C 14,5 km/h (3 Bft)
07.01.2024 01:46 21,3 °C -0,4 °C 56 % 94 % 1016,4 hPa 0,0 l/m² 11,3 km/h (2 Bft) N-NO 22 ° 0 min 0 W/m² -1,2 °C -4,9 °C 14,5 km/h (3 Bft)
07.01.2024 01:47 21,4 °C -0,4 °C 56 % 94 % 1016,4 hPa 0,0 l/m² 6,4 km/h (2 Bft) N-NO 22 ° 0 min 0 W/m² -1,2 °C -0,4 °C 8,0 km/h (2 Bft)
07.01.2024 01:48 21,4 °C -0,4 °C 56 % 94 % 1016,4 hPa 0,0 l/m² 11,3 km/h (2 Bft) N-NO 22 ° 0 min 0 W/m² -1,2 °C -4,9 °C 19,3 km/h (3 Bft)
07.01.2024 01:49 21,3 °C -0,4 °C 56 % 94 % 1016,4 hPa 0,0 l/m² 12,9 km/h (3 Bft) NO 45 ° 0 min 0 W/m² -1,2 °C -6,1 °C 20,9 km/h (4 Bft)
07.01.2024 01:50 21,4 °C -0,4 °C 56 % 94 % 1016,5 hPa 0,0 l/m² 8,0 km/h (2 Bft) NO 45 ° 0 min 0 W/m² -1,2 °C -2,1 °C 14,5 km/h (3 Bft)
07.01.2024 01:51 21,3 °C -0,4 °C 56 % 94 % 1016,5 hPa 0,0 l/m² 4,8 km/h (1 Bft) N-NO 22 ° 0 min 0 W/m² -1,2 °C -0,4 °C 9,7 km/h (2 Bft)
07.01.2024 01:52 21,4 °C -0,4 °C 56 % 94 % 1016,4 hPa 0,0 l/m² 4,8 km/h (1 Bft) N-NO 22 ° 0 min 0 W/m² -1,2 °C -0,4 °C 8,0 km/h (2 Bft)
07.01.2024 01:53 21,4 °C -0,4 °C 56 % 94 % 1016,5 hPa 0,0 l/m² 4,8 km/h (1 Bft) N-NO 22 ° 0 min 0 W/m² -1,2 °C -0,4 °C 11,3 km/h (2 Bft)
07.01.2024 01:54 21,4 °C -0,4 °C 56 % 93 % 1016,5 hPa 0,0 l/m² 1,6 km/h (1 Bft) NO 45 ° 0 min 0 W/m² -1,4 °C -0,4 °C 8,0 km/h (2 Bft)
07.01.2024 01:55 21,4 °C -0,4 °C 56 % 94 % 1016,5 hPa 0,0 l/m² 6,4 km/h (2 Bft) N-NO 22 ° 0 min 0 W/m² -1,2 °C -0,4 °C 8,0 km/h (2 Bft)
07.01.2024 01:56 21,3 °C -0,5 °C 56 % 93 % 1016,5 hPa 0,0 l/m² 6,4 km/h (2 Bft) N-NO 22 ° 0 min 0 W/m² -1,5 °C -0,5 °C 12,9 km/h (3 Bft)
07.01.2024 01:57 21,4 °C -0,5 °C 56 % 94 % 1016,6 hPa 0,0 l/m² 8,0 km/h (2 Bft) NO 45 ° 0 min 0 W/m² -1,3 °C -2,2 °C 12,9 km/h (3 Bft)
07.01.2024 01:58 21,3 °C -0,5 °C 56 % 93 % 1016,5 hPa 0,0 l/m² 9,7 km/h (2 Bft) N-NO 22 ° 0 min 0 W/m² -1,5 °C -3,7 °C 16,1 km/h (3 Bft)
07.01.2024 01:59 21,3 °C -0,5 °C 56 % 93 % 1016,5 hPa 0,0 l/m² 6,4 km/h (2 Bft) N-NO 22 ° 0 min 0 W/m² -1,5 °C -0,5 °C 11,3 km/h (2 Bft)
07.01.2024 02:00 21,4 °C -0,5 °C 56 % 93 % 1016,6 hPa 0,0 l/m² 11,3 km/h (2 Bft) N-NO 22 ° 0 min 0 W/m² -1,5 °C -5,1 °C 16,1 km/h (3 Bft)
07.01.2024 02:01 21,4 °C -0,5 °C 56 % 93 % 1016,6 hPa 0,0 l/m² 9,7 km/h (2 Bft) N-NO 22 ° 0 min 0 W/m² -1,5 °C -3,7 °C 14,5 km/h (3 Bft)
07.01.2024 02:02 21,4 °C -0,5 °C 56 % 93 % 1016,7 hPa 0,0 l/m² 6,4 km/h (2 Bft) N-NO 22 ° 0 min 0 W/m² -1,5 °C -0,5 °C 11,3 km/h (2 Bft)
07.01.2024 02:03 21,4 °C -0,6 °C 56 % 93 % 1016,6 hPa 0,0 l/m² 8,0 km/h (2 Bft) N 360 ° 0 min 0 W/m² -1,6 °C -2,3 °C 19,3 km/h (3 Bft)
07.01.2024 02:04 21,4 °C -0,6 °C 56 % 93 % 1016,6 hPa 0,0 l/m² 12,9 km/h (3 Bft) N-NO 22 ° 0 min 0 W/m² -1,6 °C -6,3 °C 17,7 km/h (3 Bft)
07.01.2024 02:05 21,4 °C -0,6 °C 56 % 93 % 1016,6 hPa 0,0 l/m² 11,3 km/h (2 Bft) N-NO 22 ° 0 min 0 W/m² -1,6 °C -5,2 °C 17,7 km/h (3 Bft)
07.01.2024 02:06 21,4 °C -0,6 °C 56 % 93 % 1016,7 hPa 0,0 l/m² 9,7 km/h (2 Bft) N-NO 22 ° 0 min 0 W/m² -1,6 °C -3,9 °C 16,1 km/h (3 Bft)
07.01.2024 02:07 21,4 °C -0,6 °C 56 % 93 % 1016,6 hPa 0,0 l/m² 8,0 km/h (2 Bft) N-NO 22 ° 0 min 0 W/m² -1,6 °C -2,3 °C 14,5 km/h (3 Bft)
07.01.2024 02:08 21,4 °C -0,6 °C 56 % 93 % 1016,7 hPa 0,0 l/m² 4,8 km/h (1 Bft) NO 45 ° 0 min 0 W/m² -1,6 °C -0,6 °C 8,0 km/h (2 Bft)
07.01.2024 02:09 21,4 °C -0,6 °C 56 % 93 % 1016,6 hPa 0,0 l/m² 3,2 km/h (1 Bft) NO 45 ° 0 min 0 W/m² -1,6 °C -0,6 °C 6,4 km/h (2 Bft)
07.01.2024 02:10 21,4 °C -0,6 °C 56 % 93 % 1016,7 hPa 0,0 l/m² 4,8 km/h (1 Bft) NO 45 ° 0 min 0 W/m² -1,6 °C -0,6 °C 9,7 km/h (2 Bft)
07.01.2024 02:11 21,4 °C -0,6 °C 56 % 93 % 1016,6 hPa 0,0 l/m² 6,4 km/h (2 Bft) NO 45 ° 0 min 0 W/m² -1,6 °C -0,6 °C 11,3 km/h (2 Bft)
07.01.2024 02:12 21,3 °C -0,6 °C 56 % 93 % 1016,7 hPa 0,0 l/m² 6,4 km/h (2 Bft) NO 45 ° 0 min 0 W/m² -1,6 °C -0,6 °C 8,0 km/h (2 Bft)
07.01.2024 02:13 21,4 °C -0,6 °C 56 % 93 % 1016,7 hPa 0,0 l/m² 4,8 km/h (1 Bft) NO 45 ° 0 min 0 W/m² -1,6 °C -0,6 °C 8,0 km/h (2 Bft)
07.01.2024 02:14 21,4 °C -0,6 °C 56 % 93 % 1016,7 hPa 0,0 l/m² 4,8 km/h (1 Bft) N-NO 22 ° 0 min 0 W/m² -1,6 °C -0,6 °C 8,0 km/h (2 Bft)
07.01.2024 02:15 21,4 °C -0,6 °C 56 % 93 % 1016,8 hPa 0,0 l/m² 3,2 km/h (1 Bft) NO 45 ° 0 min 0 W/m² -1,6 °C -0,6 °C 8,0 km/h (2 Bft)
07.01.2024 02:16 21,4 °C -0,6 °C 56 % 93 % 1016,9 hPa 0,0 l/m² 11,3 km/h (2 Bft) N-NO 22 ° 0 min 0 W/m² -1,6 °C -5,2 °C 17,7 km/h (3 Bft)
07.01.2024 02:17 21,4 °C -0,6 °C 56 % 93 % 1016,8 hPa 0,0 l/m² 8,0 km/h (2 Bft) N 360 ° 0 min 0 W/m² -1,6 °C -2,3 °C 14,5 km/h (3 Bft)
07.01.2024 02:18 21,4 °C -0,6 °C 56 % 93 % 1016,8 hPa 0,0 l/m² 6,4 km/h (2 Bft) NO 45 ° 0 min 0 W/m² -1,6 °C -0,6 °C 14,5 km/h (3 Bft)
07.01.2024 02:19 21,4 °C -0,6 °C 56 % 93 % 1016,9 hPa 0,0 l/m² 8,0 km/h (2 Bft) N-NO 22 ° 0 min 0 W/m² -1,6 °C -2,3 °C 12,9 km/h (3 Bft)
07.01.2024 02:20 21,4 °C -0,6 °C 56 % 93 % 1016,9 hPa 0,0 l/m² 8,0 km/h (2 Bft) N-NO 22 ° 0 min 0 W/m² -1,6 °C -2,3 °C 12,9 km/h (3 Bft)
07.01.2024 02:21 21,4 °C -0,6 °C 56 % 93 % 1016,9 hPa 0,0 l/m² 6,4 km/h (2 Bft) N-NO 22 ° 0 min 0 W/m² -1,6 °C -0,6 °C 14,5 km/h (3 Bft)
07.01.2024 02:22 21,4 °C -0,7 °C 56 % 93 % 1016,9 hPa 0,0 l/m² 9,7 km/h (2 Bft) N-NO 22 ° 0 min 0 W/m² -1,7 °C -4,0 °C 16,1 km/h (3 Bft)
07.01.2024 02:23 21,4 °C -0,7 °C 56 % 93 % 1016,9 hPa 0,0 l/m² 3,2 km/h (1 Bft) N-NO 22 ° 0 min 0 W/m² -1,7 °C -0,7 °C 6,4 km/h (2 Bft)
07.01.2024 02:24 21,4 °C -0,7 °C 56 % 93 % 1017,0 hPa 0,0 l/m² 6,4 km/h (2 Bft) N-NO 22 ° 0 min 0 W/m² -1,7 °C -0,7 °C 16,1 km/h (3 Bft)
07.01.2024 02:25 21,4 °C -0,6 °C 56 % 93 % 1017,0 hPa 0,0 l/m² 8,0 km/h (2 Bft) N-NO 22 ° 0 min 0 W/m² -1,6 °C -2,3 °C 12,9 km/h (3 Bft)
07.01.2024 02:26 21,4 °C -0,7 °C 56 % 93 % 1017,0 hPa 0,0 l/m² 9,7 km/h (2 Bft) NO 45 ° 0 min 0 W/m² -1,7 °C -4,0 °C 16,1 km/h (3 Bft)
07.01.2024 02:27 21,4 °C -0,7 °C 56 % 93 % 1017,0 hPa 0,0 l/m² 8,0 km/h (2 Bft) N-NO 22 ° 0 min 0 W/m² -1,7 °C -2,4 °C 14,5 km/h (3 Bft)
07.01.2024 02:28 21,4 °C -0,7 °C 56 % 93 % 1017,0 hPa 0,0 l/m² 9,7 km/h (2 Bft) N 360 ° 0 min 0 W/m² -1,7 °C -4,0 °C 14,5 km/h (3 Bft)
07.01.2024 02:29 21,4 °C -0,7 °C 56 % 93 % 1017,1 hPa 0,0 l/m² 9,7 km/h (2 Bft) N 360 ° 0 min 0 W/m² -1,7 °C -4,0 °C 17,7 km/h (3 Bft)
07.01.2024 02:30 21,4 °C -0,7 °C 56 % 93 % 1017,0 hPa 0,0 l/m² 4,8 km/h (1 Bft) N-NO 22 ° 0 min 0 W/m² -1,7 °C -0,7 °C 14,5 km/h (3 Bft)
07.01.2024 02:31 21,4 °C -0,7 °C 56 % 93 % 1017,1 hPa 0,0 l/m² 3,2 km/h (1 Bft) N-NO 22 ° 0 min 0 W/m² -1,7 °C -0,7 °C 6,4 km/h (2 Bft)
07.01.2024 02:32 21,4 °C -0,7 °C 56 % 93 % 1017,2 hPa 0,0 l/m² 9,7 km/h (2 Bft) N-NO 22 ° 0 min 0 W/m² -1,7 °C -4,0 °C 14,5 km/h (3 Bft)
07.01.2024 02:33 21,4 °C -0,7 °C 56 % 93 % 1017,2 hPa 0,0 l/m² 12,9 km/h (3 Bft) NO 45 ° 0 min 0 W/m² -1,7 °C -6,5 °C 17,7 km/h (3 Bft)
07.01.2024 02:34 21,4 °C -0,7 °C 56 % 93 % 1017,1 hPa 0,0 l/m² 9,7 km/h (2 Bft) N-NO 22 ° 0 min 0 W/m² -1,7 °C -4,0 °C 16,1 km/h (3 Bft)
07.01.2024 02:35 21,4 °C -0,7 °C 56 % 93 % 1017,2 hPa 0,0 l/m² 8,0 km/h (2 Bft) N-NO 22 ° 0 min 0 W/m² -1,7 °C -2,4 °C 14,5 km/h (3 Bft)
07.01.2024 02:36 21,4 °C -0,7 °C 56 % 93 % 1017,2 hPa 0,0 l/m² 11,3 km/h (2 Bft) N-NO 22 ° 0 min 0 W/m² -1,7 °C -5,3 °C 19,3 km/h (3 Bft)
07.01.2024 02:37 21,4 °C -0,7 °C 56 % 93 % 1017,2 hPa 0,0 l/m² 6,4 km/h (2 Bft) NO 45 ° 0 min 0 W/m² -1,7 °C -0,7 °C 14,5 km/h (3 Bft)
07.01.2024 02:38 21,4 °C -0,7 °C 56 % 93 % 1017,3 hPa 0,0 l/m² 9,7 km/h (2 Bft) NO 45 ° 0 min 0 W/m² -1,7 °C -4,0 °C 17,7 km/h (3 Bft)
07.01.2024 02:39 21,4 °C -0,7 °C 56 % 93 % 1017,3 hPa 0,0 l/m² 9,7 km/h (2 Bft) NO 45 ° 0 min 0 W/m² -1,7 °C -4,0 °C 14,5 km/h (3 Bft)
07.01.2024 02:40 21,4 °C -0,7 °C 56 % 93 % 1017,3 hPa 0,0 l/m² 9,7 km/h (2 Bft) N-NO 22 ° 0 min 0 W/m² -1,7 °C -4,0 °C 16,1 km/h (3 Bft)
07.01.2024 02:41 21,4 °C -0,7 °C 56 % 93 % 1017,3 hPa 0,0 l/m² 9,7 km/h (2 Bft) N-NO 22 ° 0 min 0 W/m² -1,7 °C -4,0 °C 17,7 km/h (3 Bft)
07.01.2024 02:42 21,4 °C -0,8 °C 56 % 93 % 1017,4 hPa 0,0 l/m² 8,0 km/h (2 Bft) N-NO 22 ° 0 min 0 W/m² -1,8 °C -2,5 °C 14,5 km/h (3 Bft)
07.01.2024 02:43 21,4 °C -0,8 °C 56 % 93 % 1017,3 hPa 0,0 l/m² 9,7 km/h (2 Bft) NO 45 ° 0 min 0 W/m² -1,8 °C -4,1 °C 14,5 km/h (3 Bft)
07.01.2024 02:44 21,4 °C -0,8 °C 56 % 93 % 1017,3 hPa 0,0 l/m² 8,0 km/h (2 Bft) NO 45 ° 0 min 0 W/m² -1,8 °C -2,5 °C 16,1 km/h (3 Bft)
07.01.2024 02:45 21,4 °C -0,8 °C 56 % 93 % 1017,4 hPa 0,0 l/m² 8,0 km/h (2 Bft) N-NO 22 ° 0 min 0 W/m² -1,8 °C -2,5 °C 11,3 km/h (2 Bft)
07.01.2024 02:46 21,4 °C -0,8 °C 56 % 93 % 1017,4 hPa 0,0 l/m² 8,0 km/h (2 Bft) N-NO 22 ° 0 min 0 W/m² -1,8 °C -2,5 °C 14,5 km/h (3 Bft)
07.01.2024 02:47 21,4 °C -0,8 °C 56 % 93 % 1017,4 hPa 0,0 l/m² 9,7 km/h (2 Bft) NO 45 ° 0 min 0 W/m² -1,8 °C -4,1 °C 16,1 km/h (3 Bft)
07.01.2024 02:48 21,4 °C -0,8 °C 56 % 93 % 1017,4 hPa 0,0 l/m² 8,0 km/h (2 Bft) N-NO 22 ° 0 min 0 W/m² -1,8 °C -2,5 °C 12,9 km/h (3 Bft)
07.01.2024 02:49 21,4 °C -0,8 °C 56 % 93 % 1017,4 hPa 0,0 l/m² 8,0 km/h (2 Bft) N-NO 22 ° 0 min 0 W/m² -1,8 °C -2,5 °C 14,5 km/h (3 Bft)
07.01.2024 02:50 21,4 °C -0,8 °C 56 % 93 % 1017,4 hPa 0,0 l/m² 6,4 km/h (2 Bft) N 360 ° 0 min 0 W/m² -1,8 °C -0,8 °C 11,3 km/h (2 Bft)
07.01.2024 02:51 21,4 °C -0,8 °C 56 % 93 % 1017,5 hPa 0,0 l/m² 8,0 km/h (2 Bft) N-NO 22 ° 0 min 0 W/m² -1,8 °C -2,5 °C 14,5 km/h (3 Bft)
07.01.2024 02:52 21,4 °C -0,8 °C 56 % 93 % 1017,4 hPa 0,0 l/m² 8,0 km/h (2 Bft) NO 45 ° 0 min 0 W/m² -1,8 °C -2,5 °C 16,1 km/h (3 Bft)
07.01.2024 02:53 21,4 °C -0,8 °C 56 % 93 % 1017,4 hPa 0,0 l/m² 6,4 km/h (2 Bft) N-NO 22 ° 0 min 0 W/m² -1,8 °C -0,8 °C 19,3 km/h (3 Bft)
07.01.2024 02:54 21,4 °C -0,8 °C 56 % 93 % 1017,4 hPa 0,0 l/m² 14,5 km/h (3 Bft) N-NO 22 ° 0 min 0 W/m² -1,8 °C -7,6 °C 22,5 km/h (4 Bft)
07.01.2024 02:55 21,4 °C -0,8 °C 56 % 93 % 1017,4 hPa 0,0 l/m² 8,0 km/h (2 Bft) N 360 ° 0 min 0 W/m² -1,8 °C -2,5 °C 16,1 km/h (3 Bft)
07.01.2024 02:56 21,4 °C -0,8 °C 56 % 93 % 1017,4 hPa 0,0 l/m² 6,4 km/h (2 Bft) NO 45 ° 0 min 0 W/m² -1,8 °C -0,8 °C 14,5 km/h (3 Bft)
07.01.2024 02:57 21,4 °C -0,8 °C 56 % 93 % 1017,5 hPa 0,0 l/m² 1,6 km/h (1 Bft) NO 45 ° 0 min 0 W/m² -1,8 °C -0,8 °C 8,0 km/h (2 Bft)
07.01.2024 02:58 21,4 °C -0,8 °C 56 % 93 % 1017,5 hPa 0,0 l/m² 6,4 km/h (2 Bft) NO 45 ° 0 min 0 W/m² -1,8 °C -0,8 °C 11,3 km/h (2 Bft)
07.01.2024 02:59 21,4 °C -0,8 °C 56 % 93 % 1017,5 hPa 0,0 l/m² 4,8 km/h (1 Bft) N-NO 22 ° 0 min 0 W/m² -1,8 °C -0,8 °C 9,7 km/h (2 Bft)
07.01.2024 03:00 21,4 °C -0,8 °C 56 % 93 % 1017,5 hPa 0,0 l/m² 8,0 km/h (2 Bft) N-NO 22 ° 0 min 0 W/m² -1,8 °C -2,5 °C 14,5 km/h (3 Bft)
07.01.2024 03:01 21,4 °C -0,8 °C 56 % 93 % 1017,5 hPa 0,0 l/m² 11,3 km/h (2 Bft) N-NO 22 ° 0 min 0 W/m² -1,8 °C -5,4 °C 17,7 km/h (3 Bft)
07.01.2024 03:02 21,4 °C -0,9 °C 56 % 93 % 1017,5 hPa 0,0 l/m² 4,8 km/h (1 Bft) N-NO 22 ° 0 min 0 W/m² -1,9 °C -0,9 °C 9,7 km/h (2 Bft)
07.01.2024 03:03 21,4 °C -0,9 °C 56 % 93 % 1017,5 hPa 0,0 l/m² 9,7 km/h (2 Bft) NO 45 ° 0 min 0 W/m² -1,9 °C -4,2 °C 17,7 km/h (3 Bft)
07.01.2024 03:04 21,4 °C -0,9 °C 56 % 93 % 1017,5 hPa 0,0 l/m² 14,5 km/h (3 Bft) NO 45 ° 0 min 0 W/m² -1,9 °C -7,8 °C 22,5 km/h (4 Bft)
07.01.2024 03:05 21,4 °C -0,9 °C 56 % 93 % 1017,5 hPa 0,0 l/m² 8,0 km/h (2 Bft) N-NO 22 ° 0 min 0 W/m² -1,9 °C -2,6 °C 17,7 km/h (3 Bft)
07.01.2024 03:06 21,4 °C -0,9 °C 56 % 93 % 1017,4 hPa 0,0 l/m² 6,4 km/h (2 Bft) N-NO 22 ° 0 min 0 W/m² -1,9 °C -0,9 °C 12,9 km/h (3 Bft)
07.01.2024 03:07 21,4 °C -0,9 °C 56 % 93 % 1017,5 hPa 0,0 l/m² 9,7 km/h (2 Bft) N-NO 22 ° 0 min 0 W/m² -1,9 °C -4,2 °C 17,7 km/h (3 Bft)
07.01.2024 03:08 21,4 °C -0,9 °C 56 % 93 % 1017,5 hPa 0,0 l/m² 9,7 km/h (2 Bft) N-NO 22 ° 0 min 0 W/m² -1,9 °C -4,2 °C 17,7 km/h (3 Bft)
07.01.2024 03:09 21,4 °C -0,9 °C 56 % 93 % 1017,6 hPa 0,0 l/m² 8,0 km/h (2 Bft) N-NO 22 ° 0 min 0 W/m² -1,9 °C -2,6 °C 14,5 km/h (3 Bft)
07.01.2024 03:10 21,4 °C -0,9 °C 56 % 93 % 1017,6 hPa 0,0 l/m² 9,7 km/h (2 Bft) NO 45 ° 0 min 0 W/m² -1,9 °C -4,2 °C 14,5 km/h (3 Bft)
07.01.2024 03:11 21,4 °C -0,9 °C 56 % 93 % 1017,5 hPa 0,0 l/m² 9,7 km/h (2 Bft) NO 45 ° 0 min 0 W/m² -1,9 °C -4,2 °C 17,7 km/h (3 Bft)
07.01.2024 03:12 21,4 °C -0,9 °C 56 % 93 % 1017,6 hPa 0,0 l/m² 3,2 km/h (1 Bft) NO 45 ° 0 min 0 W/m² -1,9 °C -0,9 °C 8,0 km/h (2 Bft)
07.01.2024 03:13 21,4 °C -0,9 °C 56 % 93 % 1017,6 hPa 0,0 l/m² 9,7 km/h (2 Bft) N-NO 22 ° 0 min 0 W/m² -1,9 °C -4,2 °C 16,1 km/h (3 Bft)
07.01.2024 03:14 21,4 °C -0,9 °C 56 % 93 % 1017,6 hPa 0,0 l/m² 4,8 km/h (1 Bft) N-NO 22 ° 0 min 0 W/m² -1,9 °C -0,9 °C 8,0 km/h (2 Bft)
07.01.2024 03:15 21,4 °C -0,9 °C 56 % 93 % 1017,6 hPa 0,0 l/m² 4,8 km/h (1 Bft) N-NO 22 ° 0 min 0 W/m² -1,9 °C -0,9 °C 9,7 km/h (2 Bft)
07.01.2024 03:16 21,4 °C -0,9 °C 56 % 93 % 1017,6 hPa 0,0 l/m² 9,7 km/h (2 Bft) N-NO 22 ° 0 min 0 W/m² -1,9 °C -4,2 °C 14,5 km/h (3 Bft)
07.01.2024 03:17 21,4 °C -0,9 °C 56 % 93 % 1017,6 hPa 0,0 l/m² 6,4 km/h (2 Bft) NO 45 ° 0 min 0 W/m² -1,9 °C -0,9 °C 9,7 km/h (2 Bft)
07.01.2024 03:18 21,4 °C -1,0 °C 56 % 93 % 1017,7 hPa 0,0 l/m² 4,8 km/h (1 Bft) N-NO 22 ° 0 min 0 W/m² -2,0 °C -1,0 °C 8,0 km/h (2 Bft)
07.01.2024 03:19 21,4 °C -1,0 °C 56 % 93 % 1017,6 hPa 0,0 l/m² 11,3 km/h (2 Bft) N-NO 22 ° 0 min 0 W/m² -2,0 °C -5,6 °C 19,3 km/h (3 Bft)
07.01.2024 03:20 21,4 °C -1,0 °C 56 % 93 % 1017,7 hPa 0,0 l/m² 17,7 km/h (3 Bft) N-NO 22 ° 0 min 0 W/m² -2,0 °C -9,8 °C 24,1 km/h (4 Bft)
07.01.2024 03:21 21,4 °C -1,0 °C 56 % 93 % 1017,7 hPa 0,0 l/m² 12,9 km/h (3 Bft) NO 45 ° 0 min 0 W/m² -2,0 °C -6,8 °C 24,1 km/h (4 Bft)
07.01.2024 03:22 21,4 °C -1,1 °C 56 % 93 % 1017,6 hPa 0,0 l/m² 12,9 km/h (3 Bft) N-NO 22 ° 0 min 0 W/m² -2,1 °C -6,9 °C 20,9 km/h (4 Bft)
07.01.2024 03:23 21,4 °C -1,1 °C 56 % 93 % 1017,7 hPa 0,0 l/m² 14,5 km/h (3 Bft) N-NO 22 ° 0 min 0 W/m² -2,1 °C -8,0 °C 17,7 km/h (3 Bft)
07.01.2024 03:24 21,4 °C -1,1 °C 56 % 92 % 1017,7 hPa 0,0 l/m² 11,3 km/h (2 Bft) N-NO 22 ° 0 min 0 W/m² -2,2 °C -5,7 °C 17,7 km/h (3 Bft)
07.01.2024 03:25 21,4 °C -1,1 °C 56 % 92 % 1017,7 hPa 0,0 l/m² 8,0 km/h (2 Bft) N-NO 22 ° 0 min 0 W/m² -2,2 °C -2,8 °C 16,1 km/h (3 Bft)
07.01.2024 03:26 21,4 °C -1,1 °C 56 % 92 % 1017,7 hPa 0,0 l/m² 8,0 km/h (2 Bft) O-NO 67 ° 0 min 0 W/m² -2,2 °C -2,8 °C 12,9 km/h (3 Bft)
07.01.2024 03:27 21,4 °C -1,1 °C 56 % 92 % 1017,7 hPa 0,0 l/m² 8,0 km/h (2 Bft) O-NO 67 ° 0 min 0 W/m² -2,2 °C -2,8 °C 11,3 km/h (2 Bft)
07.01.2024 03:28 21,4 °C -1,1 °C 56 % 92 % 1017,7 hPa 0,0 l/m² 11,3 km/h (2 Bft) N-NO 22 ° 0 min 0 W/m² -2,2 °C -5,7 °C 16,1 km/h (3 Bft)
07.01.2024 03:29 21,4 °C -1,1 °C 56 % 92 % 1017,7 hPa 0,0 l/m² 8,0 km/h (2 Bft) N-NO 22 ° 0 min 0 W/m² -2,2 °C -2,8 °C 16,1 km/h (3 Bft)
07.01.2024 03:30 21,4 °C -1,1 °C 56 % 92 % 1017,7 hPa 0,0 l/m² 9,7 km/h (2 Bft) NO 45 ° 0 min 0 W/m² -2,2 °C -4,4 °C 16,1 km/h (3 Bft)
07.01.2024 03:31 21,4 °C -1,1 °C 56 % 92 % 1017,7 hPa 0,0 l/m² 6,4 km/h (2 Bft) NO 45 ° 0 min 0 W/m² -2,2 °C -1,1 °C 12,9 km/h (3 Bft)
07.01.2024 03:32 21,4 °C -1,1 °C 56 % 92 % 1017,8 hPa 0,0 l/m² 4,8 km/h (1 Bft) N-NO 22 ° 0 min 0 W/m² -2,2 °C -1,1 °C 11,3 km/h (2 Bft)
07.01.2024 03:33 21,4 °C -1,1 °C 56 % 92 % 1017,8 hPa 0,0 l/m² 6,4 km/h (2 Bft) N-NO 22 ° 0 min 0 W/m² -2,2 °C -1,1 °C 12,9 km/h (3 Bft)
07.01.2024 03:34 21,4 °C -1,1 °C 56 % 92 % 1017,8 hPa 0,0 l/m² 12,9 km/h (3 Bft) N-NO 22 ° 0 min 0 W/m² -2,2 °C -6,9 °C 20,9 km/h (4 Bft)
07.01.2024 03:35 21,4 °C -1,1 °C 56 % 92 % 1017,8 hPa 0,0 l/m² 11,3 km/h (2 Bft) N-NO 22 ° 0 min 0 W/m² -2,2 °C -5,7 °C 16,1 km/h (3 Bft)
07.01.2024 03:36 21,4 °C -1,1 °C 56 % 92 % 1017,8 hPa 0,0 l/m² 11,3 km/h (2 Bft) N-NO 22 ° 0 min 0 W/m² -2,2 °C -5,7 °C 19,3 km/h (3 Bft)
07.01.2024 03:37 21,4 °C -1,1 °C 56 % 92 % 1017,8 hPa 0,0 l/m² 6,4 km/h (2 Bft) N-NO 22 ° 0 min 0 W/m² -2,2 °C -1,1 °C 12,9 km/h (3 Bft)
07.01.2024 03:38 21,4 °C -1,1 °C 56 % 92 % 1017,8 hPa 0,0 l/m² 3,2 km/h (1 Bft) N-NO 22 ° 0 min 0 W/m² -2,2 °C -1,1 °C 11,3 km/h (2 Bft)
07.01.2024 03:39 21,4 °C -1,1 °C 56 % 92 % 1017,8 hPa 0,0 l/m² 8,0 km/h (2 Bft) NO 45 ° 0 min 0 W/m² -2,2 °C -2,8 °C 14,5 km/h (3 Bft)
07.01.2024 03:40 21,4 °C -1,1 °C 56 % 92 % 1017,9 hPa 0,0 l/m² 8,0 km/h (2 Bft) N-NO 22 ° 0 min 0 W/m² -2,2 °C -2,8 °C 12,9 km/h (3 Bft)
07.01.2024 03:41 21,3 °C -1,1 °C 56 % 92 % 1017,9 hPa 0,0 l/m² 3,2 km/h (1 Bft) N-NO 22 ° 0 min 0 W/m² -2,2 °C -1,1 °C 6,4 km/h (2 Bft)
07.01.2024 03:42 21,4 °C -1,1 °C 56 % 92 % 1017,9 hPa 0,0 l/m² 4,8 km/h (1 Bft) N-NO 22 ° 0 min 0 W/m² -2,2 °C -1,1 °C 16,1 km/h (3 Bft)
07.01.2024 03:43 21,3 °C -1,1 °C 56 % 92 % 1018,0 hPa 0,0 l/m² 8,0 km/h (2 Bft) NO 45 ° 0 min 0 W/m² -2,2 °C -2,8 °C 14,5 km/h (3 Bft)
07.01.2024 03:44 21,4 °C -1,1 °C 56 % 92 % 1018,0 hPa 0,0 l/m² 4,8 km/h (1 Bft) NO 45 ° 0 min 0 W/m² -2,2 °C -1,1 °C 8,0 km/h (2 Bft)
07.01.2024 03:45 21,3 °C -1,1 °C 56 % 92 % 1017,9 hPa 0,0 l/m² 1,6 km/h (1 Bft) N-NO 22 ° 0 min 0 W/m² -2,2 °C -1,1 °C 6,4 km/h (2 Bft)
07.01.2024 03:46 21,4 °C -1,1 °C 56 % 92 % 1017,9 hPa 0,0 l/m² 1,6 km/h (1 Bft) N-NO 22 ° 0 min 0 W/m² -2,2 °C -1,1 °C 8,0 km/h (2 Bft)
07.01.2024 03:47 21,4 °C -1,1 °C 56 % 92 % 1018,1 hPa 0,0 l/m² 4,8 km/h (1 Bft) N-NO 22 ° 0 min 0 W/m² -2,2 °C -1,1 °C 8,0 km/h (2 Bft)
07.01.2024 03:48 21,3 °C -1,2 °C 56 % 92 % 1018,0 hPa 0,0 l/m² 8,0 km/h (2 Bft) N-NO 22 ° 0 min 0 W/m² -2,3 °C -2,9 °C 16,1 km/h (3 Bft)
07.01.2024 03:49 21,3 °C -1,2 °C 56 % 92 % 1018,0 hPa 0,0 l/m² 8,0 km/h (2 Bft) N-NO 22 ° 0 min 0 W/m² -2,3 °C -2,9 °C 12,9 km/h (3 Bft)
07.01.2024 03:50 21,3 °C -1,1 °C 56 % 92 % 1018,0 hPa 0,0 l/m² 3,2 km/h (1 Bft) N 360 ° 0 min 0 W/m² -2,2 °C -1,1 °C 6,4 km/h (2 Bft)
07.01.2024 03:51 21,3 °C -1,2 °C 56 % 92 % 1018,0 hPa 0,0 l/m² 1,6 km/h (1 Bft) N 360 ° 0 min 0 W/m² -2,3 °C -1,2 °C 6,4 km/h (2 Bft)
07.01.2024 03:52 21,4 °C -1,2 °C 56 % 92 % 1018,0 hPa 0,0 l/m² 3,2 km/h (1 Bft) N-NO 22 ° 0 min 0 W/m² -2,3 °C -1,2 °C 11,3 km/h (2 Bft)
07.01.2024 03:53 21,3 °C -1,2 °C 56 % 92 % 1018,0 hPa 0,0 l/m² 8,0 km/h (2 Bft) N-NO 22 ° 0 min 0 W/m² -2,3 °C -2,9 °C 16,1 km/h (3 Bft)
07.01.2024 03:54 21,4 °C -1,2 °C 56 % 92 % 1018,0 hPa 0,0 l/m² 8,0 km/h (2 Bft) N-NO 22 ° 0 min 0 W/m² -2,3 °C -2,9 °C 14,5 km/h (3 Bft)
07.01.2024 03:55 21,3 °C -1,2 °C 56 % 92 % 1018,1 hPa 0,0 l/m² 8,0 km/h (2 Bft) N-NO 22 ° 0 min 0 W/m² -2,3 °C -2,9 °C 11,3 km/h (2 Bft)
07.01.2024 03:56 21,4 °C -1,2 °C 56 % 92 % 1018,0 hPa 0,0 l/m² 4,8 km/h (1 Bft) N-NO 22 ° 0 min 0 W/m² -2,3 °C -1,2 °C 8,0 km/h (2 Bft)
07.01.2024 03:57 21,4 °C -1,2 °C 56 % 92 % 1018,0 hPa 0,0 l/m² 9,7 km/h (2 Bft) N-NO 22 ° 0 min 0 W/m² -2,3 °C -4,5 °C 17,7 km/h (3 Bft)
07.01.2024 03:58 21,4 °C -1,2 °C 56 % 92 % 1018,0 hPa 0,0 l/m² 6,4 km/h (2 Bft) NO 45 ° 0 min 0 W/m² -2,3 °C -1,2 °C 12,9 km/h (3 Bft)
07.01.2024 03:59 21,3 °C -1,2 °C 56 % 92 % 1018,1 hPa 0,0 l/m² 6,4 km/h (2 Bft) NO 45 ° 0 min 0 W/m² -2,3 °C -1,2 °C 9,7 km/h (2 Bft)
07.01.2024 04:00 21,3 °C -1,2 °C 56 % 92 % 1018,0 hPa 0,0 l/m² 1,6 km/h (1 Bft) N-NO 22 ° 0 min 0 W/m² -2,3 °C -1,2 °C 4,8 km/h (1 Bft)
07.01.2024 04:01 21,3 °C -1,2 °C 56 % 92 % 1018,0 hPa 0,0 l/m² 6,4 km/h (2 Bft) N-NO 22 ° 0 min 0 W/m² -2,3 °C -1,2 °C 11,3 km/h (2 Bft)
07.01.2024 04:02 21,3 °C -1,2 °C 56 % 92 % 1018,0 hPa 0,0 l/m² 6,4 km/h (2 Bft) NO 45 ° 0 min 0 W/m² -2,3 °C -1,2 °C 14,5 km/h (3 Bft)
07.01.2024 04:03 21,3 °C -1,2 °C 56 % 92 % 1018,1 hPa 0,0 l/m² 3,2 km/h (1 Bft) NO 45 ° 0 min 0 W/m² -2,3 °C -1,2 °C 9,7 km/h (2 Bft)
07.01.2024 04:04 21,3 °C -1,2 °C 56 % 92 % 1018,1 hPa 0,0 l/m² 3,2 km/h (1 Bft) N-NO 22 ° 0 min 0 W/m² -2,3 °C -1,2 °C 6,4 km/h (2 Bft)
07.01.2024 04:05 21,4 °C -1,2 °C 56 % 92 % 1018,1 hPa 0,0 l/m² 4,8 km/h (1 Bft) N-NO 22 ° 0 min 0 W/m² -2,3 °C -1,2 °C 8,0 km/h (2 Bft)
07.01.2024 04:06 21,3 °C -1,2 °C 56 % 92 % 1018,0 hPa 0,0 l/m² 4,8 km/h (1 Bft) N 360 ° 0 min 0 W/m² -2,3 °C -1,2 °C 8,0 km/h (2 Bft)
07.01.2024 04:07 21,3 °C -1,2 °C 56 % 92 % 1018,0 hPa 0,0 l/m² 4,8 km/h (1 Bft) N 360 ° 0 min 0 W/m² -2,3 °C -1,2 °C 8,0 km/h (2 Bft)
07.01.2024 04:08 21,3 °C -1,2 °C 56 % 92 % 1018,0 hPa 0,0 l/m² 4,8 km/h (1 Bft) N 360 ° 0 min 0 W/m² -2,3 °C -1,2 °C 9,7 km/h (2 Bft)
07.01.2024 04:09 21,3 °C -1,2 °C 56 % 92 % 1018,1 hPa 0,0 l/m² 6,4 km/h (2 Bft) N-NO 22 ° 0 min 0 W/m² -2,3 °C -1,2 °C 11,3 km/h (2 Bft)
07.01.2024 04:10 21,3 °C -1,3 °C 56 % 92 % 1018,0 hPa 0,0 l/m² 6,4 km/h (2 Bft) N-NO 22 ° 0 min 0 W/m² -2,4 °C -1,3 °C 8,0 km/h (2 Bft)
07.01.2024 04:11 21,3 °C -1,3 °C 56 % 92 % 1018,0 hPa 0,0 l/m² 6,4 km/h (2 Bft) NO 45 ° 0 min 0 W/m² -2,4 °C -1,3 °C 11,3 km/h (2 Bft)
07.01.2024 04:12 21,3 °C -1,3 °C 56 % 92 % 1018,0 hPa 0,0 l/m² 4,8 km/h (1 Bft) N-NO 22 ° 0 min 0 W/m² -2,4 °C -1,3 °C 11,3 km/h (2 Bft)
07.01.2024 04:13 21,3 °C -1,3 °C 56 % 92 % 1018,0 hPa 0,0 l/m² 1,6 km/h (1 Bft) N-NO 22 ° 0 min 0 W/m² -2,4 °C -1,3 °C 4,8 km/h (1 Bft)
07.01.2024 04:14 21,3 °C -1,3 °C 56 % 92 % 1018,0 hPa 0,0 l/m² 4,8 km/h (1 Bft) N-NO 22 ° 0 min 0 W/m² -2,4 °C -1,3 °C 9,7 km/h (2 Bft)
07.01.2024 04:15 21,3 °C -1,3 °C 56 % 92 % 1018,0 hPa 0,0 l/m² 6,4 km/h (2 Bft) N 360 ° 0 min 0 W/m² -2,4 °C -1,3 °C 9,7 km/h (2 Bft)
07.01.2024 04:16 21,3 °C -1,3 °C 56 % 92 % 1018,1 hPa 0,0 l/m² 4,8 km/h (1 Bft) N 360 ° 0 min 0 W/m² -2,4 °C -1,3 °C 11,3 km/h (2 Bft)
07.01.2024 04:17 21,3 °C -1,3 °C 56 % 92 % 1018,0 hPa 0,0 l/m² 6,4 km/h (2 Bft) N-NO 22 ° 0 min 0 W/m² -2,4 °C -1,3 °C 9,7 km/h (2 Bft)
07.01.2024 04:18 21,3 °C -1,3 °C 56 % 92 % 1018,1 hPa 0,0 l/m² 6,4 km/h (2 Bft) N 360 ° 0 min 0 W/m² -2,4 °C -1,3 °C 12,9 km/h (3 Bft)
07.01.2024 04:19 21,4 °C -1,3 °C 56 % 92 % 1018,0 hPa 0,0 l/m² 8,0 km/h (2 Bft) N 360 ° 0 min 0 W/m² -2,4 °C -3,0 °C 12,9 km/h (3 Bft)
07.01.2024 04:20 21,4 °C -1,3 °C 56 % 92 % 1018,0 hPa 0,0 l/m² 11,3 km/h (2 Bft) NO 45 ° 0 min 0 W/m² -2,4 °C -6,0 °C 17,7 km/h (3 Bft)
07.01.2024 04:21 21,3 °C -1,3 °C 56 % 92 % 1018,0 hPa 0,0 l/m² 9,7 km/h (2 Bft) N-NO 22 ° 0 min 0 W/m² -2,4 °C -4,6 °C 17,7 km/h (3 Bft)
07.01.2024 04:22 21,4 °C -1,4 °C 56 % 91 % 1018,0 hPa 0,0 l/m² 4,8 km/h (1 Bft) N-NO 22 ° 0 min 0 W/m² -2,7 °C -1,4 °C 9,7 km/h (2 Bft)
07.01.2024 04:23 21,3 °C -1,3 °C 56 % 91 % 1018,1 hPa 0,0 l/m² 4,8 km/h (1 Bft) N-NO 22 ° 0 min 0 W/m² -2,6 °C -1,3 °C 11,3 km/h (2 Bft)
07.01.2024 04:24 21,4 °C -1,4 °C 56 % 91 % 1018,1 hPa 0,0 l/m² 9,7 km/h (2 Bft) NO 45 ° 0 min 0 W/m² -2,7 °C -4,7 °C 12,9 km/h (3 Bft)
07.01.2024 04:25 21,3 °C -1,4 °C 56 % 91 % 1018,2 hPa 0,0 l/m² 4,8 km/h (1 Bft) N-NO 22 ° 0 min 0 W/m² -2,7 °C -1,4 °C 12,9 km/h (3 Bft)
07.01.2024 04:26 21,3 °C -1,4 °C 56 % 91 % 1018,2 hPa 0,0 l/m² 6,4 km/h (2 Bft) N 360 ° 0 min 0 W/m² -2,7 °C -1,4 °C 12,9 km/h (3 Bft)
07.01.2024 04:27 21,4 °C -1,4 °C 56 % 91 % 1018,2 hPa 0,0 l/m² 6,4 km/h (2 Bft) N-NO 22 ° 0 min 0 W/m² -2,7 °C -1,4 °C 16,1 km/h (3 Bft)
07.01.2024 04:28 21,3 °C -1,4 °C 56 % 91 % 1018,2 hPa 0,0 l/m² 8,0 km/h (2 Bft) N-NO 22 ° 0 min 0 W/m² -2,7 °C -3,1 °C 16,1 km/h (3 Bft)
07.01.2024 04:29 21,4 °C -1,4 °C 56 % 91 % 1018,3 hPa 0,0 l/m² 4,8 km/h (1 Bft) N-NO 22 ° 0 min 0 W/m² -2,7 °C -1,4 °C 9,7 km/h (2 Bft)
07.01.2024 04:30 21,4 °C -1,4 °C 56 % 91 % 1018,3 hPa 0,0 l/m² 8,0 km/h (2 Bft) N-NO 22 ° 0 min 0 W/m² -2,7 °C -3,1 °C 12,9 km/h (3 Bft)
07.01.2024 04:31 21,3 °C -1,4 °C 56 % 91 % 1018,3 hPa 0,0 l/m² 1,6 km/h (1 Bft) N-NO 22 ° 0 min 0 W/m² -2,7 °C -1,4 °C 11,3 km/h (2 Bft)
07.01.2024 04:32 21,4 °C -1,4 °C 56 % 91 % 1018,2 hPa 0,0 l/m² 14,5 km/h (3 Bft) NO 45 ° 0 min 0 W/m² -2,7 °C -8,4 °C 24,1 km/h (4 Bft)
07.01.2024 04:33 21,4 °C -1,4 °C 56 % 91 % 1018,3 hPa 0,0 l/m² 16,1 km/h (3 Bft) N 360 ° 0 min 0 W/m² -2,7 °C -9,3 °C 25,7 km/h (4 Bft)
07.01.2024 04:34 21,4 °C -1,4 °C 56 % 91 % 1018,2 hPa 0,0 l/m² 16,1 km/h (3 Bft) N-NO 22 ° 0 min 0 W/m² -2,7 °C -9,3 °C 25,7 km/h (4 Bft)
07.01.2024 04:35 21,4 °C -1,4 °C 56 % 91 % 1018,2 hPa 0,0 l/m² 12,9 km/h (3 Bft) N-NO 22 ° 0 min 0 W/m² -2,7 °C -7,3 °C 16,1 km/h (3 Bft)
07.01.2024 04:36 21,4 °C -1,5 °C 56 % 91 % 1018,2 hPa 0,0 l/m² 11,3 km/h (2 Bft) NO 45 ° 0 min 0 W/m² -2,8 °C -6,2 °C 17,7 km/h (3 Bft)
07.01.2024 04:37 21,4 °C -1,5 °C 56 % 91 % 1018,2 hPa 0,0 l/m² 8,0 km/h (2 Bft) NO 45 ° 0 min 0 W/m² -2,8 °C -3,2 °C 17,7 km/h (3 Bft)
07.01.2024 04:38 21,4 °C -1,5 °C 56 % 91 % 1018,3 hPa 0,0 l/m² 6,4 km/h (2 Bft) NO 45 ° 0 min 0 W/m² -2,8 °C -1,5 °C 11,3 km/h (2 Bft)
07.01.2024 04:39 21,4 °C -1,6 °C 56 % 91 % 1018,3 hPa 0,0 l/m² 6,4 km/h (2 Bft) N-NO 22 ° 0 min 0 W/m² -2,9 °C -1,6 °C 12,9 km/h (3 Bft)
07.01.2024 04:40 21,4 °C -1,6 °C 56 % 91 % 1018,3 hPa 0,0 l/m² 4,8 km/h (1 Bft) N 360 ° 0 min 0 W/m² -2,9 °C -1,6 °C 8,0 km/h (2 Bft)
07.01.2024 04:41 21,4 °C -1,5 °C 56 % 90 % 1018,4 hPa 0,0 l/m² 8,0 km/h (2 Bft) N 360 ° 0 min 0 W/m² -2,9 °C -3,2 °C 14,5 km/h (3 Bft)
07.01.2024 04:42 21,4 °C -1,5 °C 56 % 90 % 1018,3 hPa 0,0 l/m² 9,7 km/h (2 Bft) N 360 ° 0 min 0 W/m² -2,9 °C -4,8 °C 16,1 km/h (3 Bft)
07.01.2024 04:43 21,4 °C -1,6 °C 56 % 90 % 1018,4 hPa 0,0 l/m² 9,7 km/h (2 Bft) N 360 ° 0 min 0 W/m² -3,0 °C -5,0 °C 16,1 km/h (3 Bft)
07.01.2024 04:44 21,4 °C -1,6 °C 56 % 90 % 1018,4 hPa 0,0 l/m² 11,3 km/h (2 Bft) NO 45 ° 0 min 0 W/m² -3,0 °C -6,3 °C 20,9 km/h (4 Bft)
07.01.2024 04:45 21,4 °C -1,6 °C 56 % 90 % 1018,4 hPa 0,0 l/m² 9,7 km/h (2 Bft) N-NO 22 ° 0 min 0 W/m² -3,0 °C -5,0 °C 14,5 km/h (3 Bft)
07.01.2024 04:46 21,4 °C -1,6 °C 56 % 90 % 1018,4 hPa 0,0 l/m² 12,9 km/h (3 Bft) NO 45 ° 0 min 0 W/m² -3,0 °C -7,5 °C 19,3 km/h (3 Bft)
07.01.2024 04:47 21,4 °C -1,6 °C 56 % 90 % 1018,3 hPa 0,0 l/m² 12,9 km/h (3 Bft) N 360 ° 0 min 0 W/m² -3,0 °C -7,5 °C 19,3 km/h (3 Bft)
07.01.2024 04:48 21,4 °C -1,6 °C 56 % 90 % 1018,4 hPa 0,0 l/m² 6,4 km/h (2 Bft) N 360 ° 0 min 0 W/m² -3,0 °C -1,6 °C 9,7 km/h (2 Bft)
07.01.2024 04:49 21,4 °C -1,6 °C 55 % 90 % 1018,4 hPa 0,0 l/m² 6,4 km/h (2 Bft) NO 45 ° 0 min 0 W/m² -3,0 °C -1,6 °C 14,5 km/h (3 Bft)
07.01.2024 04:50 21,4 °C -1,6 °C 55 % 90 % 1018,4 hPa 0,0 l/m² 9,7 km/h (2 Bft) N-NO 22 ° 0 min 0 W/m² -3,0 °C -5,0 °C 16,1 km/h (3 Bft)
07.01.2024 04:51 21,4 °C -1,6 °C 55 % 90 % 1018,4 hPa 0,0 l/m² 6,4 km/h (2 Bft) N-NO 22 ° 0 min 0 W/m² -3,0 °C -1,6 °C 11,3 km/h (2 Bft)
07.01.2024 04:52 21,4 °C -1,6 °C 55 % 90 % 1018,4 hPa 0,0 l/m² 8,0 km/h (2 Bft) N-NO 22 ° 0 min 0 W/m² -3,0 °C -3,3 °C 14,5 km/h (3 Bft)
07.01.2024 04:53 21,4 °C -1,6 °C 55 % 90 % 1018,4 hPa 0,0 l/m² 11,3 km/h (2 Bft) N-NO 22 ° 0 min 0 W/m² -3,0 °C -6,3 °C 17,7 km/h (3 Bft)
07.01.2024 04:54 21,4 °C -1,6 °C 55 % 90 % 1018,4 hPa 0,0 l/m² 6,4 km/h (2 Bft) N-NO 22 ° 0 min 0 W/m² -3,0 °C -1,6 °C 16,1 km/h (3 Bft)
07.01.2024 04:55 21,4 °C -1,6 °C 55 % 90 % 1018,4 hPa 0,0 l/m² 9,7 km/h (2 Bft) N-NO 22 ° 0 min 0 W/m² -3,0 °C -5,0 °C 19,3 km/h (3 Bft)
07.01.2024 04:56 21,4 °C -1,6 °C 55 % 90 % 1018,4 hPa 0,0 l/m² 9,7 km/h (2 Bft) N-NO 22 ° 0 min 0 W/m² -3,0 °C -5,0 °C 16,1 km/h (3 Bft)
07.01.2024 04:57 21,4 °C -1,6 °C 55 % 90 % 1018,5 hPa 0,0 l/m² 8,0 km/h (2 Bft) N-NO 22 ° 0 min 0 W/m² -3,0 °C -3,3 °C 14,5 km/h (3 Bft)
07.01.2024 04:58 21,4 °C -1,6 °C 55 % 90 % 1018,5 hPa 0,0 l/m² 11,3 km/h (2 Bft) N-NO 22 ° 0 min 0 W/m² -3,0 °C -6,3 °C 17,7 km/h (3 Bft)
07.01.2024 04:59 21,4 °C -1,6 °C 55 % 90 % 1018,5 hPa 0,0 l/m² 11,3 km/h (2 Bft) N 360 ° 0 min 0 W/m² -3,0 °C -6,3 °C 17,7 km/h (3 Bft)
07.01.2024 05:00 21,4 °C -1,6 °C 55 % 90 % 1018,5 hPa 0,0 l/m² 4,8 km/h (1 Bft) N-NO 22 ° 0 min 0 W/m² -3,0 °C -1,6 °C 11,3 km/h (2 Bft)
07.01.2024 05:01 21,4 °C -1,6 °C 55 % 90 % 1018,6 hPa 0,0 l/m² 1,6 km/h (1 Bft) N 360 ° 0 min 0 W/m² -3,0 °C -1,6 °C 9,7 km/h (2 Bft)
07.01.2024 05:02 21,4 °C -1,6 °C 55 % 90 % 1018,5 hPa 0,0 l/m² 6,4 km/h (2 Bft) N-NO 22 ° 0 min 0 W/m² -3,0 °C -1,6 °C 12,9 km/h (3 Bft)
07.01.2024 05:03 21,4 °C -1,6 °C 55 % 90 % 1018,5 hPa 0,0 l/m² 8,0 km/h (2 Bft) N-NO 22 ° 0 min 0 W/m² -3,0 °C -3,3 °C 12,9 km/h (3 Bft)
07.01.2024 05:04 21,4 °C -1,6 °C 55 % 89 % 1018,5 hPa 0,0 l/m² 8,0 km/h (2 Bft) N 360 ° 0 min 0 W/m² -3,2 °C -3,3 °C 19,3 km/h (3 Bft)
07.01.2024 05:05 21,4 °C -1,6 °C 55 % 89 % 1018,5 hPa 0,0 l/m² 11,3 km/h (2 Bft) N-NO 22 ° 0 min 0 W/m² -3,2 °C -6,3 °C 16,1 km/h (3 Bft)
07.01.2024 05:06 21,4 °C -1,6 °C 55 % 89 % 1018,5 hPa 0,0 l/m² 8,0 km/h (2 Bft) N-NO 22 ° 0 min 0 W/m² -3,2 °C -3,3 °C 12,9 km/h (3 Bft)
07.01.2024 05:07 21,4 °C -1,6 °C 55 % 89 % 1018,6 hPa 0,0 l/m² 3,2 km/h (1 Bft) N-NO 22 ° 0 min 0 W/m² -3,2 °C -1,6 °C 8,0 km/h (2 Bft)
07.01.2024 05:08 21,4 °C -1,6 °C 55 % 89 % 1018,6 hPa 0,0 l/m² 4,8 km/h (1 Bft) N 360 ° 0 min 0 W/m² -3,2 °C -1,6 °C 8,0 km/h (2 Bft)
07.01.2024 05:09 21,4 °C -1,6 °C 55 % 90 % 1018,6 hPa 0,0 l/m² 6,4 km/h (2 Bft) N 360 ° 0 min 0 W/m² -3,0 °C -1,6 °C 9,7 km/h (2 Bft)
07.01.2024 05:10 21,4 °C -1,6 °C 55 % 90 % 1018,6 hPa 0,0 l/m² 9,7 km/h (2 Bft) N-NO 22 ° 0 min 0 W/m² -3,0 °C -5,0 °C 16,1 km/h (3 Bft)
07.01.2024 05:11 21,4 °C -1,6 °C 55 % 89 % 1018,6 hPa 0,0 l/m² 6,4 km/h (2 Bft) N-NO 22 ° 0 min 0 W/m² -3,2 °C -1,6 °C 14,5 km/h (3 Bft)
07.01.2024 05:12 21,4 °C -1,6 °C 55 % 89 % 1018,7 hPa 0,0 l/m² 4,8 km/h (1 Bft) N 360 ° 0 min 0 W/m² -3,2 °C -1,6 °C 9,7 km/h (2 Bft)
07.01.2024 05:13 21,4 °C -1,6 °C 55 % 89 % 1018,6 hPa 0,0 l/m² 1,6 km/h (1 Bft) NO 45 ° 0 min 0 W/m² -3,2 °C -1,6 °C 8,0 km/h (2 Bft)
07.01.2024 05:14 21,4 °C -1,6 °C 55 % 89 % 1018,6 hPa 0,0 l/m² 6,4 km/h (2 Bft) N-NO 22 ° 0 min 0 W/m² -3,2 °C -1,6 °C 11,3 km/h (2 Bft)
07.01.2024 05:15 21,4 °C -1,6 °C 55 % 89 % 1018,7 hPa 0,0 l/m² 6,4 km/h (2 Bft) NO 45 ° 0 min 0 W/m² -3,2 °C -1,6 °C 14,5 km/h (3 Bft)
07.01.2024 05:16 21,4 °C -1,6 °C 55 % 89 % 1018,6 hPa 0,0 l/m² 4,8 km/h (1 Bft) N-NO 22 ° 0 min 0 W/m² -3,2 °C -1,6 °C 8,0 km/h (2 Bft)
07.01.2024 05:17 21,4 °C -1,6 °C 55 % 89 % 1018,7 hPa 0,0 l/m² 4,8 km/h (1 Bft) N 360 ° 0 min 0 W/m² -3,2 °C -1,6 °C 6,4 km/h (2 Bft)
07.01.2024 05:18 21,4 °C -1,5 °C 55 % 89 % 1018,7 hPa 0,0 l/m² 4,8 km/h (1 Bft) N 360 ° 0 min 0 W/m² -3,1 °C -1,5 °C 12,9 km/h (3 Bft)
07.01.2024 05:19 21,4 °C -1,6 °C 55 % 89 % 1018,6 hPa 0,0 l/m² 6,4 km/h (2 Bft) N 360 ° 0 min 0 W/m² -3,2 °C -1,6 °C 14,5 km/h (3 Bft)
07.01.2024 05:20 21,4 °C -1,6 °C 55 % 89 % 1018,7 hPa 0,0 l/m² 6,4 km/h (2 Bft) NO 45 ° 0 min 0 W/m² -3,2 °C -1,6 °C 9,7 km/h (2 Bft)
07.01.2024 05:21 21,4 °C -1,6 °C 55 % 89 % 1018,6 hPa 0,0 l/m² 4,8 km/h (1 Bft) N-NO 22 ° 0 min 0 W/m² -3,2 °C -1,6 °C 9,7 km/h (2 Bft)
07.01.2024 05:22 21,4 °C -1,6 °C 55 % 89 % 1018,7 hPa 0,0 l/m² 3,2 km/h (1 Bft) N 360 ° 0 min 0 W/m² -3,2 °C -1,6 °C 6,4 km/h (2 Bft)
07.01.2024 05:23 21,4 °C -1,5 °C 55 % 89 % 1018,7 hPa 0,0 l/m² 6,4 km/h (2 Bft) N-NO 22 ° 0 min 0 W/m² -3,1 °C -1,5 °C 12,9 km/h (3 Bft)
07.01.2024 05:24 21,4 °C -1,6 °C 55 % 89 % 1018,6 hPa 0,0 l/m² 11,3 km/h (2 Bft) N-NO 22 ° 0 min 0 W/m² -3,2 °C -6,3 °C 17,7 km/h (3 Bft)
07.01.2024 05:25 21,5 °C -1,6 °C 55 % 89 % 1018,6 hPa 0,0 l/m² 8,0 km/h (2 Bft) N-NO 22 ° 0 min 0 W/m² -3,2 °C -3,3 °C 12,9 km/h (3 Bft)
07.01.2024 05:26 21,4 °C -1,5 °C 55 % 89 % 1018,7 hPa 0,0 l/m² 8,0 km/h (2 Bft) N 360 ° 0 min 0 W/m² -3,1 °C -3,2 °C 11,3 km/h (2 Bft)
07.01.2024 05:27 21,4 °C -1,6 °C 55 % 89 % 1018,7 hPa 0,0 l/m² 8,0 km/h (2 Bft) N-NO 22 ° 0 min 0 W/m² -3,2 °C -3,3 °C 12,9 km/h (3 Bft)
07.01.2024 05:28 21,4 °C -1,6 °C 55 % 89 % 1018,7 hPa 0,0 l/m² 1,6 km/h (1 Bft) NO 45 ° 0 min 0 W/m² -3,2 °C -1,6 °C 6,4 km/h (2 Bft)
07.01.2024 05:29 21,4 °C -1,6 °C 55 % 89 % 1018,7 hPa 0,0 l/m² 1,6 km/h (1 Bft) N 360 ° 0 min 0 W/m² -3,2 °C -1,6 °C 4,8 km/h (1 Bft)
07.01.2024 05:30 21,4 °C -1,6 °C 55 % 89 % 1018,8 hPa 0,0 l/m² 3,2 km/h (1 Bft) N 360 ° 0 min 0 W/m² -3,2 °C -1,6 °C 6,4 km/h (2 Bft)
07.01.2024 05:31 21,4 °C -1,6 °C 55 % 89 % 1018,8 hPa 0,0 l/m² 4,8 km/h (1 Bft) N-NO 22 ° 0 min 0 W/m² -3,2 °C -1,6 °C 8,0 km/h (2 Bft)
07.01.2024 05:32 21,4 °C -1,6 °C 55 % 89 % 1018,8 hPa 0,0 l/m² 6,4 km/h (2 Bft) NO 45 ° 0 min 0 W/m² -3,2 °C -1,6 °C 11,3 km/h (2 Bft)
07.01.2024 05:33 21,4 °C -1,6 °C 55 % 89 % 1018,8 hPa 0,0 l/m² 8,0 km/h (2 Bft) N-NO 22 ° 0 min 0 W/m² -3,2 °C -3,3 °C 14,5 km/h (3 Bft)
07.01.2024 05:34 21,4 °C -1,6 °C 55 % 89 % 1018,8 hPa 0,0 l/m² 4,8 km/h (1 Bft) N 360 ° 0 min 0 W/m² -3,2 °C -1,6 °C 11,3 km/h (2 Bft)
07.01.2024 05:35 21,4 °C -1,6 °C 55 % 89 % 1018,7 hPa 0,0 l/m² 3,2 km/h (1 Bft) NO 45 ° 0 min 0 W/m² -3,2 °C -1,6 °C 6,4 km/h (2 Bft)
07.01.2024 05:36 21,5 °C -1,6 °C 55 % 89 % 1018,8 hPa 0,0 l/m² 0,0 km/h (0 Bft) N 360 ° 0 min 0 W/m² -3,2 °C -1,6 °C 4,8 km/h (1 Bft)
07.01.2024 05:37 21,4 °C -1,6 °C 55 % 89 % 1018,8 hPa 0,0 l/m² 1,6 km/h (1 Bft) NO 45 ° 0 min 0 W/m² -3,2 °C -1,6 °C 3,2 km/h (1 Bft)
07.01.2024 05:38 21,4 °C -1,6 °C 55 % 89 % 1018,8 hPa 0,0 l/m² 3,2 km/h (1 Bft) N-NO 22 ° 0 min 0 W/m² -3,2 °C -1,6 °C 8,0 km/h (2 Bft)
07.01.2024 05:39 21,4 °C -1,6 °C 55 % 89 % 1018,8 hPa 0,0 l/m² 4,8 km/h (1 Bft) N-NO 22 ° 0 min 0 W/m² -3,2 °C -1,6 °C 9,7 km/h (2 Bft)
07.01.2024 05:40 21,4 °C -1,6 °C 55 % 89 % 1018,8 hPa 0,0 l/m² 6,4 km/h (2 Bft) N-NO 22 ° 0 min 0 W/m² -3,2 °C -1,6 °C 12,9 km/h (3 Bft)
07.01.2024 05:41 21,5 °C -1,6 °C 55 % 89 % 1018,9 hPa 0,0 l/m² 4,8 km/h (1 Bft) N-NO 22 ° 0 min 0 W/m² -3,2 °C -1,6 °C 9,7 km/h (2 Bft)
07.01.2024 05:42 21,5 °C -1,6 °C 55 % 89 % 1018,9 hPa 0,0 l/m² 9,7 km/h (2 Bft) N-NO 22 ° 0 min 0 W/m² -3,2 °C -5,0 °C 16,1 km/h (3 Bft)
07.01.2024 05:43 21,4 °C -1,6 °C 55 % 88 % 1018,8 hPa 0,0 l/m² 6,4 km/h (2 Bft) NO 45 ° 0 min 0 W/m² -3,3 °C -1,6 °C 9,7 km/h (2 Bft)
07.01.2024 05:44 21,4 °C -1,6 °C 55 % 89 % 1018,9 hPa 0,0 l/m² 4,8 km/h (1 Bft) N-NO 22 ° 0 min 0 W/m² -3,2 °C -1,6 °C 14,5 km/h (3 Bft)
07.01.2024 05:45 21,4 °C -1,6 °C 55 % 88 % 1018,9 hPa 0,0 l/m² 8,0 km/h (2 Bft) N-NO 22 ° 0 min 0 W/m² -3,3 °C -3,3 °C 14,5 km/h (3 Bft)
07.01.2024 05:46 21,4 °C -1,6 °C 55 % 88 % 1018,8 hPa 0,0 l/m² 6,4 km/h (2 Bft) N-NO 22 ° 0 min 0 W/m² -3,3 °C -1,6 °C 11,3 km/h (2 Bft)
07.01.2024 05:47 21,4 °C -1,6 °C 55 % 88 % 1018,8 hPa 0,0 l/m² 4,8 km/h (1 Bft) N-NO 22 ° 0 min 0 W/m² -3,3 °C -1,6 °C 9,7 km/h (2 Bft)
07.01.2024 05:48 21,4 °C -1,5 °C 55 % 88 % 1018,8 hPa 0,0 l/m² 6,4 km/h (2 Bft) N 360 ° 0 min 0 W/m² -3,2 °C -1,5 °C 12,9 km/h (3 Bft)
07.01.2024 05:49 21,4 °C -1,5 °C 55 % 88 % 1018,8 hPa 0,0 l/m² 4,8 km/h (1 Bft) N 360 ° 0 min 0 W/m² -3,2 °C -1,5 °C 8,0 km/h (2 Bft)
07.01.2024 05:50 21,4 °C -1,6 °C 55 % 88 % 1018,8 hPa 0,0 l/m² 4,8 km/h (1 Bft) N 360 ° 0 min 0 W/m² -3,3 °C -1,6 °C 17,7 km/h (3 Bft)
07.01.2024 05:51 21,4 °C -1,6 °C 55 % 88 % 1018,8 hPa 0,0 l/m² 12,9 km/h (3 Bft) N 360 ° 0 min 0 W/m² -3,3 °C -7,5 °C 20,9 km/h (4 Bft)
07.01.2024 05:52 21,4 °C -1,6 °C 55 % 88 % 1018,9 hPa 0,0 l/m² 11,3 km/h (2 Bft) N-NO 22 ° 0 min 0 W/m² -3,3 °C -6,3 °C 16,1 km/h (3 Bft)
07.01.2024 05:53 21,4 °C -1,6 °C 55 % 88 % 1018,8 hPa 0,0 l/m² 9,7 km/h (2 Bft) N 360 ° 0 min 0 W/m² -3,3 °C -5,0 °C 14,5 km/h (3 Bft)
07.01.2024 05:54 21,4 °C -1,5 °C 55 % 88 % 1018,9 hPa 0,0 l/m² 11,3 km/h (2 Bft) N 360 ° 0 min 0 W/m² -3,2 °C -6,2 °C 17,7 km/h (3 Bft)
07.01.2024 05:55 21,4 °C -1,6 °C 55 % 88 % 1018,9 hPa 0,0 l/m² 11,3 km/h (2 Bft) NO 45 ° 0 min 0 W/m² -3,3 °C -6,3 °C 19,3 km/h (3 Bft)
07.01.2024 05:56 21,4 °C -1,5 °C 55 % 88 % 1018,9 hPa 0,0 l/m² 9,7 km/h (2 Bft) NO 45 ° 0 min 0 W/m² -3,2 °C -4,8 °C 14,5 km/h (3 Bft)
07.01.2024 05:57 21,4 °C -1,5 °C 55 % 88 % 1019,0 hPa 0,0 l/m² 4,8 km/h (1 Bft) N-NO 22 ° 0 min 0 W/m² -3,2 °C -1,5 °C 9,7 km/h (2 Bft)
07.01.2024 05:58 21,4 °C -1,4 °C 55 % 88 % 1018,9 hPa 0,0 l/m² 1,6 km/h (1 Bft) N-NO 22 ° 0 min 0 W/m² -3,1 °C -1,4 °C 8,0 km/h (2 Bft)
07.01.2024 05:59 21,4 °C -1,5 °C 55 % 88 % 1019,0 hPa 0,0 l/m² 8,0 km/h (2 Bft) N-NO 22 ° 0 min 0 W/m² -3,2 °C -3,2 °C 14,5 km/h (3 Bft)
07.01.2024 06:00 21,4 °C -1,5 °C 55 % 87 % 1019,0 hPa 0,0 l/m² 3,2 km/h (1 Bft) NO 45 ° 0 min 0 W/m² -3,4 °C -1,5 °C 4,8 km/h (1 Bft)
07.01.2024 06:01 21,4 °C -1,5 °C 55 % 87 % 1019,0 hPa 0,0 l/m² 1,6 km/h (1 Bft) N-NO 22 ° 0 min 0 W/m² -3,4 °C -1,5 °C 6,4 km/h (2 Bft)
07.01.2024 06:02 21,4 °C -1,4 °C 55 % 87 % 1019,0 hPa 0,0 l/m² 11,3 km/h (2 Bft) N-NO 22 ° 0 min 0 W/m² -3,3 °C -6,1 °C 19,3 km/h (3 Bft)
07.01.2024 06:03 21,4 °C -1,4 °C 55 % 88 % 1019,0 hPa 0,0 l/m² 4,8 km/h (1 Bft) N-NO 22 ° 0 min 0 W/m² -3,1 °C -1,4 °C 9,7 km/h (2 Bft)
07.01.2024 06:04 21,4 °C -1,4 °C 55 % 88 % 1019,1 hPa 0,0 l/m² 4,8 km/h (1 Bft) N-NO 22 ° 0 min 0 W/m² -3,1 °C -1,4 °C 8,0 km/h (2 Bft)
07.01.2024 06:05 21,5 °C -1,5 °C 55 % 87 % 1019,0 hPa 0,0 l/m² 3,2 km/h (1 Bft) N 360 ° 0 min 0 W/m² -3,4 °C -1,5 °C 8,0 km/h (2 Bft)
07.01.2024 06:06 21,4 °C -1,5 °C 55 % 87 % 1019,1 hPa 0,0 l/m² 8,0 km/h (2 Bft) NO 45 ° 0 min 0 W/m² -3,4 °C -3,2 °C 20,9 km/h (4 Bft)
07.01.2024 06:07 21,4 °C -1,4 °C 55 % 87 % 1019,1 hPa 0,0 l/m² 9,7 km/h (2 Bft) N 360 ° 0 min 0 W/m² -3,3 °C -4,7 °C 16,1 km/h (3 Bft)
07.01.2024 06:08 21,4 °C -1,4 °C 55 % 87 % 1019,1 hPa 0,0 l/m² 8,0 km/h (2 Bft) N 360 ° 0 min 0 W/m² -3,3 °C -3,1 °C 12,9 km/h (3 Bft)
07.01.2024 06:09 21,4 °C -1,5 °C 55 % 87 % 1019,1 hPa 0,0 l/m² 4,8 km/h (1 Bft) N-NO 22 ° 0 min 0 W/m² -3,4 °C -1,5 °C 8,0 km/h (2 Bft)
07.01.2024 06:10 21,4 °C -1,5 °C 55 % 87 % 1019,1 hPa 0,0 l/m² 9,7 km/h (2 Bft) N-NO 22 ° 0 min 0 W/m² -3,4 °C -4,8 °C 16,1 km/h (3 Bft)
07.01.2024 06:11 21,4 °C -1,5 °C 55 % 87 % 1019,1 hPa 0,0 l/m² 8,0 km/h (2 Bft) NO 45 ° 0 min 0 W/m² -3,4 °C -3,2 °C 14,5 km/h (3 Bft)
07.01.2024 06:12 21,4 °C -1,4 °C 55 % 87 % 1019,1 hPa 0,0 l/m² 4,8 km/h (1 Bft) N-NO 22 ° 0 min 0 W/m² -3,3 °C -1,4 °C 8,0 km/h (2 Bft)
07.01.2024 06:13 21,4 °C -1,5 °C 55 % 87 % 1019,1 hPa 0,0 l/m² 9,7 km/h (2 Bft) N 360 ° 0 min 0 W/m² -3,4 °C -4,8 °C 16,1 km/h (3 Bft)
07.01.2024 06:14 21,4 °C -1,4 °C 55 % 87 % 1019,1 hPa 0,0 l/m² 6,4 km/h (2 Bft) N-NO 22 ° 0 min 0 W/m² -3,3 °C -1,4 °C 14,5 km/h (3 Bft)
07.01.2024 06:15 21,4 °C -1,5 °C 55 % 87 % 1019,2 hPa 0,0 l/m² 12,9 km/h (3 Bft) N-NO 22 ° 0 min 0 W/m² -3,4 °C -7,4 °C 19,3 km/h (3 Bft)
07.01.2024 06:16 21,4 °C -1,5 °C 55 % 87 % 1019,1 hPa 0,0 l/m² 11,3 km/h (2 Bft) N-NO 22 ° 0 min 0 W/m² -3,4 °C -6,2 °C 17,7 km/h (3 Bft)
07.01.2024 06:17 21,4 °C -1,5 °C 55 % 87 % 1019,2 hPa 0,0 l/m² 6,4 km/h (2 Bft) N-NO 22 ° 0 min 0 W/m² -3,4 °C -1,5 °C 12,9 km/h (3 Bft)
07.01.2024 06:18 21,4 °C -1,4 °C 55 % 87 % 1019,2 hPa 0,0 l/m² 11,3 km/h (2 Bft) N-NO 22 ° 0 min 0 W/m² -3,3 °C -6,1 °C 17,7 km/h (3 Bft)
07.01.2024 06:19 21,4 °C -1,5 °C 55 % 87 % 1019,2 hPa 0,0 l/m² 11,3 km/h (2 Bft) N-NO 22 ° 0 min 0 W/m² -3,4 °C -6,2 °C 16,1 km/h (3 Bft)
07.01.2024 06:20 21,4 °C -1,4 °C 55 % 86 % 1019,2 hPa 0,0 l/m² 4,8 km/h (1 Bft) N-NO 22 ° 0 min 0 W/m² -3,4 °C -1,4 °C 11,3 km/h (2 Bft)
07.01.2024 06:21 21,4 °C -1,5 °C 55 % 86 % 1019,3 hPa 0,0 l/m² 1,6 km/h (1 Bft) N-NO 22 ° 0 min 0 W/m² -3,5 °C -1,5 °C 6,4 km/h (2 Bft)
07.01.2024 06:22 21,4 °C -1,5 °C 55 % 86 % 1019,2 hPa 0,0 l/m² 3,2 km/h (1 Bft) N-NO 22 ° 0 min 0 W/m² -3,5 °C -1,5 °C 8,0 km/h (2 Bft)
07.01.2024 06:23 21,4 °C -1,4 °C 55 % 86 % 1019,3 hPa 0,0 l/m² 6,4 km/h (2 Bft) N-NO 22 ° 0 min 0 W/m² -3,4 °C -1,4 °C 12,9 km/h (3 Bft)
07.01.2024 06:24 21,4 °C -1,5 °C 55 % 86 % 1019,3 hPa 0,0 l/m² 3,2 km/h (1 Bft) N-NO 22 ° 0 min 0 W/m² -3,5 °C -1,5 °C 6,4 km/h (2 Bft)
07.01.2024 06:25 21,4 °C -1,4 °C 55 % 86 % 1019,2 hPa 0,0 l/m² 8,0 km/h (2 Bft) N 360 ° 0 min 0 W/m² -3,4 °C -3,1 °C 12,9 km/h (3 Bft)
07.01.2024 06:26 21,4 °C -1,5 °C 55 % 86 % 1019,3 hPa 0,0 l/m² 8,0 km/h (2 Bft) N 360 ° 0 min 0 W/m² -3,5 °C -3,2 °C 14,5 km/h (3 Bft)
07.01.2024 06:27 21,4 °C -1,4 °C 55 % 86 % 1019,3 hPa 0,0 l/m² 8,0 km/h (2 Bft) N 360 ° 0 min 0 W/m² -3,4 °C -3,1 °C 12,9 km/h (3 Bft)
07.01.2024 06:28 21,4 °C -1,4 °C 55 % 86 % 1019,3 hPa 0,0 l/m² 6,4 km/h (2 Bft) N-NO 22 ° 0 min 0 W/m² -3,4 °C -1,4 °C 9,7 km/h (2 Bft)
07.01.2024 06:29 21,4 °C -1,4 °C 55 % 86 % 1019,3 hPa 0,0 l/m² 8,0 km/h (2 Bft) N-NO 22 ° 0 min 0 W/m² -3,4 °C -3,1 °C 16,1 km/h (3 Bft)
07.01.2024 06:30 21,4 °C -1,4 °C 55 % 86 % 1019,3 hPa 0,0 l/m² 8,0 km/h (2 Bft) N 360 ° 0 min 0 W/m² -3,4 °C -3,1 °C 12,9 km/h (3 Bft)
07.01.2024 06:31 21,4 °C -1,4 °C 55 % 86 % 1019,4 hPa 0,0 l/m² 8,0 km/h (2 Bft) N 360 ° 0 min 0 W/m² -3,4 °C -3,1 °C 14,5 km/h (3 Bft)
07.01.2024 06:32 21,4 °C -1,4 °C 55 % 86 % 1019,4 hPa 0,0 l/m² 6,4 km/h (2 Bft) N 360 ° 0 min 0 W/m² -3,4 °C -1,4 °C 12,9 km/h (3 Bft)
07.01.2024 06:33 21,4 °C -1,4 °C 55 % 86 % 1019,4 hPa 0,0 l/m² 8,0 km/h (2 Bft) N 360 ° 0 min 0 W/m² -3,4 °C -3,1 °C 14,5 km/h (3 Bft)
07.01.2024 06:34 21,4 °C -1,4 °C 55 % 86 % 1019,4 hPa 0,0 l/m² 6,4 km/h (2 Bft) NO 45 ° 0 min 0 W/m² -3,4 °C -1,4 °C 9,7 km/h (2 Bft)
07.01.2024 06:35 21,4 °C -1,4 °C 55 % 86 % 1019,4 hPa 0,0 l/m² 4,8 km/h (1 Bft) N 360 ° 0 min 0 W/m² -3,4 °C -1,4 °C 6,4 km/h (2 Bft)
07.01.2024 06:36 21,4 °C -1,4 °C 55 % 86 % 1019,5 hPa 0,0 l/m² 4,8 km/h (1 Bft) N-NO 22 ° 0 min 0 W/m² -3,4 °C -1,4 °C 6,4 km/h (2 Bft)
07.01.2024 06:37 21,4 °C -1,4 °C 55 % 86 % 1019,5 hPa 0,0 l/m² 4,8 km/h (1 Bft) N-NO 22 ° 0 min 0 W/m² -3,4 °C -1,4 °C 8,0 km/h (2 Bft)
07.01.2024 06:38 21,4 °C -1,4 °C 55 % 86 % 1019,6 hPa 0,0 l/m² 8,0 km/h (2 Bft) N-NO 22 ° 0 min 0 W/m² -3,4 °C -3,1 °C 14,5 km/h (3 Bft)
07.01.2024 06:39 21,4 °C -1,4 °C 55 % 86 % 1019,5 hPa 0,0 l/m² 8,0 km/h (2 Bft) N 360 ° 0 min 0 W/m² -3,4 °C -3,1 °C 12,9 km/h (3 Bft)
07.01.2024 06:40 21,4 °C -1,4 °C 55 % 86 % 1019,5 hPa 0,0 l/m² 9,7 km/h (2 Bft) N-NO 22 ° 0 min 0 W/m² -3,4 °C -4,7 °C 12,9 km/h (3 Bft)
07.01.2024 06:41 21,4 °C -1,4 °C 55 % 86 % 1019,5 hPa 0,0 l/m² 9,7 km/h (2 Bft) N 360 ° 0 min 0 W/m² -3,4 °C -4,7 °C 14,5 km/h (3 Bft)
07.01.2024 06:42 21,4 °C -1,4 °C 55 % 86 % 1019,5 hPa 0,0 l/m² 8,0 km/h (2 Bft) N-NO 22 ° 0 min 0 W/m² -3,4 °C -3,1 °C 14,5 km/h (3 Bft)
07.01.2024 06:43 21,4 °C -1,4 °C 55 % 86 % 1019,6 hPa 0,0 l/m² 14,5 km/h (3 Bft) NO 45 ° 0 min 0 W/m² -3,4 °C -8,4 °C 20,9 km/h (4 Bft)
07.01.2024 06:44 21,4 °C -1,4 °C 55 % 86 % 1019,5 hPa 0,0 l/m² 9,7 km/h (2 Bft) N-NO 22 ° 0 min 0 W/m² -3,4 °C -4,7 °C 16,1 km/h (3 Bft)
07.01.2024 06:45 21,4 °C -1,5 °C 55 % 86 % 1019,6 hPa 0,0 l/m² 9,7 km/h (2 Bft) N-NO 22 ° 0 min 0 W/m² -3,5 °C -4,8 °C 16,1 km/h (3 Bft)
07.01.2024 06:46 21,4 °C -1,5 °C 55 % 86 % 1019,6 hPa 0,0 l/m² 11,3 km/h (2 Bft) N-NO 22 ° 0 min 0 W/m² -3,5 °C -6,2 °C 20,9 km/h (4 Bft)
07.01.2024 06:47 21,4 °C -1,4 °C 55 % 86 % 1019,6 hPa 0,0 l/m² 16,1 km/h (3 Bft) N-NO 22 ° 0 min 0 W/m² -3,4 °C -9,3 °C 20,9 km/h (4 Bft)
07.01.2024 06:48 21,4 °C -1,5 °C 55 % 86 % 1019,6 hPa 0,0 l/m² 12,9 km/h (3 Bft) N-NO 22 ° 0 min 0 W/m² -3,5 °C -7,4 °C 20,9 km/h (4 Bft)
07.01.2024 06:49 21,4 °C -1,5 °C 55 % 85 % 1019,7 hPa 0,0 l/m² 9,7 km/h (2 Bft) N-NO 22 ° 0 min 0 W/m² -3,7 °C -4,8 °C 16,1 km/h (3 Bft)
07.01.2024 06:50 21,4 °C -1,5 °C 55 % 85 % 1019,6 hPa 0,0 l/m² 9,7 km/h (2 Bft) N-NO 22 ° 0 min 0 W/m² -3,7 °C -4,8 °C 16,1 km/h (3 Bft)
07.01.2024 06:51 21,4 °C -1,5 °C 55 % 85 % 1019,6 hPa 0,0 l/m² 8,0 km/h (2 Bft) N-NO 22 ° 0 min 0 W/m² -3,7 °C -3,2 °C 16,1 km/h (3 Bft)
07.01.2024 06:52 21,4 °C -1,6 °C 55 % 85 % 1019,6 hPa 0,0 l/m² 16,1 km/h (3 Bft) N-NO 22 ° 0 min 0 W/m² -3,8 °C -9,6 °C 22,5 km/h (4 Bft)
07.01.2024 06:53 21,4 °C -1,6 °C 55 % 85 % 1019,7 hPa 0,0 l/m² 9,7 km/h (2 Bft) N-NO 22 ° 0 min 0 W/m² -3,8 °C -5,0 °C 16,1 km/h (3 Bft)
07.01.2024 06:54 21,4 °C -1,6 °C 55 % 85 % 1019,7 hPa 0,0 l/m² 11,3 km/h (2 Bft) N-NO 22 ° 0 min 0 W/m² -3,8 °C -6,3 °C 20,9 km/h (4 Bft)
07.01.2024 06:55 21,4 °C -1,6 °C 55 % 85 % 1019,6 hPa 0,0 l/m² 11,3 km/h (2 Bft) NO 45 ° 0 min 0 W/m² -3,8 °C -6,3 °C 20,9 km/h (4 Bft)
07.01.2024 06:56 21,4 °C -1,6 °C 55 % 85 % 1019,6 hPa 0,0 l/m² 11,3 km/h (2 Bft) N-NO 22 ° 0 min 0 W/m² -3,8 °C -6,3 °C 19,3 km/h (3 Bft)
07.01.2024 06:57 21,4 °C -1,6 °C 55 % 84 % 1019,7 hPa 0,0 l/m² 14,5 km/h (3 Bft) N-NO 22 ° 0 min 0 W/m² -3,9 °C -8,6 °C 22,5 km/h (4 Bft)
07.01.2024 06:58 21,4 °C -1,6 °C 55 % 84 % 1019,7 hPa 0,0 l/m² 9,7 km/h (2 Bft) N-NO 22 ° 0 min 0 W/m² -3,9 °C -5,0 °C 14,5 km/h (3 Bft)
07.01.2024 06:59 21,4 °C -1,6 °C 55 % 84 % 1019,7 hPa 0,0 l/m² 11,3 km/h (2 Bft) N-NO 22 ° 0 min 0 W/m² -3,9 °C -6,3 °C 16,1 km/h (3 Bft)
07.01.2024 07:00 21,4 °C -1,6 °C 55 % 84 % 1019,7 hPa 0,0 l/m² 6,4 km/h (2 Bft) N-NO 22 ° 0 min 0 W/m² -3,9 °C -1,6 °C 17,7 km/h (3 Bft)
07.01.2024 07:01 21,4 °C -1,6 °C 55 % 84 % 1019,7 hPa 0,0 l/m² 8,0 km/h (2 Bft) NO 45 ° 0 min 0 W/m² -3,9 °C -3,3 °C 17,7 km/h (3 Bft)
07.01.2024 07:02 21,4 °C -1,6 °C 55 % 84 % 1019,7 hPa 0,0 l/m² 8,0 km/h (2 Bft) N-NO 22 ° 0 min 0 W/m² -3,9 °C -3,3 °C 14,5 km/h (3 Bft)
07.01.2024 07:03 21,4 °C -1,6 °C 56 % 84 % 1019,8 hPa 0,0 l/m² 8,0 km/h (2 Bft) N-NO 22 ° 0 min 0 W/m² -3,9 °C -3,3 °C 19,3 km/h (3 Bft)
07.01.2024 07:04 21,4 °C -1,6 °C 55 % 84 % 1019,7 hPa 0,0 l/m² 11,3 km/h (2 Bft) NO 45 ° 0 min 0 W/m² -3,9 °C -6,3 °C 19,3 km/h (3 Bft)
07.01.2024 07:09 21,4 °C -1,6 °C 55 % 84 % 1019,8 hPa 0,0 l/m² 5,1 km/h (1 Bft) N-NO 15 ° 0 min 0 W/m² -3,9 °C -1,6 °C 11,3 km/h (2 Bft)
07.01.2024 07:11 21,4 °C -1,7 °C 55 % 84 % 1019,8 hPa 0,0 l/m² 6,8 km/h (2 Bft) NO 44 ° 0 min 0 W/m² -4,0 °C -2,1 °C 12,9 km/h (3 Bft)
07.01.2024 07:12 21,4 °C -1,6 °C 55 % 84 % 1019,8 hPa 0,0 l/m² 7,2 km/h (2 Bft) NO 46 ° 0 min 0 W/m² -3,9 °C -2,5 °C 11,3 km/h (2 Bft)
07.01.2024 07:14 21,4 °C -1,7 °C 55 % 83 % 1019,9 hPa 0,0 l/m² 9,9 km/h (2 Bft) NO 48 ° 0 min 0 W/m² -4,2 °C -5,2 °C 17,7 km/h (3 Bft)
07.01.2024 07:16 21,4 °C -1,7 °C 55 % 83 % 1019,9 hPa 0,0 l/m² 7,8 km/h (2 Bft) N-NW 333 ° 0 min 0 W/m² -4,2 °C -3,2 °C 14,5 km/h (3 Bft)
07.01.2024 07:18 21,4 °C -1,7 °C 55 % 83 % 1020,0 hPa 0,0 l/m² 6,4 km/h (2 Bft) N-NO 19 ° 0 min 0 W/m² -4,2 °C -1,7 °C 8,0 km/h (2 Bft)
07.01.2024 07:20 21,5 °C -1,7 °C 55 % 83 % 1020,0 hPa 0,0 l/m² 9,8 km/h (2 Bft) N-NO 20 ° 0 min 0 W/m² -4,2 °C -5,2 °C 22,5 km/h (4 Bft)
07.01.2024 07:21 21,5 °C -1,7 °C 55 % 83 % 1020,0 hPa 0,0 l/m² 7,2 km/h (2 Bft) N-NO 24 ° 0 min 0 W/m² -4,2 °C -2,6 °C 11,3 km/h (2 Bft)
07.01.2024 07:22 21,5 °C -1,7 °C 55 % 83 % 1020,0 hPa 0,0 l/m² 12,2 km/h (2 Bft) N-NO 32 ° 0 min 0 W/m² -4,2 °C -7,1 °C 16,1 km/h (3 Bft)
07.01.2024 07:23 21,5 °C -1,7 °C 55 % 83 % 1020,0 hPa 0,0 l/m² 10,7 km/h (2 Bft) N-NO 30 ° 0 min 0 W/m² -4,2 °C -5,9 °C 19,3 km/h (3 Bft)
07.01.2024 07:24 21,5 °C -1,7 °C 55 % 83 % 1020,1 hPa 0,0 l/m² 6,8 km/h (2 Bft) N-NO 29 ° 0 min 0 W/m² -4,2 °C -2,1 °C 17,7 km/h (3 Bft)
07.01.2024 07:26 21,6 °C -1,7 °C 55 % 83 % 1020,1 hPa 0,0 l/m² 9,2 km/h (2 Bft) N 9 ° 0 min 0 W/m² -4,2 °C -4,6 °C 19,3 km/h (3 Bft)
07.01.2024 07:28 21,5 °C -1,7 °C 55 % 83 % 1020,1 hPa 0,0 l/m² 6,7 km/h (2 Bft) NW 322 ° 0 min 0 W/m² -4,2 °C -2,0 °C 14,5 km/h (3 Bft)
07.01.2024 07:30 21,5 °C -1,7 °C 55 % 83 % 1020,2 hPa 0,0 l/m² 10,4 km/h (2 Bft) N-NO 33 ° 0 min 0 W/m² -4,2 °C -5,7 °C 19,3 km/h (3 Bft)
07.01.2024 07:31 21,6 °C -1,7 °C 55 % 83 % 1020,2 hPa 0,0 l/m² 7,7 km/h (2 Bft) N 360 ° 0 min 0 W/m² -4,2 °C -3,1 °C 11,3 km/h (2 Bft)
07.01.2024 07:32 21,6 °C -1,7 °C 54 % 83 % 1020,2 hPa 0,0 l/m² 9,8 km/h (2 Bft) N 11 ° 0 min 0 W/m² -4,2 °C -5,2 °C 14,5 km/h (3 Bft)
07.01.2024 07:33 21,5 °C -1,7 °C 54 % 83 % 1020,2 hPa 0,0 l/m² 9,9 km/h (2 Bft) N 9 ° 0 min 0 W/m² -4,2 °C -5,2 °C 17,7 km/h (3 Bft)
07.01.2024 07:34 21,6 °C -1,7 °C 55 % 83 % 1020,3 hPa 0,0 l/m² 7,9 km/h (2 Bft) N-NO 24 ° 0 min 0 W/m² -4,2 °C -3,3 °C 16,1 km/h (3 Bft)
07.01.2024 07:36 21,6 °C -1,7 °C 54 % 83 % 1020,3 hPa 0,0 l/m² 7,6 km/h (2 Bft) NO 45 ° 0 min 0 W/m² -4,2 °C -3,0 °C 17,7 km/h (3 Bft)
07.01.2024 07:38 21,6 °C -1,8 °C 54 % 83 % 1020,4 hPa 0,0 l/m² 13,3 km/h (3 Bft) N-NO 20 ° 0 min 0 W/m² -4,3 °C -8,0 °C 22,5 km/h (4 Bft)
07.01.2024 07:40 21,6 °C -1,8 °C 54 % 82 % 1020,4 hPa 0,0 l/m² 6,7 km/h (2 Bft) NO 45 ° 0 min 0 W/m² -4,5 °C -2,1 °C 14,5 km/h (3 Bft)
07.01.2024 07:41 21,6 °C -1,8 °C 54 % 82 % 1020,4 hPa 0,0 l/m² 9,1 km/h (2 Bft) NO 36 ° 0 min 0 W/m² -4,5 °C -4,6 °C 17,7 km/h (3 Bft)
07.01.2024 07:42 21,6 °C -1,8 °C 54 % 82 % 1020,3 hPa 0,0 l/m² 11,6 km/h (2 Bft) N 5 ° 0 min 0 W/m² -4,5 °C -6,8 °C 17,7 km/h (3 Bft)
07.01.2024 07:43 21,5 °C -1,8 °C 54 % 82 % 1020,4 hPa 0,0 l/m² 9,8 km/h (2 Bft) N-NO 32 ° 0 min 0 W/m² -4,5 °C -5,3 °C 16,1 km/h (3 Bft)
07.01.2024 07:44 21,6 °C -1,8 °C 54 % 82 % 1020,3 hPa 0,0 l/m² 12,4 km/h (2 Bft) N-NO 14 ° 0 min 0 W/m² -4,5 °C -7,4 °C 17,7 km/h (3 Bft)
07.01.2024 07:46 21,6 °C -1,8 °C 54 % 82 % 1020,4 hPa 0,0 l/m² 6,6 km/h (2 Bft) N-NO 26 ° 0 min 0 W/m² -4,5 °C -2,0 °C 16,1 km/h (3 Bft)
07.01.2024 07:48 21,6 °C -1,8 °C 54 % 82 % 1020,4 hPa 0,0 l/m² 6,9 km/h (2 Bft) N-NO 24 ° 0 min 0 W/m² -4,5 °C -2,3 °C 14,5 km/h (3 Bft)
07.01.2024 07:50 21,6 °C -1,8 °C 54 % 82 % 1020,5 hPa 0,0 l/m² 10,8 km/h (2 Bft) N-NO 28 ° 0 min 0 W/m² -4,5 °C -6,1 °C 19,3 km/h (3 Bft)
07.01.2024 07:51 21,6 °C -1,8 °C 54 % 82 % 1020,5 hPa 0,0 l/m² 15,9 km/h (3 Bft) N-NO 12 ° 0 min 0 W/m² -4,5 °C -9,7 °C 24,1 km/h (4 Bft)
07.01.2024 07:52 21,6 °C -1,8 °C 54 % 82 % 1020,5 hPa 0,0 l/m² 12,7 km/h (3 Bft) NO 36 ° 0 min 0 W/m² -4,5 °C -7,6 °C 19,3 km/h (3 Bft)
07.01.2024 07:53 21,6 °C -1,8 °C 54 % 82 % 1020,5 hPa 0,0 l/m² 12,3 km/h (2 Bft) N-NO 26 ° 0 min 0 W/m² -4,5 °C -7,3 °C 20,9 km/h (4 Bft)
07.01.2024 07:54 21,6 °C -1,8 °C 54 % 82 % 1020,6 hPa 0,0 l/m² 8,6 km/h (2 Bft) N-NO 12 ° 0 min 0 W/m² -4,5 °C -4,1 °C 16,1 km/h (3 Bft)
07.01.2024 07:56 21,6 °C -1,8 °C 54 % 82 % 1020,6 hPa 0,0 l/m² 14,7 km/h (3 Bft) N 355 ° 0 min 0 W/m² -4,5 °C -9,0 °C 22,5 km/h (4 Bft)
07.01.2024 07:58 21,6 °C -1,8 °C 54 % 82 % 1020,6 hPa 0,0 l/m² 9,3 km/h (2 Bft) N-NO 26 ° 0 min 0 W/m² -4,5 °C -4,8 °C 16,1 km/h (3 Bft)
07.01.2024 08:00 21,6 °C -1,9 °C 54 % 82 % 1020,6 hPa 0,0 l/m² 11,0 km/h (2 Bft) N-NO 15 ° 0 min 0 W/m² -4,6 °C -6,4 °C 16,1 km/h (3 Bft)
07.01.2024 08:01 21,6 °C -1,9 °C 54 % 82 % 1020,6 hPa 0,0 l/m² 12,6 km/h (3 Bft) N-NO 22 ° 0 min 0 W/m² -4,6 °C -7,6 °C 17,7 km/h (3 Bft)
07.01.2024 08:02 21,6 °C -1,9 °C 54 % 82 % 1020,7 hPa 0,0 l/m² 16,1 km/h (3 Bft) N-NO 25 ° 0 min 0 W/m² -4,6 °C -10,0 °C 22,5 km/h (4 Bft)
07.01.2024 08:03 21,6 °C -1,9 °C 54 % 82 % 1020,7 hPa 0,0 l/m² 8,7 km/h (2 Bft) N 9 ° 0 min 0 W/m² -4,6 °C -4,3 °C 16,1 km/h (3 Bft)
07.01.2024 08:04 21,6 °C -1,9 °C 54 % 82 % 1020,6 hPa 0,0 l/m² 11,4 km/h (2 Bft) N-NO 19 ° 0 min 0 W/m² -4,6 °C -6,7 °C 17,7 km/h (3 Bft)
07.01.2024 08:06 21,6 °C -1,9 °C 54 % 82 % 1020,7 hPa 0,0 l/m² 12,3 km/h (2 Bft) N-NO 24 ° 0 min 0 W/m² -4,6 °C -7,4 °C 17,7 km/h (3 Bft)
07.01.2024 08:08 21,6 °C -1,9 °C 54 % 82 % 1020,7 hPa 0,0 l/m² 12,0 km/h (2 Bft) N-NO 27 ° 0 min 0 W/m² -4,6 °C -7,2 °C 22,5 km/h (4 Bft)
07.01.2024 08:10 21,6 °C -1,9 °C 54 % 82 % 1020,7 hPa 0,0 l/m² 11,6 km/h (2 Bft) N-NW 347 ° 0 min 0 W/m² -4,6 °C -6,9 °C 20,9 km/h (4 Bft)
07.01.2024 08:11 21,6 °C -1,9 °C 54 % 82 % 1020,6 hPa 0,0 l/m² 14,3 km/h (3 Bft) N 355 ° 0 min 0 W/m² -4,6 °C -8,8 °C 20,9 km/h (4 Bft)
07.01.2024 08:12 21,6 °C -1,9 °C 54 % 82 % 1020,7 hPa 0,0 l/m² 6,0 km/h (2 Bft) N-NO 27 ° 0 min 0 W/m² -4,6 °C -1,9 °C 12,9 km/h (3 Bft)
07.01.2024 08:15 21,6 °C -2,0 °C 54 % 82 % 1020,7 hPa 0,0 l/m² 8,6 km/h (2 Bft) N-NW 344 ° 0 min 0 W/m² -4,7 °C -4,4 °C 16,1 km/h (3 Bft)
07.01.2024 08:17 21,6 °C -2,0 °C 54 % 82 % 1020,8 hPa 0,0 l/m² 11,4 km/h (2 Bft) N 5 ° 0 min 0 W/m² -4,7 °C -6,8 °C 17,7 km/h (3 Bft)
07.01.2024 08:18 21,6 °C -2,0 °C 54 % 82 % 1020,8 hPa 0,0 l/m² 13,3 km/h (3 Bft) N 5 ° 0 min 0 W/m² -4,7 °C -8,3 °C 24,1 km/h (4 Bft)
07.01.2024 08:20 21,6 °C -2,0 °C 54 % 82 % 1020,9 hPa 0,0 l/m² 15,2 km/h (3 Bft) N-NW 347 ° 0 min 0 W/m² -4,7 °C -9,5 °C 22,5 km/h (4 Bft)
07.01.2024 08:21 21,6 °C -2,0 °C 54 % 82 % 1020,9 hPa 0,0 l/m² 9,6 km/h (2 Bft) NO 35 ° 0 min 0 W/m² -4,7 °C -5,3 °C 14,5 km/h (3 Bft)
07.01.2024 08:22 21,6 °C -2,1 °C 54 % 82 % 1020,9 hPa 0,0 l/m² 11,0 km/h (2 Bft) N 355 ° 0 min 0 W/m² -4,7 °C -6,6 °C 16,1 km/h (3 Bft)
07.01.2024 08:23 21,6 °C -2,1 °C 54 % 82 % 1020,8 hPa 0,0 l/m² 12,6 km/h (3 Bft) N 5 ° 0 min 0 W/m² -4,7 °C -7,9 °C 19,3 km/h (3 Bft)
07.01.2024 08:24 21,6 °C -2,0 °C 54 % 82 % 1020,8 hPa 0,0 l/m² 12,7 km/h (3 Bft) N-NO 16 ° 0 min 0 W/m² -4,7 °C -7,8 °C 19,3 km/h (3 Bft)
07.01.2024 08:26 21,6 °C -2,1 °C 54 % 82 % 1020,9 hPa 0,0 l/m² 9,2 km/h (2 Bft) N 355 ° 0 min 0 W/m² -4,7 °C -5,0 °C 16,1 km/h (3 Bft)
07.01.2024 08:28 21,6 °C -2,1 °C 54 % 82 % 1020,8 hPa 0,0 l/m² 13,5 km/h (3 Bft) N-NO 25 ° 0 min 0 W/m² -4,7 °C -8,5 °C 25,7 km/h (4 Bft)
07.01.2024 08:30 21,6 °C -2,1 °C 54 % 82 % 1020,9 hPa 0,0 l/m² 10,5 km/h (2 Bft) N 5 ° 0 min 0 W/m² -4,7 °C -6,2 °C 17,7 km/h (3 Bft)
07.01.2024 08:31 21,6 °C -2,1 °C 54 % 82 % 1021,0 hPa 0,0 l/m² 14,1 km/h (3 Bft) N-NO 28 ° 0 min 0 W/m² -4,7 °C -8,9 °C 20,9 km/h (4 Bft)
07.01.2024 08:32 21,7 °C -2,1 °C 54 % 82 % 1020,9 hPa 0,0 l/m² 13,8 km/h (3 Bft) N-NO 28 ° 0 min 0 W/m² -4,7 °C -8,7 °C 19,3 km/h (3 Bft)
07.01.2024 08:34 21,7 °C -2,2 °C 54 % 82 % 1021,0 hPa 0,0 l/m² 12,3 km/h (2 Bft) N 355 ° 0 min 5 W/m² -4,8 °C -7,8 °C 19,3 km/h (3 Bft)
07.01.2024 08:35 21,7 °C -2,2 °C 54 % 82 % 1020,9 hPa 0,0 l/m² 12,6 km/h (3 Bft) N-NO 30 ° 0 min 5 W/m² -4,8 °C -8,0 °C 17,7 km/h (3 Bft)
07.01.2024 08:37 21,7 °C -2,2 °C 54 % 82 % 1021,1 hPa 0,0 l/m² 10,5 km/h (2 Bft) N-NO 16 ° 0 min 5 W/m² -4,8 °C -6,3 °C 20,9 km/h (4 Bft)
07.01.2024 08:39 21,7 °C -2,2 °C 54 % 82 % 1021,1 hPa 0,0 l/m² 6,6 km/h (2 Bft) N-NO 15 ° 0 min 5 W/m² -4,8 °C -2,4 °C 11,3 km/h (2 Bft)
07.01.2024 08:40 21,7 °C -2,2 °C 54 % 82 % 1021,1 hPa 0,0 l/m² 7,6 km/h (2 Bft) N-NO 26 ° 0 min 7 W/m² -4,8 °C -3,5 °C 14,5 km/h (3 Bft)
07.01.2024 08:42 21,7 °C -2,2 °C 54 % 82 % 1021,2 hPa 0,0 l/m² 10,3 km/h (2 Bft) N-NO 32 ° 0 min 7 W/m² -4,8 °C -6,1 °C 16,1 km/h (3 Bft)
07.01.2024 08:44 21,7 °C -2,3 °C 54 % 82 % 1021,2 hPa 0,0 l/m² 9,4 km/h (2 Bft) N-NO 23 ° 0 min 7 W/m² -4,9 °C -5,4 °C 14,5 km/h (3 Bft)
07.01.2024 08:46 21,7 °C -2,2 °C 54 % 82 % 1021,2 hPa 0,0 l/m² 4,5 km/h (1 Bft) N-NO 23 ° 0 min 9 W/m² -4,8 °C -2,2 °C 8,0 km/h (2 Bft)
07.01.2024 08:48 21,7 °C -2,2 °C 54 % 82 % 1021,3 hPa 0,0 l/m² 7,5 km/h (2 Bft) N-NO 15 ° 0 min 11 W/m² -4,8 °C -3,4 °C 16,1 km/h (3 Bft)
07.01.2024 08:50 21,7 °C -2,3 °C 54 % 82 % 1021,4 hPa 0,0 l/m² 8,1 km/h (2 Bft) NO 34 ° 0 min 11 W/m² -4,9 °C -4,2 °C 17,7 km/h (3 Bft)
07.01.2024 08:51 21,7 °C -2,3 °C 54 % 82 % 1021,4 hPa 0,0 l/m² 8,5 km/h (2 Bft) N-NO 26 ° 0 min 11 W/m² -4,9 °C -4,6 °C 12,9 km/h (3 Bft)
07.01.2024 08:52 21,7 °C -2,3 °C 54 % 82 % 1021,5 hPa 0,0 l/m² 6,8 km/h (2 Bft) N-NO 28 ° 0 min 11 W/m² -4,9 °C -2,7 °C 9,7 km/h (2 Bft)
07.01.2024 08:53 21,7 °C -2,3 °C 54 % 82 % 1021,4 hPa 0,0 l/m² 5,0 km/h (1 Bft) N-NO 25 ° 0 min 11 W/m² -4,9 °C -2,3 °C 8,0 km/h (2 Bft)
07.01.2024 08:54 21,7 °C -2,3 °C 54 % 82 % 1021,4 hPa 0,0 l/m² 6,2 km/h (2 Bft) N-NW 348 ° 0 min 12 W/m² -4,9 °C -2,3 °C 12,9 km/h (3 Bft)
07.01.2024 08:56 21,7 °C -2,3 °C 54 % 82 % 1021,4 hPa 0,0 l/m² 4,1 km/h (1 Bft) NO 38 ° 0 min 14 W/m² -4,9 °C -2,3 °C 9,7 km/h (2 Bft)
07.01.2024 08:58 21,7 °C -2,3 °C 54 % 82 % 1021,4 hPa 0,0 l/m² 5,0 km/h (1 Bft) N 11 ° 0 min 14 W/m² -4,9 °C -2,3 °C 11,3 km/h (2 Bft)
07.01.2024 09:00 21,7 °C -2,3 °C 54 % 82 % 1021,5 hPa 0,0 l/m² 6,5 km/h (2 Bft) O-NO 61 ° 0 min 16 W/m² -4,9 °C -2,4 °C 16,1 km/h (3 Bft)
07.01.2024 09:01 21,7 °C -2,3 °C 54 % 82 % 1021,4 hPa 0,0 l/m² 10,6 km/h (2 Bft) NO 44 ° 0 min 16 W/m² -4,9 °C -6,5 °C 17,7 km/h (3 Bft)
07.01.2024 09:02 21,7 °C -2,3 °C 54 % 82 % 1021,4 hPa 0,0 l/m² 8,7 km/h (2 Bft) N-NO 27 ° 0 min 16 W/m² -4,9 °C -4,8 °C 16,1 km/h (3 Bft)
07.01.2024 09:03 21,8 °C -2,4 °C 54 % 82 % 1021,4 hPa 0,0 l/m² 13,1 km/h (3 Bft) N 355 ° 0 min 16 W/m² -5,0 °C -8,6 °C 24,1 km/h (4 Bft)
07.01.2024 09:04 21,7 °C -2,3 °C 54 % 82 % 1021,5 hPa 0,0 l/m² 14,8 km/h (3 Bft) NO 40 ° 0 min 18 W/m² -4,9 °C -9,6 °C 20,9 km/h (4 Bft)
07.01.2024 09:06 21,7 °C -2,4 °C 55 % 81 % 1021,5 hPa 0,0 l/m² 11,3 km/h (2 Bft) N-NO 28 ° 0 min 19 W/m² -5,2 °C -7,2 °C 19,3 km/h (3 Bft)
07.01.2024 09:08 21,7 °C -2,4 °C 54 % 81 % 1021,5 hPa 0,0 l/m² 11,6 km/h (2 Bft) NO 53 ° 0 min 21 W/m² -5,2 °C -7,5 °C 22,5 km/h (4 Bft)
07.01.2024 09:10 21,7 °C -2,4 °C 55 % 81 % 1021,5 hPa 0,0 l/m² 9,7 km/h (2 Bft) N-NO 32 ° 0 min 23 W/m² -5,2 °C -5,8 °C 17,7 km/h (3 Bft)
07.01.2024 09:11 21,7 °C -2,4 °C 55 % 81 % 1021,5 hPa 0,0 l/m² 13,9 km/h (3 Bft) N-NO 19 ° 0 min 25 W/m² -5,2 °C -9,2 °C 24,1 km/h (4 Bft)
07.01.2024 09:12 21,7 °C -2,4 °C 55 % 81 % 1021,5 hPa 0,0 l/m² 9,1 km/h (2 Bft) N 360 ° 0 min 25 W/m² -5,2 °C -5,3 °C 19,3 km/h (3 Bft)
07.01.2024 09:14 21,7 °C -2,4 °C 55 % 81 % 1021,6 hPa 0,0 l/m² 8,9 km/h (2 Bft) O 81 ° 0 min 26 W/m² -5,2 °C -5,1 °C 14,5 km/h (3 Bft)
07.01.2024 09:15 21,8 °C -2,5 °C 55 % 81 % 1021,6 hPa 0,0 l/m² 13,0 km/h (3 Bft) NO 36 ° 0 min 28 W/m² -5,3 °C -8,6 °C 24,1 km/h (4 Bft)
07.01.2024 09:17 21,8 °C -2,6 °C 55 % 81 % 1021,6 hPa 0,0 l/m² 14,2 km/h (3 Bft) NO 40 ° 0 min 32 W/m² -5,4 °C -9,6 °C 22,5 km/h (4 Bft)
07.01.2024 09:19 21,8 °C -2,5 °C 55 % 81 % 1021,7 hPa 0,0 l/m² 10,2 km/h (2 Bft) N 5 ° 0 min 35 W/m² -5,3 °C -6,4 °C 22,5 km/h (4 Bft)
07.01.2024 09:21 21,8 °C -2,6 °C 55 % 80 % 1021,7 hPa 0,0 l/m² 9,1 km/h (2 Bft) O-NO 67 ° 0 min 37 W/m² -5,6 °C -5,5 °C 17,7 km/h (3 Bft)
07.01.2024 09:22 21,8 °C -2,6 °C 55 % 80 % 1021,7 hPa 0,0 l/m² 3,9 km/h (1 Bft) O-NO 63 ° 0 min 39 W/m² -5,6 °C -2,6 °C 8,0 km/h (2 Bft)
07.01.2024 09:23 21,8 °C -2,6 °C 55 % 80 % 1021,7 hPa 0,0 l/m² 8,0 km/h (2 Bft) N-NO 27 ° 0 min 40 W/m² -5,6 °C -4,4 °C 16,1 km/h (3 Bft)
07.01.2024 09:26 21,8 °C -2,6 °C 55 % 80 % 1021,7 hPa 0,0 l/m² 11,2 km/h (2 Bft) N-NO 33 ° 0 min 42 W/m² -5,6 °C -7,4 °C 22,5 km/h (4 Bft)
07.01.2024 09:28 21,8 °C -2,6 °C 55 % 80 % 1021,9 hPa 0,0 l/m² 11,2 km/h (2 Bft) O-NO 59 ° 0 min 44 W/m² -5,6 °C -7,4 °C 20,9 km/h (4 Bft)
07.01.2024 09:30 21,8 °C -2,6 °C 55 % 80 % 1021,9 hPa 0,0 l/m² 12,3 km/h (2 Bft) N-NO 32 ° 0 min 44 W/m² -5,6 °C -8,2 °C 24,1 km/h (4 Bft)
07.01.2024 09:31 21,8 °C -2,6 °C 55 % 80 % 1021,9 hPa 0,0 l/m² 11,6 km/h (2 Bft) N-NO 18 ° 0 min 44 W/m² -5,6 °C -7,7 °C 20,9 km/h (4 Bft)
07.01.2024 09:32 21,8 °C -2,6 °C 55 % 80 % 1021,9 hPa 0,0 l/m² 10,3 km/h (2 Bft) NO 51 ° 0 min 44 W/m² -5,6 °C -6,6 °C 20,9 km/h (4 Bft)
07.01.2024 09:33 21,8 °C -2,6 °C 55 % 80 % 1021,9 hPa 0,0 l/m² 6,9 km/h (2 Bft) NO 41 ° 0 min 44 W/m² -5,6 °C -3,2 °C 11,3 km/h (2 Bft)
07.01.2024 09:34 21,8 °C -2,6 °C 55 % 80 % 1021,9 hPa 0,0 l/m² 7,7 km/h (2 Bft) NO 55 ° 0 min 46 W/m² -5,6 °C -4,1 °C 12,9 km/h (3 Bft)
07.01.2024 09:36 21,8 °C -2,6 °C 55 % 80 % 1021,9 hPa 0,0 l/m² 12,5 km/h (2 Bft) O-NO 69 ° 0 min 47 W/m² -5,6 °C -8,4 °C 20,9 km/h (4 Bft)
07.01.2024 09:38 21,8 °C -2,6 °C 55 % 80 % 1022,0 hPa 0,0 l/m² 8,7 km/h (2 Bft) N-NO 33 ° 0 min 49 W/m² -5,6 °C -5,1 °C 20,9 km/h (4 Bft)
07.01.2024 09:40 21,8 °C -2,6 °C 55 % 80 % 1022,1 hPa 0,0 l/m² 13,8 km/h (3 Bft) N-NO 30 ° 0 min 49 W/m² -5,6 °C -9,3 °C 22,5 km/h (4 Bft)
07.01.2024 09:41 21,8 °C -2,6 °C 55 % 80 % 1022,1 hPa 0,0 l/m² 12,0 km/h (2 Bft) NO 41 ° 0 min 49 W/m² -5,6 °C -8,0 °C 19,3 km/h (3 Bft)
07.01.2024 09:42 21,8 °C -2,6 °C 54 % 80 % 1022,1 hPa 0,0 l/m² 11,9 km/h (2 Bft) NO 43 ° 0 min 49 W/m² -5,6 °C -7,9 °C 19,3 km/h (3 Bft)
07.01.2024 09:43 21,8 °C -2,6 °C 54 % 80 % 1022,1 hPa 0,0 l/m² 17,7 km/h (3 Bft) N-NO 22 ° 0 min 49 W/m² -5,6 °C -11,8 °C 25,7 km/h (4 Bft)
07.01.2024 09:44 21,8 °C -2,6 °C 54 % 80 % 1022,1 hPa 0,0 l/m² 12,9 km/h (3 Bft) N-NO 22 ° 0 min 49 W/m² -5,6 °C -8,7 °C 25,7 km/h (4 Bft)
07.01.2024 09:45 21,8 °C -2,7 °C 54 % 80 % 1022,1 hPa 0,0 l/m² 12,9 km/h (3 Bft) N-NO 22 ° 0 min 49 W/m² -5,7 °C -8,8 °C 20,9 km/h (4 Bft)
07.01.2024 09:46 21,8 °C -2,7 °C 54 % 80 % 1022,0 hPa 0,0 l/m² 9,7 km/h (2 Bft) N-NO 22 ° 0 min 47 W/m² -5,7 °C -6,2 °C 16,1 km/h (3 Bft)
07.01.2024 09:47 21,8 °C -2,7 °C 54 % 80 % 1022,1 hPa 0,0 l/m² 11,3 km/h (2 Bft) N-NO 22 ° 0 min 49 W/m² -5,7 °C -7,5 °C 20,9 km/h (4 Bft)
07.01.2024 09:48 21,8 °C -2,7 °C 54 % 80 % 1022,2 hPa 0,0 l/m² 6,4 km/h (2 Bft) N-NO 22 ° 0 min 49 W/m² -5,7 °C -2,7 °C 12,9 km/h (3 Bft)
07.01.2024 09:49 21,8 °C -2,7 °C 54 % 80 % 1022,1 hPa 0,0 l/m² 11,3 km/h (2 Bft) N-NO 22 ° 0 min 51 W/m² -5,7 °C -7,5 °C 17,7 km/h (3 Bft)
07.01.2024 09:50 21,8 °C -2,7 °C 54 % 80 % 1022,1 hPa 0,0 l/m² 11,3 km/h (2 Bft) NO 45 ° 1 min 53 W/m² -5,7 °C -7,5 °C 17,7 km/h (3 Bft)
07.01.2024 09:51 21,8 °C -2,7 °C 54 % 80 % 1022,1 hPa 0,0 l/m² 14,5 km/h (3 Bft) N-NO 22 ° 1 min 53 W/m² -5,7 °C -9,9 °C 22,5 km/h (4 Bft)
07.01.2024 09:52 21,8 °C -2,7 °C 54 % 80 % 1022,1 hPa 0,0 l/m² 12,9 km/h (3 Bft) NO 45 ° 1 min 54 W/m² -5,7 °C -8,8 °C 22,5 km/h (4 Bft)
07.01.2024 09:53 21,8 °C -2,6 °C 54 % 80 % 1022,1 hPa 0,0 l/m² 8,0 km/h (2 Bft) N-NO 22 ° 1 min 56 W/m² -5,6 °C -4,4 °C 11,3 km/h (2 Bft)
07.01.2024 09:54 21,8 °C -2,6 °C 54 % 80 % 1022,1 hPa 0,0 l/m² 9,7 km/h (2 Bft) NO 45 ° 1 min 60 W/m² -5,6 °C -6,0 °C 17,7 km/h (3 Bft)
07.01.2024 09:55 21,8 °C -2,6 °C 54 % 80 % 1022,2 hPa 0,0 l/m² 12,9 km/h (3 Bft) NO 45 ° 1 min 62 W/m² -5,6 °C -8,7 °C 24,1 km/h (4 Bft)
07.01.2024 09:56 21,8 °C -2,6 °C 54 % 80 % 1022,1 hPa 0,0 l/m² 16,1 km/h (3 Bft) N-NO 22 ° 1 min 62 W/m² -5,6 °C -10,8 °C 24,1 km/h (4 Bft)
07.01.2024 09:57 21,8 °C -2,7 °C 54 % 80 % 1022,1 hPa 0,0 l/m² 17,7 km/h (3 Bft) N-NO 22 ° 1 min 63 W/m² -5,7 °C -11,9 °C 27,4 km/h (5 Bft)
07.01.2024 09:58 21,7 °C -2,7 °C 54 % 80 % 1022,2 hPa 0,0 l/m² 12,9 km/h (3 Bft) NO 45 ° 1 min 63 W/m² -5,7 °C -8,8 °C 27,4 km/h (5 Bft)
07.01.2024 09:59 21,7 °C -2,6 °C 53 % 80 % 1022,2 hPa 0,0 l/m² 20,9 km/h (4 Bft) NO 45 ° 1 min 65 W/m² -5,6 °C -13,4 °C 32,2 km/h (5 Bft)
07.01.2024 10:00 21,7 °C -2,7 °C 53 % 79 % 1022,2 hPa 0,0 l/m² 17,7 km/h (3 Bft) N-NO 22 ° 1 min 69 W/m² -5,8 °C -11,9 °C 29,0 km/h (5 Bft)
07.01.2024 10:01 21,7 °C -2,7 °C 53 % 79 % 1022,2 hPa 0,0 l/m² 17,7 km/h (3 Bft) NO 45 ° 1 min 70 W/m² -5,8 °C -11,9 °C 32,2 km/h (5 Bft)
07.01.2024 10:02 21,7 °C -2,7 °C 53 % 79 % 1022,2 hPa 0,0 l/m² 17,7 km/h (3 Bft) N-NO 22 ° 1 min 72 W/m² -5,8 °C -11,9 °C 24,1 km/h (4 Bft)
07.01.2024 10:03 21,7 °C -2,7 °C 53 % 79 % 1022,2 hPa 0,0 l/m² 12,9 km/h (3 Bft) NO 45 ° 1 min 74 W/m² -5,8 °C -8,8 °C 20,9 km/h (4 Bft)
07.01.2024 10:04 21,7 °C -2,7 °C 53 % 79 % 1022,2 hPa 0,0 l/m² 9,7 km/h (2 Bft) N-NO 22 ° 1 min 74 W/m² -5,8 °C -6,2 °C 19,3 km/h (3 Bft)
07.01.2024 10:05 21,7 °C -2,6 °C 53 % 79 % 1022,3 hPa 0,0 l/m² 9,7 km/h (2 Bft) NO 45 ° 1 min 76 W/m² -5,7 °C -6,0 °C 14,5 km/h (3 Bft)
07.01.2024 10:06 21,7 °C -2,7 °C 53 % 79 % 1022,3 hPa 0,0 l/m² 12,9 km/h (3 Bft) N-NO 22 ° 1 min 79 W/m² -5,8 °C -8,8 °C 22,5 km/h (4 Bft)
07.01.2024 10:07 21,7 °C -2,7 °C 53 % 79 % 1022,2 hPa 0,0 l/m² 12,9 km/h (3 Bft) NO 45 ° 1 min 83 W/m² -5,8 °C -8,8 °C 22,5 km/h (4 Bft)
07.01.2024 10:08 21,7 °C -2,6 °C 53 % 79 % 1022,2 hPa 0,0 l/m² 17,7 km/h (3 Bft) N-NO 22 ° 1 min 86 W/m² -5,7 °C -11,8 °C 25,7 km/h (4 Bft)
07.01.2024 10:09 21,7 °C -2,6 °C 53 % 79 % 1022,2 hPa 0,0 l/m² 14,5 km/h (3 Bft) N-NO 22 ° 1 min 90 W/m² -5,7 °C -9,8 °C 27,4 km/h (5 Bft)
07.01.2024 10:10 21,7 °C -2,7 °C 53 % 79 % 1022,3 hPa 0,0 l/m² 16,1 km/h (3 Bft) NO 45 ° 1 min 91 W/m² -5,8 °C -10,9 °C 32,2 km/h (5 Bft)
07.01.2024 10:11 21,7 °C -2,7 °C 53 % 79 % 1022,3 hPa 0,0 l/m² 12,9 km/h (3 Bft) N-NO 22 ° 1 min 93 W/m² -5,8 °C -8,8 °C 20,9 km/h (4 Bft)
07.01.2024 10:12 21,6 °C -2,6 °C 53 % 79 % 1022,2 hPa 0,0 l/m² 8,0 km/h (2 Bft) N 360 ° 1 min 97 W/m² -5,7 °C -4,4 °C 11,3 km/h (2 Bft)
07.01.2024 10:13 21,6 °C -2,6 °C 53 % 79 % 1022,3 hPa 0,0 l/m² 12,9 km/h (3 Bft) N-NO 22 ° 1 min 97 W/m² -5,7 °C -8,7 °C 24,1 km/h (4 Bft)
07.01.2024 10:14 21,6 °C -2,6 °C 53 % 79 % 1022,5 hPa 0,0 l/m² 11,3 km/h (2 Bft) N-NO 22 ° 1 min 98 W/m² -5,7 °C -7,4 °C 20,9 km/h (4 Bft)
07.01.2024 10:15 21,7 °C -2,6 °C 53 % 79 % 1022,4 hPa 0,0 l/m² 17,7 km/h (3 Bft) NO 45 ° 1 min 98 W/m² -5,7 °C -11,8 °C 22,5 km/h (4 Bft)
07.01.2024 10:16 21,6 °C -2,6 °C 54 % 79 % 1022,4 hPa 0,0 l/m² 11,3 km/h (2 Bft) NO 45 ° 1 min 98 W/m² -5,7 °C -7,4 °C 17,7 km/h (3 Bft)
07.01.2024 10:17 21,7 °C -2,6 °C 54 % 79 % 1022,3 hPa 0,0 l/m² 9,7 km/h (2 Bft) NO 45 ° 1 min 100 W/m² -5,7 °C -6,0 °C 20,9 km/h (4 Bft)
07.01.2024 10:18 21,7 °C -2,6 °C 54 % 79 % 1022,3 hPa 0,0 l/m² 9,7 km/h (2 Bft) NO 45 ° 1 min 102 W/m² -5,7 °C -6,0 °C 17,7 km/h (3 Bft)
07.01.2024 10:19 21,7 °C -2,6 °C 54 % 79 % 1022,5 hPa 0,0 l/m² 14,5 km/h (3 Bft) N-NO 22 ° 1 min 105 W/m² -5,7 °C -9,8 °C 22,5 km/h (4 Bft)
07.01.2024 10:20 21,7 °C -2,6 °C 54 % 79 % 1022,5 hPa 0,0 l/m² 14,5 km/h (3 Bft) N-NO 22 ° 1 min 107 W/m² -5,7 °C -9,8 °C 22,5 km/h (4 Bft)
07.01.2024 10:27 21,7 °C -2,5 °C 52 % 79 % 1022,6 hPa 0,0 l/m² 10,0 km/h (2 Bft) N-NO 24 ° 7 min 118 W/m² -5,6 °C -6,2 °C 24,1 km/h (4 Bft)
07.01.2024 10:28 21,7 °C -2,4 °C 52 % 79 % 1022,7 hPa 0,0 l/m² 10,3 km/h (2 Bft) N-NO 29 ° 1 min 118 W/m² -5,5 °C -6,4 °C 17,7 km/h (3 Bft)
07.01.2024 10:29 21,7 °C -2,4 °C 50 % 79 % 1022,7 hPa 0,0 l/m² 15,6 km/h (3 Bft) N-NW 346 ° 1 min 118 W/m² -5,5 °C -10,3 °C 25,7 km/h (4 Bft)
07.01.2024 10:31 21,6 °C -2,4 °C 50 % 79 % 1022,6 hPa 0,0 l/m² 11,0 km/h (2 Bft) N-NO 26 ° 2 min 118 W/m² -5,5 °C -7,0 °C 20,9 km/h (4 Bft)
07.01.2024 10:32 21,6 °C -2,4 °C 36 % 79 % 1022,7 hPa 0,0 l/m² 10,5 km/h (2 Bft) N-NO 15 ° 1 min 120 W/m² -5,5 °C -6,5 °C 19,3 km/h (3 Bft)
07.01.2024 10:34 21,3 °C -2,4 °C 35 % 79 % 1022,6 hPa 0,0 l/m² 9,2 km/h (2 Bft) N-NO 28 ° 2 min 128 W/m² -5,5 °C -5,4 °C 20,9 km/h (4 Bft)
07.01.2024 10:36 21,1 °C -2,3 °C 36 % 79 % 1022,7 hPa 0,0 l/m² 10,5 km/h (2 Bft) NO 37 ° 2 min 137 W/m² -5,4 °C -6,4 °C 20,9 km/h (4 Bft)
07.01.2024 10:38 21,0 °C -2,3 °C 38 % 79 % 1022,6 hPa 0,0 l/m² 13,3 km/h (3 Bft) NO 38 ° 2 min 141 W/m² -5,4 °C -8,6 °C 24,1 km/h (4 Bft)
07.01.2024 10:40 20,9 °C -2,4 °C 39 % 79 % 1022,5 hPa 0,0 l/m² 13,4 km/h (3 Bft) N-NO 28 ° 2 min 125 W/m² -5,5 °C -8,8 °C 20,9 km/h (4 Bft)
07.01.2024 10:41 20,9 °C -2,3 °C 40 % 78 % 1022,5 hPa 0,0 l/m² 11,0 km/h (2 Bft) N 9 ° 1 min 128 W/m² -5,6 °C -6,8 °C 24,1 km/h (4 Bft)
07.01.2024 10:42 20,9 °C -2,3 °C 40 % 78 % 1022,5 hPa 0,0 l/m² 20,7 km/h (4 Bft) N-NW 333 ° 1 min 128 W/m² -5,6 °C -12,9 °C 30,6 km/h (5 Bft)
07.01.2024 10:43 20,9 °C -2,3 °C 39 % 78 % 1022,6 hPa 0,0 l/m² 16,2 km/h (3 Bft) NO 47 ° 1 min 125 W/m² -5,6 °C -10,5 °C 22,5 km/h (4 Bft)
07.01.2024 10:44 20,9 °C -2,3 °C 39 % 78 % 1022,5 hPa 0,0 l/m² 13,7 km/h (3 Bft) N-NW 348 ° 1 min 123 W/m² -5,6 °C -8,9 °C 22,5 km/h (4 Bft)
07.01.2024 10:46 20,9 °C -2,3 °C 39 % 78 % 1022,5 hPa 0,0 l/m² 11,6 km/h (2 Bft) N 5 ° 2 min 123 W/m² -5,6 °C -7,3 °C 22,5 km/h (4 Bft)
07.01.2024 10:48 20,9 °C -2,3 °C 39 % 78 % 1022,5 hPa 0,0 l/m² 5,5 km/h (2 Bft) N-NO 31 ° 2 min 127 W/m² -5,6 °C -2,3 °C 16,1 km/h (3 Bft)
07.01.2024 10:50 20,9 °C -2,3 °C 40 % 79 % 1022,6 hPa 0,0 l/m² 5,5 km/h (2 Bft) N 11 ° 2 min 130 W/m² -5,4 °C -2,3 °C 8,0 km/h (2 Bft)
07.01.2024 10:51 20,9 °C -2,3 °C 40 % 78 % 1022,5 hPa 0,0 l/m² 17,9 km/h (3 Bft) NO 44 ° 1 min 148 W/m² -5,6 °C -11,5 °C 27,4 km/h (5 Bft)
07.01.2024 10:52 20,9 °C -2,3 °C 41 % 78 % 1022,5 hPa 0,0 l/m² 15,8 km/h (3 Bft) N-NO 24 ° 1 min 121 W/m² -5,6 °C -10,3 °C 27,4 km/h (5 Bft)
07.01.2024 10:53 20,9 °C -2,3 °C 41 % 78 % 1022,5 hPa 0,0 l/m² 17,0 km/h (3 Bft) N-NO 15 ° 1 min 120 W/m² -5,6 °C -11,0 °C 27,4 km/h (5 Bft)
07.01.2024 10:54 21,0 °C -2,3 °C 41 % 78 % 1022,6 hPa 0,0 l/m² 14,8 km/h (3 Bft) NO 51 ° 1 min 120 W/m² -5,6 °C -9,6 °C 22,5 km/h (4 Bft)
07.01.2024 10:56 21,0 °C -2,3 °C 42 % 78 % 1022,5 hPa 0,0 l/m² 14,9 km/h (3 Bft) NO 40 ° 2 min 114 W/m² -5,6 °C -9,7 °C 27,4 km/h (5 Bft)
07.01.2024 10:58 21,1 °C -2,3 °C 42 % 77 % 1022,5 hPa 0,0 l/m² 13,4 km/h (3 Bft) NO 43 ° 2 min 114 W/m² -5,8 °C -8,7 °C 25,7 km/h (4 Bft)
07.01.2024 11:00 21,1 °C -2,3 °C 43 % 77 % 1022,6 hPa 0,0 l/m² 14,5 km/h (3 Bft) N-NO 32 ° 2 min 123 W/m² -5,8 °C -9,4 °C 20,9 km/h (4 Bft)
07.01.2024 11:01 21,1 °C -2,3 °C 43 % 78 % 1022,5 hPa 0,0 l/m² 12,3 km/h (2 Bft) W-NW 290 ° 1 min 121 W/m² -5,6 °C -7,9 °C 19,3 km/h (3 Bft)
07.01.2024 11:02 21,1 °C -2,3 °C 43 % 78 % 1022,5 hPa 0,0 l/m² 15,4 km/h (3 Bft) NO 39 ° 1 min 125 W/m² -5,6 °C -10,0 °C 20,9 km/h (4 Bft)
07.01.2024 11:04 21,2 °C -2,2 °C 43 % 78 % 1022,6 hPa 0,0 l/m² 12,0 km/h (2 Bft) O-NO 61 ° 2 min 141 W/m² -5,5 °C -7,5 °C 29,0 km/h (5 Bft)
07.01.2024 11:05 21,2 °C -2,2 °C 43 % 78 % 1022,5 hPa 0,0 l/m² 20,2 km/h (4 Bft) N-NO 30 ° 1 min 146 W/m² -5,5 °C -12,6 °C 27,4 km/h (5 Bft)
07.01.2024 11:07 21,2 °C -2,2 °C 43 % 77 % 1022,7 hPa 0,0 l/m² 7,6 km/h (2 Bft) NO 40 ° 2 min 162 W/m² -5,7 °C -3,5 °C 17,7 km/h (3 Bft)
07.01.2024 11:09 21,2 °C -2,0 °C 44 % 78 % 1022,6 hPa 0,0 l/m² 14,3 km/h (3 Bft) O-NO 58 ° 2 min 255 W/m² -5,3 °C -8,9 °C 22,5 km/h (4 Bft)
07.01.2024 11:10 21,2 °C -1,9 °C 44 % 78 % 1022,7 hPa 0,0 l/m² 6,8 km/h (2 Bft) NO 53 ° 1 min 211 W/m² -5,2 °C -2,3 °C 19,3 km/h (3 Bft)
07.01.2024 11:12 21,3 °C -1,8 °C 44 % 78 % 1022,6 hPa 0,0 l/m² 11,9 km/h (2 Bft) NO 40 ° 2 min 258 W/m² -5,1 °C -7,0 °C 25,7 km/h (4 Bft)
07.01.2024 11:14 21,4 °C -1,6 °C 45 % 78 % 1022,7 hPa 0,0 l/m² 9,5 km/h (2 Bft) N-NO 13 ° 2 min 257 W/m² -4,9 °C -4,8 °C 24,1 km/h (4 Bft)
07.01.2024 11:16 21,4 °C -1,5 °C 45 % 77 % 1022,6 hPa 0,0 l/m² 11,9 km/h (2 Bft) NO 46 ° 2 min 230 W/m² -5,0 °C -6,7 °C 22,5 km/h (4 Bft)
07.01.2024 11:18 21,4 °C -1,6 °C 45 % 77 % 1022,7 hPa 0,0 l/m² 13,9 km/h (3 Bft) N-NO 20 ° 2 min 220 W/m² -5,1 °C -8,2 °C 22,5 km/h (4 Bft)
07.01.2024 11:20 21,5 °C -1,6 °C 45 % 77 % 1022,6 hPa 0,0 l/m² 13,2 km/h (3 Bft) N-NO 32 ° 2 min 211 W/m² -5,1 °C -7,7 °C 20,9 km/h (4 Bft)
07.01.2024 11:21 21,5 °C -1,6 °C 45 % 77 % 1022,6 hPa 0,0 l/m² 11,1 km/h (2 Bft) NO 56 ° 1 min 260 W/m² -5,1 °C -6,1 °C 19,3 km/h (3 Bft)
07.01.2024 11:22 21,6 °C -1,6 °C 45 % 77 % 1022,7 hPa 0,0 l/m² 9,7 km/h (2 Bft) N-NO 16 ° 1 min 255 W/m² -5,1 °C -5,0 °C 19,3 km/h (3 Bft)
07.01.2024 11:23 21,6 °C -1,5 °C 45 % 77 % 1022,6 hPa 0,0 l/m² 16,8 km/h (3 Bft) N-NO 24 ° 1 min 241 W/m² -5,0 °C -9,9 °C 27,4 km/h (5 Bft)
07.01.2024 11:24 21,6 °C -1,4 °C 45 % 76 % 1022,7 hPa 0,0 l/m² 15,7 km/h (3 Bft) NO 48 ° 1 min 267 W/m² -5,1 °C -9,1 °C 20,9 km/h (4 Bft)
07.01.2024 11:26 21,6 °C -1,5 °C 45 % 76 % 1022,6 hPa 0,0 l/m² 12,6 km/h (3 Bft) N 11 ° 2 min 186 W/m² -5,2 °C -7,2 °C 22,5 km/h (4 Bft)
07.01.2024 11:28 21,6 °C -1,6 °C 45 % 76 % 1022,6 hPa 0,0 l/m² 13,0 km/h (3 Bft) N-NO 26 ° 2 min 190 W/m² -5,3 °C -7,6 °C 29,0 km/h (5 Bft)
07.01.2024 11:30 21,6 °C -1,6 °C 45 % 75 % 1022,7 hPa 0,0 l/m² 16,1 km/h (3 Bft) O-NO 74 ° 2 min 171 W/m² -5,4 °C -9,6 °C 24,1 km/h (4 Bft)
07.01.2024 11:31 21,7 °C -1,7 °C 45 % 76 % 1022,6 hPa 0,0 l/m² 20,1 km/h (4 Bft) N-NO 27 ° 1 min 163 W/m² -5,4 °C -11,9 °C 29,0 km/h (5 Bft)
07.01.2024 11:32 21,7 °C -1,7 °C 45 % 75 % 1022,7 hPa 0,0 l/m² 19,6 km/h (3 Bft) N-NO 26 ° 1 min 148 W/m² -5,5 °C -11,6 °C 29,0 km/h (5 Bft)
07.01.2024 11:33 21,7 °C -1,7 °C 45 % 76 % 1022,8 hPa 0,0 l/m² 17,1 km/h (3 Bft) NO 36 ° 1 min 142 W/m² -5,4 °C -10,3 °C 22,5 km/h (4 Bft)
07.01.2024 11:34 21,7 °C -1,7 °C 46 % 76 % 1022,7 hPa 0,0 l/m² 14,6 km/h (3 Bft) N-NO 19 ° 1 min 139 W/m² -5,4 °C -8,8 °C 22,5 km/h (4 Bft)
07.01.2024 11:36 21,7 °C -1,7 °C 46 % 76 % 1022,7 hPa 0,0 l/m² 10,5 km/h (2 Bft) O-NO 76 ° 2 min 139 W/m² -5,4 °C -5,8 °C 19,3 km/h (3 Bft)
07.01.2024 11:38 21,7 °C -1,7 °C 46 % 76 % 1022,7 hPa 0,0 l/m² 7,8 km/h (2 Bft) NO 43 ° 2 min 139 W/m² -5,4 °C -3,2 °C 16,1 km/h (3 Bft)
07.01.2024 11:40 21,7 °C -1,7 °C 46 % 77 % 1022,7 hPa 0,0 l/m² 13,9 km/h (3 Bft) N-NO 13 ° 2 min 127 W/m² -5,2 °C -8,3 °C 27,4 km/h (5 Bft)
07.01.2024 11:41 21,7 °C -1,7 °C 46 % 77 % 1022,7 hPa 0,0 l/m² 21,2 km/h (4 Bft) NO 47 ° 1 min 121 W/m² -5,2 °C -12,4 °C 32,2 km/h (5 Bft)
07.01.2024 11:42 21,7 °C -1,7 °C 46 % 76 % 1022,7 hPa 0,0 l/m² 16,2 km/h (3 Bft) O 81 ° 1 min 114 W/m² -5,4 °C -9,8 °C 24,1 km/h (4 Bft)
07.01.2024 11:45 21,7 °C -1,7 °C 46 % 76 % 1022,7 hPa 0,0 l/m² 15,7 km/h (3 Bft) O-NO 62 ° 3 min 109 W/m² -5,4 °C -9,5 °C 29,0 km/h (5 Bft)
07.01.2024 11:47 21,7 °C -1,7 °C 46 % 76 % 1022,7 hPa 0,0 l/m² 9,7 km/h (2 Bft) N-NO 24 ° 2 min 107 W/m² -5,4 °C -5,1 °C 22,5 km/h (4 Bft)
07.01.2024 11:49 21,7 °C -1,7 °C 46 % 76 % 1022,7 hPa 0,0 l/m² 10,5 km/h (2 Bft) O 79 ° 2 min 107 W/m² -5,4 °C -5,8 °C 17,7 km/h (3 Bft)
07.01.2024 11:50 21,7 °C -1,7 °C 46 % 76 % 1022,7 hPa 0,0 l/m² 16,3 km/h (3 Bft) N-NO 12 ° 1 min 120 W/m² -5,4 °C -9,8 °C 22,5 km/h (4 Bft)
07.01.2024 11:52 21,7 °C -1,7 °C 46 % 76 % 1022,7 hPa 0,0 l/m² 13,4 km/h (3 Bft) O-NO 62 ° 2 min 135 W/m² -5,4 °C -8,0 °C 22,5 km/h (4 Bft)
07.01.2024 11:54 21,7 °C -1,7 °C 47 % 76 % 1022,8 hPa 0,0 l/m² 7,4 km/h (2 Bft) N-NO 21 ° 2 min 149 W/m² -5,4 °C -2,8 °C 16,1 km/h (3 Bft)
07.01.2024 11:56 21,7 °C -1,7 °C 47 % 76 % 1022,8 hPa 0,0 l/m² 12,4 km/h (2 Bft) NO 43 ° 2 min 156 W/m² -5,4 °C -7,3 °C 24,1 km/h (4 Bft)
07.01.2024 11:58 21,7 °C -1,7 °C 46 % 76 % 1022,8 hPa 0,0 l/m² 14,1 km/h (3 Bft) N-NO 23 ° 2 min 188 W/m² -5,4 °C -8,5 °C 22,5 km/h (4 Bft)
07.01.2024 12:00 21,7 °C -1,7 °C 46 % 75 % 1023,1 hPa 0,0 l/m² 16,0 km/h (3 Bft) NO 35 ° 2 min 169 W/m² -5,5 °C -9,7 °C 24,1 km/h (4 Bft)
07.01.2024 12:01 21,7 °C -1,7 °C 46 % 75 % 1022,8 hPa 0,0 l/m² 16,8 km/h (3 Bft) N-NO 22 ° 1 min 241 W/m² -5,5 °C -10,1 °C 29,0 km/h (5 Bft)
07.01.2024 12:02 21,7 °C -1,6 °C 46 % 75 % 1022,8 hPa 0,0 l/m² 17,1 km/h (3 Bft) NO 38 ° 1 min 176 W/m² -5,4 °C -10,2 °C 30,6 km/h (5 Bft)
07.01.2024 12:03 21,7 °C -1,6 °C 46 % 75 % 1022,7 hPa 0,0 l/m² 19,2 km/h (3 Bft) N-NO 28 ° 1 min 167 W/m² -5,4 °C -11,3 °C 27,4 km/h (5 Bft)
07.01.2024 12:04 21,7 °C -1,6 °C 46 % 75 % 1022,8 hPa 0,0 l/m² 17,5 km/h (3 Bft) N 9 ° 1 min 223 W/m² -5,4 °C -10,4 °C 24,1 km/h (4 Bft)
07.01.2024 12:06 21,7 °C -1,6 °C 46 % 75 % 1022,8 hPa 0,0 l/m² 14,0 km/h (3 Bft) N-NO 20 ° 2 min 132 W/m² -5,4 °C -8,3 °C 22,5 km/h (4 Bft)
07.01.2024 12:08 21,7 °C -1,6 °C 46 % 75 % 1022,9 hPa 0,0 l/m² 16,5 km/h (3 Bft) NO 39 ° 2 min 155 W/m² -5,4 °C -9,8 °C 30,6 km/h (5 Bft)
07.01.2024 12:10 21,7 °C -1,6 °C 46 % 75 % 1022,8 hPa 0,0 l/m² 15,6 km/h (3 Bft) N-NO 19 ° 2 min 116 W/m² -5,4 °C -9,3 °C 25,7 km/h (4 Bft)
07.01.2024 12:11 21,7 °C -1,6 °C 46 % 75 % 1022,9 hPa 0,0 l/m² 14,1 km/h (3 Bft) N-NO 28 ° 1 min 130 W/m² -5,4 °C -8,3 °C 20,9 km/h (4 Bft)
07.01.2024 12:12 21,7 °C -1,6 °C 46 % 75 % 1022,9 hPa 0,0 l/m² 15,3 km/h (3 Bft) N-NO 20 ° 1 min 109 W/m² -5,4 °C -9,1 °C 20,9 km/h (4 Bft)
07.01.2024 12:14 21,7 °C -1,7 °C 46 % 75 % 1023,0 hPa 0,0 l/m² 14,8 km/h (3 Bft) NO 38 ° 2 min 139 W/m² -5,5 °C -8,9 °C 29,0 km/h (5 Bft)
07.01.2024 12:16 21,7 °C -1,6 °C 46 % 75 % 1022,9 hPa 0,0 l/m² 17,2 km/h (3 Bft) N-NO 23 ° 2 min 158 W/m² -5,4 °C -10,2 °C 27,4 km/h (5 Bft)
07.01.2024 12:18 21,7 °C -1,6 °C 46 % 74 % 1023,0 hPa 0,0 l/m² 14,7 km/h (3 Bft) N-NO 27 ° 2 min 127 W/m² -5,6 °C -8,7 °C 27,4 km/h (5 Bft)
07.01.2024 12:20 21,7 °C -1,6 °C 46 % 75 % 1023,0 hPa 0,0 l/m² 13,1 km/h (3 Bft) N-NO 26 ° 2 min 142 W/m² -5,4 °C -7,6 °C 22,5 km/h (4 Bft)
07.01.2024 12:22 21,7 °C -1,6 °C 46 % 74 % 1022,9 hPa 0,0 l/m² 15,1 km/h (3 Bft) NO 55 ° 2 min 167 W/m² -5,6 °C -9,0 °C 24,1 km/h (4 Bft)
07.01.2024 12:23 21,7 °C -1,6 °C 46 % 75 % 1022,9 hPa 0,0 l/m² 11,0 km/h (2 Bft) NO 47 ° 1 min 167 W/m² -5,4 °C -6,1 °C 17,7 km/h (3 Bft)
07.01.2024 12:24 21,7 °C -1,6 °C 47 % 75 % 1023,0 hPa 0,0 l/m² 13,9 km/h (3 Bft) O-NO 59 ° 1 min 139 W/m² -5,4 °C -8,2 °C 19,3 km/h (3 Bft)
07.01.2024 12:26 21,7 °C -1,6 °C 47 % 75 % 1023,0 hPa 0,0 l/m² 11,2 km/h (2 Bft) O 86 ° 2 min 153 W/m² -5,4 °C -6,2 °C 24,1 km/h (4 Bft)
07.01.2024 12:28 21,7 °C -1,5 °C 47 % 75 % 1023,1 hPa 0,0 l/m² 10,8 km/h (2 Bft) O 81 ° 2 min 172 W/m² -5,3 °C -5,8 °C 19,3 km/h (3 Bft)
07.01.2024 12:30 21,7 °C -1,4 °C 47 % 75 % 1023,1 hPa 0,0 l/m² 12,7 km/h (3 Bft) NO 42 ° 2 min 123 W/m² -5,2 °C -7,1 °C 17,7 km/h (3 Bft)
07.01.2024 12:32 21,7 °C -1,4 °C 47 % 75 % 1023,0 hPa 0,0 l/m² 12,2 km/h (2 Bft) N 5 ° 2 min 181 W/m² -5,2 °C -6,8 °C 25,7 km/h (4 Bft)
07.01.2024 12:33 21,7 °C -1,4 °C 47 % 75 % 1023,0 hPa 0,0 l/m² 16,7 km/h (3 Bft) O-NO 69 ° 1 min 183 W/m² -5,2 °C -9,7 °C 20,9 km/h (4 Bft)
07.01.2024 12:34 21,7 °C -1,4 °C 47 % 74 % 1022,9 hPa 0,0 l/m² 14,3 km/h (3 Bft) N-NO 21 ° 1 min 174 W/m² -5,4 °C -8,2 °C 17,7 km/h (3 Bft)
07.01.2024 12:36 21,8 °C -1,4 °C 47 % 74 % 1023,0 hPa 0,0 l/m² 14,4 km/h (3 Bft) N-NO 20 ° 2 min 192 W/m² -5,4 °C -8,3 °C 22,5 km/h (4 Bft)
07.01.2024 12:38 21,7 °C -1,4 °C 47 % 74 % 1022,9 hPa 0,0 l/m² 13,2 km/h (3 Bft) N-NO 14 ° 2 min 218 W/m² -5,4 °C -7,5 °C 22,5 km/h (4 Bft)
07.01.2024 12:40 21,8 °C -1,3 °C 47 % 74 % 1023,0 hPa 0,0 l/m² 15,7 km/h (3 Bft) N 360 ° 2 min 239 W/m² -5,3 °C -9,0 °C 25,7 km/h (4 Bft)
07.01.2024 12:42 21,8 °C -1,3 °C 48 % 74 % 1023,0 hPa 0,0 l/m² 12,9 km/h (3 Bft) N-NO 23 ° 2 min 246 W/m² -5,3 °C -7,2 °C 27,4 km/h (5 Bft)
07.01.2024 12:43 21,8 °C -1,2 °C 48 % 74 % 1023,0 hPa 0,0 l/m² 18,9 km/h (3 Bft) NO 40 ° 1 min 250 W/m² -5,2 °C -10,6 °C 25,7 km/h (4 Bft)
07.01.2024 12:45 21,8 °C -1,2 °C 49 % 74 % 1022,9 hPa 0,0 l/m² 14,5 km/h (3 Bft) N-NO 32 ° 2 min 243 W/m² -5,2 °C -8,1 °C 25,7 km/h (4 Bft)
07.01.2024 12:47 21,8 °C -1,2 °C 49 % 73 % 1022,9 hPa 0,0 l/m² 17,3 km/h (3 Bft) NO 43 ° 2 min 163 W/m² -5,4 °C -9,8 °C 25,7 km/h (4 Bft)
07.01.2024 12:49 21,8 °C -1,1 °C 49 % 74 % 1022,9 hPa 0,0 l/m² 12,9 km/h (3 Bft) O-NO 69 ° 2 min 243 W/m² -5,1 °C -6,9 °C 24,1 km/h (4 Bft)
07.01.2024 12:51 21,9 °C -1,1 °C 49 % 73 % 1022,9 hPa 0,0 l/m² 19,8 km/h (3 Bft) NO 41 ° 2 min 160 W/m² -5,3 °C -11,0 °C 30,6 km/h (5 Bft)
07.01.2024 12:52 21,9 °C -1,1 °C 49 % 73 % 1022,9 hPa 0,0 l/m² 15,1 km/h (3 Bft) NO 45 ° 1 min 171 W/m² -5,3 °C -8,4 °C 29,0 km/h (5 Bft)
07.01.2024 12:53 21,9 °C -1,2 °C 49 % 73 % 1022,9 hPa 0,0 l/m² 15,7 km/h (3 Bft) NO 49 ° 1 min 250 W/m² -5,4 °C -8,9 °C 20,9 km/h (4 Bft)
07.01.2024 12:55 21,9 °C -1,1 °C 49 % 73 % 1023,0 hPa 0,0 l/m² 15,8 km/h (3 Bft) O-NO 57 ° 2 min 234 W/m² -5,3 °C -8,8 °C 27,4 km/h (5 Bft)
07.01.2024 12:57 21,9 °C -1,1 °C 49 % 73 % 1023,0 hPa 0,0 l/m² 10,8 km/h (2 Bft) NO 46 ° 2 min 225 W/m² -5,3 °C -5,3 °C 20,9 km/h (4 Bft)
07.01.2024 12:59 21,9 °C -1,1 °C 49 % 73 % 1022,9 hPa 0,0 l/m² 11,1 km/h (2 Bft) N-NO 23 ° 2 min 214 W/m² -5,3 °C -5,6 °C 19,3 km/h (3 Bft)
07.01.2024 13:01 21,9 °C -1,0 °C 50 % 73 % 1022,9 hPa 0,0 l/m² 4,8 km/h (1 Bft) N-NO 30 ° 2 min 230 W/m² -5,2 °C -1,0 °C 9,7 km/h (2 Bft)
07.01.2024 13:02 21,9 °C -0,9 °C 50 % 74 % 1022,9 hPa 0,0 l/m² 8,0 km/h (2 Bft) N-NO 30 ° 1 min 230 W/m² -4,9 °C -2,6 °C 12,9 km/h (3 Bft)
07.01.2024 13:04 21,9 °C -0,8 °C 50 % 74 % 1022,9 hPa 0,0 l/m² 7,8 km/h (2 Bft) N-NO 30 ° 2 min 225 W/m² -4,8 °C -2,3 °C 14,5 km/h (3 Bft)
07.01.2024 13:05 21,9 °C -0,8 °C 50 % 74 % 1022,9 hPa 0,0 l/m² 5,5 km/h (2 Bft) N 355 ° 1 min 221 W/m² -4,8 °C -0,8 °C 14,5 km/h (3 Bft)
07.01.2024 13:06 21,9 °C -0,8 °C 50 % 73 % 1022,9 hPa 0,0 l/m² 5,0 km/h (1 Bft) N-NO 15 ° 1 min 234 W/m² -5,0 °C -0,8 °C 6,4 km/h (2 Bft)
07.01.2024 13:07 21,9 °C -0,8 °C 50 % 74 % 1022,9 hPa 0,0 l/m² 8,2 km/h (2 Bft) N 5 ° 1 min 236 W/m² -4,8 °C -2,7 °C 16,1 km/h (3 Bft)
07.01.2024 13:09 21,9 °C -0,7 °C 50 % 73 % 1022,9 hPa 0,0 l/m² 8,8 km/h (2 Bft) N-NO 32 ° 2 min 239 W/m² -4,9 °C -3,2 °C 16,1 km/h (3 Bft)
07.01.2024 13:11 21,9 °C -0,7 °C 50 % 73 % 1022,8 hPa 0,0 l/m² 6,6 km/h (2 Bft) N 5 ° 2 min 244 W/m² -4,9 °C -0,9 °C 11,3 km/h (2 Bft)
07.01.2024 13:12 21,9 °C -0,7 °C 50 % 73 % 1022,9 hPa 0,0 l/m² 5,8 km/h (2 Bft) NO 42 ° 1 min 237 W/m² -4,9 °C -0,7 °C 6,4 km/h (2 Bft)
07.01.2024 13:13 21,9 °C -0,7 °C 49 % 73 % 1022,9 hPa 0,0 l/m² 7,0 km/h (2 Bft) N-NO 23 ° 1 min 239 W/m² -4,9 °C -1,3 °C 11,3 km/h (2 Bft)
07.01.2024 13:15 21,9 °C -0,7 °C 50 % 73 % 1022,8 hPa 0,0 l/m² 9,7 km/h (2 Bft) N-NO 17 ° 2 min 230 W/m² -4,9 °C -4,0 °C 16,1 km/h (3 Bft)
07.01.2024 13:17 21,9 °C -0,7 °C 50 % 72 % 1022,9 hPa 0,0 l/m² 11,7 km/h (2 Bft) N-NW 344 ° 2 min 241 W/m² -5,1 °C -5,6 °C 20,9 km/h (4 Bft)
07.01.2024 13:19 21,9 °C -0,7 °C 50 % 73 % 1022,9 hPa 0,0 l/m² 11,0 km/h (2 Bft) N-NO 27 ° 2 min 255 W/m² -4,9 °C -5,0 °C 16,1 km/h (3 Bft)
07.01.2024 13:21 21,9 °C -0,6 °C 50 % 74 % 1023,0 hPa 0,0 l/m² 8,5 km/h (2 Bft) N-NW 340 ° 2 min 260 W/m² -4,6 °C -2,8 °C 16,1 km/h (3 Bft)
07.01.2024 13:22 21,9 °C -0,6 °C 50 % 73 % 1022,9 hPa 0,0 l/m² 12,1 km/h (2 Bft) NO 42 ° 1 min 248 W/m² -4,8 °C -5,8 °C 17,7 km/h (3 Bft)
07.01.2024 13:23 21,9 °C -0,6 °C 50 % 73 % 1022,9 hPa 0,0 l/m² 10,1 km/h (2 Bft) N-NO 12 ° 1 min 193 W/m² -4,8 °C -4,2 °C 17,7 km/h (3 Bft)
07.01.2024 13:25 21,9 °C -0,5 °C 50 % 74 % 1023,0 hPa 0,0 l/m² 7,5 km/h (2 Bft) NO 36 ° 2 min 264 W/m² -4,5 °C -1,7 °C 16,1 km/h (3 Bft)
07.01.2024 13:27 22,0 °C -0,5 °C 50 % 73 % 1022,9 hPa 0,0 l/m² 11,1 km/h (2 Bft) N-NW 347 ° 2 min 262 W/m² -4,7 °C -4,9 °C 20,9 km/h (4 Bft)
07.01.2024 13:29 21,9 °C -0,5 °C 50 % 72 % 1022,9 hPa 0,0 l/m² 13,4 km/h (3 Bft) N-NW 331 ° 2 min 262 W/m² -4,9 °C -6,6 °C 25,7 km/h (4 Bft)
07.01.2024 13:31 21,9 °C -0,6 °C 50 % 72 % 1022,9 hPa 0,0 l/m² 13,8 km/h (3 Bft) N-NW 334 ° 2 min 206 W/m² -5,0 °C -6,9 °C 20,9 km/h (4 Bft)
07.01.2024 13:32 21,9 °C -0,6 °C 50 % 73 % 1022,9 hPa 0,0 l/m² 8,0 km/h (2 Bft) N-NW 337 ° 1 min 276 W/m² -4,8 °C -2,3 °C 9,7 km/h (2 Bft)
07.01.2024 13:33 21,9 °C -0,5 °C 50 % 73 % 1022,8 hPa 0,0 l/m² 11,0 km/h (2 Bft) N 5 ° 1 min 267 W/m² -4,7 °C -4,8 °C 20,9 km/h (4 Bft)
07.01.2024 13:34 21,9 °C -0,5 °C 50 % 73 % 1022,9 hPa 0,0 l/m² 10,7 km/h (2 Bft) N 9 ° 1 min 257 W/m² -4,7 °C -4,6 °C 14,5 km/h (3 Bft)
07.01.2024 13:36 21,9 °C -0,4 °C 50 % 73 % 1022,8 hPa 0,0 l/m² 9,8 km/h (2 Bft) N-NO 13 ° 2 min 188 W/m² -4,6 °C -3,7 °C 16,1 km/h (3 Bft)
07.01.2024 13:37 21,9 °C -0,4 °C 50 % 73 % 1022,8 hPa 0,0 l/m² 15,4 km/h (3 Bft) N 9 ° 1 min 230 W/m² -4,6 °C -7,7 °C 25,7 km/h (4 Bft)
07.01.2024 13:39 21,9 °C -0,6 °C 50 % 72 % 1022,9 hPa 0,0 l/m² 14,4 km/h (3 Bft) N 355 ° 2 min 158 W/m² -5,0 °C -7,3 °C 27,4 km/h (5 Bft)
07.01.2024 13:41 21,9 °C -0,6 °C 50 % 73 % 1022,9 hPa 0,0 l/m² 10,3 km/h (2 Bft) N 5 ° 2 min 265 W/m² -4,8 °C -4,4 °C 20,9 km/h (4 Bft)
07.01.2024 13:42 21,9 °C -0,6 °C 50 % 73 % 1022,9 hPa 0,0 l/m² 9,4 km/h (2 Bft) N-NO 17 ° 1 min 229 W/m² -4,8 °C -3,6 °C 12,9 km/h (3 Bft)
07.01.2024 13:43 21,9 °C -0,6 °C 50 % 73 % 1022,8 hPa 0,0 l/m² 8,3 km/h (2 Bft) N-NW 344 ° 1 min 214 W/m² -4,8 °C -2,6 °C 16,1 km/h (3 Bft)
07.01.2024 13:44 21,9 °C -0,5 °C 50 % 74 % 1022,8 hPa 0,0 l/m² 13,5 km/h (3 Bft) NO 35 ° 1 min 221 W/m² -4,5 °C -6,6 °C 16,1 km/h (3 Bft)
07.01.2024 13:46 22,0 °C -0,6 °C 50 % 72 % 1022,9 hPa 0,0 l/m² 18,1 km/h (3 Bft) N 355 ° 2 min 272 W/m² -5,0 °C -9,5 °C 24,1 km/h (4 Bft)
07.01.2024 13:48 21,9 °C -0,6 °C 50 % 73 % 1022,9 hPa 0,0 l/m² 15,1 km/h (3 Bft) N-NW 346 ° 2 min 207 W/m² -4,8 °C -7,8 °C 22,5 km/h (4 Bft)
07.01.2024 13:50 22,0 °C -0,6 °C 50 % 72 % 1023,0 hPa 0,0 l/m² 13,5 km/h (3 Bft) N-NO 32 ° 2 min 162 W/m² -5,0 °C -6,7 °C 20,9 km/h (4 Bft)
07.01.2024 13:52 22,0 °C -0,6 °C 50 % 73 % 1022,9 hPa 0,0 l/m² 12,8 km/h (3 Bft) N-NO 29 ° 2 min 142 W/m² -4,8 °C -6,3 °C 24,1 km/h (4 Bft)
07.01.2024 13:53 22,0 °C -0,6 °C 50 % 73 % 1022,9 hPa 0,0 l/m² 7,0 km/h (2 Bft) N-NO 22 ° 1 min 135 W/m² -4,8 °C -1,2 °C 14,5 km/h (3 Bft)
07.01.2024 13:54 22,0 °C -0,6 °C 50 % 73 % 1022,9 hPa 0,0 l/m² 14,2 km/h (3 Bft) N-NO 17 ° 1 min 134 W/m² -4,8 °C -7,2 °C 20,9 km/h (4 Bft)
07.01.2024 13:56 21,9 °C -0,6 °C 50 % 73 % 1023,0 hPa 0,0 l/m² 10,7 km/h (2 Bft) N 355 ° 2 min 130 W/m² -4,8 °C -4,7 °C 16,1 km/h (3 Bft)
07.01.2024 13:58 22,0 °C -0,7 °C 50 % 73 % 1022,8 hPa 0,0 l/m² 9,4 km/h (2 Bft) N-NW 336 ° 2 min 127 W/m² -4,9 °C -3,7 °C 14,5 km/h (3 Bft)
07.01.2024 14:00 22,0 °C -0,7 °C 50 % 73 % 1023,0 hPa 0,0 l/m² 11,5 km/h (2 Bft) N-NO 23 ° 2 min 116 W/m² -4,9 °C -5,4 °C 17,7 km/h (3 Bft)
07.01.2024 14:02 21,9 °C -0,7 °C 50 % 73 % 1023,0 hPa 0,0 l/m² 11,2 km/h (2 Bft) N-NW 342 ° 2 min 107 W/m² -4,9 °C -5,2 °C 17,7 km/h (3 Bft)
07.01.2024 14:03 22,0 °C -0,7 °C 50 % 73 % 1023,0 hPa 0,0 l/m² 8,6 km/h (2 Bft) NO 35 ° 1 min 107 W/m² -4,9 °C -3,0 °C 12,9 km/h (3 Bft)
07.01.2024 14:05 22,0 °C -0,7 °C 50 % 74 % 1023,0 hPa 0,0 l/m² 7,4 km/h (2 Bft) N-NO 13 ° 2 min 95 W/m² -4,7 °C -1,8 °C 14,5 km/h (3 Bft)
07.01.2024 14:06 22,0 °C -0,7 °C 50 % 75 % 1023,0 hPa 0,0 l/m² 8,4 km/h (2 Bft) N-NW 338 ° 1 min 90 W/m² -4,6 °C -2,8 °C 12,9 km/h (3 Bft)
07.01.2024 14:07 21,9 °C -0,7 °C 50 % 74 % 1023,0 hPa 0,0 l/m² 10,1 km/h (2 Bft) N-NO 12 ° 1 min 83 W/m² -4,7 °C -4,3 °C 17,7 km/h (3 Bft)
07.01.2024 14:09 22,0 °C -0,7 °C 50 % 75 % 1023,1 hPa 0,0 l/m² 8,8 km/h (2 Bft) N 355 ° 2 min 70 W/m² -4,6 °C -3,2 °C 16,1 km/h (3 Bft)
07.01.2024 14:11 22,0 °C -0,7 °C 50 % 75 % 1023,1 hPa 0,0 l/m² 12,4 km/h (2 Bft) N 5 ° 2 min 62 W/m² -4,6 °C -6,1 °C 22,5 km/h (4 Bft)
07.01.2024 14:12 21,9 °C -0,8 °C 50 % 75 % 1023,1 hPa 0,0 l/m² 15,6 km/h (3 Bft) N-NO 16 ° 1 min 58 W/m² -4,7 °C -8,3 °C 19,3 km/h (3 Bft)
07.01.2024 14:13 21,9 °C -0,8 °C 50 % 75 % 1023,1 hPa 0,0 l/m² 16,7 km/h (3 Bft) N 349 ° 1 min 58 W/m² -4,7 °C -9,0 °C 19,3 km/h (3 Bft)
07.01.2024 14:15 22,0 °C -0,9 °C 50 % 76 % 1023,1 hPa 0,0 l/m² 12,1 km/h (2 Bft) N-NW 335 ° 2 min 58 W/m² -4,6 °C -6,1 °C 22,5 km/h (4 Bft)
07.01.2024 14:17 21,9 °C -0,9 °C 50 % 76 % 1023,1 hPa 0,0 l/m² 14,4 km/h (3 Bft) N-NW 330 ° 2 min 62 W/m² -4,6 °C -7,7 °C 20,9 km/h (4 Bft)
07.01.2024 14:19 21,9 °C -1,0 °C 50 % 77 % 1023,2 hPa 0,0 l/m² 14,8 km/h (3 Bft) N 360 ° 2 min 60 W/m² -4,5 °C -8,1 °C 24,1 km/h (4 Bft)
07.01.2024 14:21 22,0 °C -1,1 °C 50 % 77 % 1023,3 hPa 0,0 l/m² 12,1 km/h (2 Bft) N-NW 340 ° 2 min 54 W/m² -4,6 °C -6,3 °C 22,5 km/h (4 Bft)
07.01.2024 14:22 22,0 °C -1,1 °C 50 % 77 % 1023,2 hPa 0,0 l/m² 15,7 km/h (3 Bft) N 11 ° 1 min 54 W/m² -4,6 °C -8,7 °C 22,5 km/h (4 Bft)
07.01.2024 14:23 22,0 °C -1,1 °C 50 % 77 % 1023,2 hPa 0,0 l/m² 8,4 km/h (2 Bft) N-NW 330 ° 1 min 53 W/m² -4,6 °C -3,2 °C 17,7 km/h (3 Bft)
07.01.2024 14:25 21,9 °C -1,1 °C 50 % 77 % 1023,3 hPa 0,0 l/m² 13,7 km/h (3 Bft) NW 323 ° 2 min 53 W/m² -4,6 °C -7,5 °C 20,9 km/h (4 Bft)
07.01.2024 14:27 21,9 °C -1,1 °C 50 % 77 % 1023,2 hPa 0,0 l/m² 15,6 km/h (3 Bft) N 360 ° 2 min 53 W/m² -4,6 °C -8,7 °C 20,9 km/h (4 Bft)
07.01.2024 14:29 21,9 °C -1,2 °C 50 % 77 % 1023,4 hPa 0,0 l/m² 15,2 km/h (3 Bft) N-NW 339 ° 0 min 49 W/m² -4,7 °C -8,6 °C 20,9 km/h (4 Bft)
07.01.2024 14:31 21,9 °C -1,2 °C 50 % 77 % 1023,3 hPa 0,0 l/m² 15,2 km/h (3 Bft) N 360 ° 0 min 49 W/m² -4,7 °C -8,6 °C 22,5 km/h (4 Bft)
07.01.2024 14:32 21,9 °C -1,2 °C 50 % 77 % 1023,3 hPa 0,0 l/m² 14,5 km/h (3 Bft) N-NW 348 ° 0 min 49 W/m² -4,7 °C -8,1 °C 20,9 km/h (4 Bft)
07.01.2024 14:33 21,9 °C -1,2 °C 50 % 77 % 1023,4 hPa 0,0 l/m² 16,7 km/h (3 Bft) N 5 ° 0 min 47 W/m² -4,7 °C -9,4 °C 20,9 km/h (4 Bft)
07.01.2024 14:34 22,0 °C -1,2 °C 50 % 77 % 1023,3 hPa 0,0 l/m² 14,4 km/h (3 Bft) N-NW 340 ° 0 min 47 W/m² -4,7 °C -8,1 °C 20,9 km/h (4 Bft)
07.01.2024 14:35 22,0 °C -1,2 °C 50 % 77 % 1023,4 hPa 0,0 l/m² 9,1 km/h (2 Bft) N-NO 26 ° 0 min 47 W/m² -4,7 °C -4,0 °C 12,9 km/h (3 Bft)
07.01.2024 14:36 22,0 °C -1,2 °C 50 % 77 % 1023,4 hPa 0,0 l/m² 10,4 km/h (2 Bft) N-NW 348 ° 0 min 46 W/m² -4,7 °C -5,1 °C 16,1 km/h (3 Bft)
07.01.2024 14:37 22,0 °C -1,2 °C 50 % 77 % 1023,4 hPa 0,0 l/m² 11,3 km/h (2 Bft) N 350 ° 0 min 44 W/m² -4,7 °C -5,8 °C 16,1 km/h (3 Bft)
07.01.2024 14:38 21,9 °C -1,2 °C 50 % 78 % 1023,4 hPa 0,0 l/m² 12,5 km/h (2 Bft) N 9 ° 0 min 42 W/m² -4,5 °C -6,8 °C 17,7 km/h (3 Bft)
07.01.2024 14:39 21,9 °C -1,2 °C 50 % 78 % 1023,4 hPa 0,0 l/m² 10,2 km/h (2 Bft) N-NW 339 ° 0 min 42 W/m² -4,5 °C -4,9 °C 14,5 km/h (3 Bft)
07.01.2024 14:41 21,9 °C -1,2 °C 50 % 78 % 1023,4 hPa 0,0 l/m² 10,9 km/h (2 Bft) N 355 ° 0 min 40 W/m² -4,5 °C -5,5 °C 19,3 km/h (3 Bft)
07.01.2024 14:43 22,0 °C -1,2 °C 50 % 78 % 1023,5 hPa 0,0 l/m² 11,0 km/h (2 Bft) N 350 ° 0 min 39 W/m² -4,5 °C -5,6 °C 17,7 km/h (3 Bft)
07.01.2024 14:44 22,0 °C -1,1 °C 50 % 78 % 1023,5 hPa 0,0 l/m² 9,9 km/h (2 Bft) N 360 ° 0 min 39 W/m² -4,4 °C -4,6 °C 16,1 km/h (3 Bft)
07.01.2024 14:45 21,9 °C -1,2 °C 50 % 78 % 1023,5 hPa 0,0 l/m² 9,3 km/h (2 Bft) N 5 ° 0 min 39 W/m² -4,5 °C -4,2 °C 12,9 km/h (3 Bft)
07.01.2024 14:46 22,0 °C -1,2 °C 50 % 78 % 1023,5 hPa 0,0 l/m² 9,2 km/h (2 Bft) N-NW 343 ° 0 min 37 W/m² -4,5 °C -4,1 °C 12,9 km/h (3 Bft)
07.01.2024 14:47 21,9 °C -1,2 °C 50 % 79 % 1023,5 hPa 0,0 l/m² 11,4 km/h (2 Bft) N 9 ° 0 min 37 W/m² -4,4 °C -5,9 °C 16,1 km/h (3 Bft)
07.01.2024 14:48 21,9 °C -1,2 °C 50 % 79 % 1023,5 hPa 0,0 l/m² 11,8 km/h (2 Bft) N 355 ° 0 min 35 W/m² -4,4 °C -6,2 °C 20,9 km/h (4 Bft)
07.01.2024 14:49 21,9 °C -1,1 °C 50 % 79 % 1023,6 hPa 0,0 l/m² 12,2 km/h (2 Bft) N 355 ° 0 min 35 W/m² -4,3 °C -6,4 °C 19,3 km/h (3 Bft)
07.01.2024 14:51 21,9 °C -1,2 °C 50 % 79 % 1023,5 hPa 0,0 l/m² 12,2 km/h (2 Bft) N-NW 340 ° 0 min 33 W/m² -4,4 °C -6,5 °C 17,7 km/h (3 Bft)
07.01.2024 14:53 22,0 °C -1,2 °C 50 % 79 % 1023,6 hPa 0,0 l/m² 11,0 km/h (2 Bft) N-NW 345 ° 0 min 32 W/m² -4,4 °C -5,6 °C 16,1 km/h (3 Bft)
07.01.2024 14:54 21,9 °C -1,2 °C 50 % 79 % 1023,6 hPa 0,0 l/m² 11,9 km/h (2 Bft) N 355 ° 0 min 32 W/m² -4,4 °C -6,3 °C 20,9 km/h (4 Bft)
07.01.2024 14:55 21,9 °C -1,2 °C 50 % 80 % 1023,6 hPa 0,0 l/m² 10,5 km/h (2 Bft) N 355 ° 0 min 30 W/m² -4,2 °C -5,2 °C 17,7 km/h (3 Bft)
07.01.2024 14:56 21,9 °C -1,2 °C 50 % 80 % 1023,6 hPa 0,0 l/m² 12,4 km/h (2 Bft) N 355 ° 0 min 30 W/m² -4,2 °C -6,7 °C 19,3 km/h (3 Bft)
07.01.2024 14:57 21,9 °C -1,2 °C 50 % 80 % 1023,6 hPa 0,0 l/m² 13,1 km/h (3 Bft) N 350 ° 0 min 26 W/m² -4,2 °C -7,2 °C 16,1 km/h (3 Bft)
07.01.2024 14:58 21,9 °C -1,2 °C 50 % 80 % 1023,6 hPa 0,0 l/m² 14,4 km/h (3 Bft) N-NW 339 ° 0 min 26 W/m² -4,2 °C -8,1 °C 17,7 km/h (3 Bft)
07.01.2024 14:59 21,9 °C -1,2 °C 50 % 80 % 1023,6 hPa 0,0 l/m² 10,4 km/h (2 Bft) N 355 ° 0 min 25 W/m² -4,2 °C -5,1 °C 16,1 km/h (3 Bft)
07.01.2024 15:01 21,9 °C -1,3 °C 49 % 80 % 1023,6 hPa 0,0 l/m² 11,9 km/h (2 Bft) N-NW 346 ° 0 min 25 W/m² -4,3 °C -6,4 °C 17,7 km/h (3 Bft)
07.01.2024 15:03 21,9 °C -1,3 °C 49 % 80 % 1023,7 hPa 0,0 l/m² 14,8 km/h (3 Bft) N-NW 348 ° 0 min 23 W/m² -4,3 °C -8,4 °C 22,5 km/h (4 Bft)
07.01.2024 15:04 21,9 °C -1,3 °C 49 % 80 % 1023,7 hPa 0,0 l/m² 13,9 km/h (3 Bft) NW 324 ° 0 min 21 W/m² -4,3 °C -7,8 °C 17,7 km/h (3 Bft)
07.01.2024 15:05 21,9 °C -1,3 °C 49 % 80 % 1023,7 hPa 0,0 l/m² 13,7 km/h (3 Bft) N 355 ° 0 min 21 W/m² -4,3 °C -7,7 °C 17,7 km/h (3 Bft)
07.01.2024 15:06 21,9 °C -1,3 °C 49 % 80 % 1023,7 hPa 0,0 l/m² 10,9 km/h (2 Bft) N-NW 339 ° 0 min 19 W/m² -4,3 °C -5,6 °C 16,1 km/h (3 Bft)
07.01.2024 15:07 21,9 °C -1,3 °C 49 % 80 % 1023,7 hPa 0,0 l/m² 12,1 km/h (2 Bft) N 5 ° 0 min 19 W/m² -4,3 °C -6,6 °C 16,1 km/h (3 Bft)
07.01.2024 15:08 21,9 °C -1,3 °C 49 % 80 % 1023,7 hPa 0,0 l/m² 11,8 km/h (2 Bft) N-NW 338 ° 0 min 18 W/m² -4,3 °C -6,3 °C 16,1 km/h (3 Bft)
07.01.2024 15:09 21,9 °C -1,3 °C 49 % 80 % 1023,7 hPa 0,0 l/m² 10,9 km/h (2 Bft) N 355 ° 0 min 18 W/m² -4,3 °C -5,6 °C 17,7 km/h (3 Bft)
07.01.2024 15:11 21,9 °C -1,3 °C 49 % 80 % 1023,7 hPa 0,0 l/m² 13,8 km/h (3 Bft) N-NW 348 ° 0 min 16 W/m² -4,3 °C -7,8 °C 20,9 km/h (4 Bft)
07.01.2024 15:13 21,8 °C -1,3 °C 48 % 80 % 1023,8 hPa 0,0 l/m² 13,3 km/h (3 Bft) N-NW 336 ° 0 min 16 W/m² -4,3 °C -7,4 °C 22,5 km/h (4 Bft)
07.01.2024 15:14 21,9 °C -1,3 °C 48 % 80 % 1023,8 hPa 0,0 l/m² 15,0 km/h (3 Bft) N-NW 345 ° 0 min 16 W/m² -4,3 °C -8,6 °C 20,9 km/h (4 Bft)
07.01.2024 15:15 21,9 °C -1,3 °C 49 % 80 % 1023,8 hPa 0,0 l/m² 13,2 km/h (3 Bft) N 5 ° 0 min 14 W/m² -4,3 °C -7,4 °C 19,3 km/h (3 Bft)
07.01.2024 15:16 21,9 °C -1,3 °C 49 % 80 % 1023,8 hPa 0,0 l/m² 9,7 km/h (2 Bft) N-NW 335 ° 0 min 14 W/m² -4,3 °C -4,6 °C 14,5 km/h (3 Bft)
07.01.2024 15:17 21,9 °C -1,3 °C 49 % 80 % 1023,8 hPa 0,0 l/m² 9,1 km/h (2 Bft) N 355 ° 0 min 14 W/m² -4,3 °C -4,1 °C 14,5 km/h (3 Bft)
07.01.2024 15:18 21,9 °C -1,3 °C 48 % 80 % 1023,7 hPa 0,0 l/m² 9,1 km/h (2 Bft) N-NW 333 ° 0 min 14 W/m² -4,3 °C -4,1 °C 12,9 km/h (3 Bft)
07.01.2024 15:19 21,8 °C -1,3 °C 49 % 81 % 1023,7 hPa 0,0 l/m² 9,6 km/h (2 Bft) N 5 ° 0 min 12 W/m² -4,1 °C -4,5 °C 17,7 km/h (3 Bft)
07.01.2024 15:21 21,8 °C -1,4 °C 48 % 80 % 1023,8 hPa 0,0 l/m² 13,3 km/h (3 Bft) N-NW 340 ° 0 min 12 W/m² -4,4 °C -7,6 °C 19,3 km/h (3 Bft)
07.01.2024 15:23 21,8 °C -1,4 °C 49 % 81 % 1023,8 hPa 0,0 l/m² 11,0 km/h (2 Bft) N 355 ° 0 min 12 W/m² -4,2 °C -5,8 °C 16,1 km/h (3 Bft)
07.01.2024 15:24 21,9 °C -1,4 °C 49 % 81 % 1023,7 hPa 0,0 l/m² 10,7 km/h (2 Bft) N 355 ° 0 min 12 W/m² -4,2 °C -5,6 °C 17,7 km/h (3 Bft)
07.01.2024 15:25 21,9 °C -1,4 °C 49 % 81 % 1023,8 hPa 0,0 l/m² 9,3 km/h (2 Bft) W-NW 302 ° 0 min 12 W/m² -4,2 °C -4,4 °C 14,5 km/h (3 Bft)
07.01.2024 15:26 21,9 °C -1,4 °C 49 % 81 % 1023,8 hPa 0,0 l/m² 12,7 km/h (3 Bft) N 360 ° 0 min 12 W/m² -4,2 °C -7,1 °C 16,1 km/h (3 Bft)
07.01.2024 15:27 21,9 °C -1,4 °C 49 % 81 % 1023,8 hPa 0,0 l/m² 8,3 km/h (2 Bft) N-NW 334 ° 0 min 11 W/m² -4,2 °C -3,4 °C 14,5 km/h (3 Bft)
07.01.2024 15:28 21,9 °C -1,4 °C 49 % 81 % 1023,8 hPa 0,0 l/m² 4,6 km/h (1 Bft) N 355 ° 0 min 11 W/m² -4,2 °C -1,4 °C 6,4 km/h (2 Bft)
07.01.2024 15:29 21,9 °C -1,4 °C 49 % 81 % 1023,8 hPa 0,0 l/m² 10,1 km/h (2 Bft) N-NO 22 ° 0 min 11 W/m² -4,2 °C -5,1 °C 16,1 km/h (3 Bft)
07.01.2024 15:31 21,9 °C -1,4 °C 49 % 81 % 1023,8 hPa 0,0 l/m² 10,0 km/h (2 Bft) N-NO 15 ° 0 min 11 W/m² -4,2 °C -5,0 °C 14,5 km/h (3 Bft)
07.01.2024 15:33 22,0 °C -1,4 °C 49 % 81 % 1023,9 hPa 0,0 l/m² 9,9 km/h (2 Bft) N 360 ° 0 min 11 W/m² -4,2 °C -4,9 °C 17,7 km/h (3 Bft)
07.01.2024 15:34 22,0 °C -1,4 °C 49 % 81 % 1023,8 hPa 0,0 l/m² 8,1 km/h (2 Bft) N 5 ° 0 min 11 W/m² -4,2 °C -3,2 °C 12,9 km/h (3 Bft)
07.01.2024 15:35 22,1 °C -1,4 °C 49 % 81 % 1023,9 hPa 0,0 l/m² 9,4 km/h (2 Bft) N 5 ° 0 min 11 W/m² -4,2 °C -4,5 °C 16,1 km/h (3 Bft)
07.01.2024 15:36 22,1 °C -1,4 °C 49 % 81 % 1023,9 hPa 0,0 l/m² 12,9 km/h (3 Bft) N 355 ° 0 min 11 W/m² -4,2 °C -7,3 °C 19,3 km/h (3 Bft)
07.01.2024 15:37 22,1 °C -1,4 °C 49 % 81 % 1023,9 hPa 0,0 l/m² 11,6 km/h (2 Bft) N 355 ° 0 min 11 W/m² -4,2 °C -6,3 °C 14,5 km/h (3 Bft)
07.01.2024 15:38 22,1 °C -1,4 °C 49 % 81 % 1023,8 hPa 0,0 l/m² 10,4 km/h (2 Bft) N-NW 343 ° 0 min 11 W/m² -4,2 °C -5,3 °C 17,7 km/h (3 Bft)
07.01.2024 15:39 22,1 °C -1,4 °C 49 % 81 % 1023,9 hPa 0,0 l/m² 7,9 km/h (2 Bft) N-NW 342 ° 0 min 11 W/m² -4,2 °C -3,0 °C 12,9 km/h (3 Bft)
07.01.2024 15:41 22,2 °C -1,4 °C 49 % 82 % 1023,8 hPa 0,0 l/m² 10,3 km/h (2 Bft) N-NW 343 ° 0 min 11 W/m² -4,1 °C -5,3 °C 16,1 km/h (3 Bft)
07.01.2024 15:42 22,2 °C -1,4 °C 49 % 82 % 1023,9 hPa 0,0 l/m² 9,1 km/h (2 Bft) N 355 ° 0 min 9 W/m² -4,1 °C -4,2 °C 12,9 km/h (3 Bft)
07.01.2024 15:43 22,2 °C -1,4 °C 49 % 82 % 1023,9 hPa 0,0 l/m² 8,5 km/h (2 Bft) N-NW 340 ° 0 min 9 W/m² -4,1 °C -3,6 °C 9,7 km/h (2 Bft)
07.01.2024 15:44 22,2 °C -1,4 °C 49 % 82 % 1023,9 hPa 0,0 l/m² 6,4 km/h (2 Bft) N-NW 338 ° 0 min 9 W/m² -4,1 °C -1,4 °C 12,9 km/h (3 Bft)
07.01.2024 15:46 22,2 °C -1,4 °C 49 % 82 % 1023,9 hPa 0,0 l/m² 10,6 km/h (2 Bft) NW 324 ° 0 min 9 W/m² -4,1 °C -5,5 °C 19,3 km/h (3 Bft)
07.01.2024 15:47 22,2 °C -1,4 °C 49 % 82 % 1023,9 hPa 0,0 l/m² 8,0 km/h (2 Bft) N-NW 346 ° 0 min 9 W/m² -4,1 °C -3,1 °C 9,7 km/h (2 Bft)
07.01.2024 15:48 22,3 °C -1,4 °C 49 % 82 % 1024,0 hPa 0,0 l/m² 8,4 km/h (2 Bft) N-NW 340 ° 0 min 7 W/m² -4,1 °C -3,5 °C 17,7 km/h (3 Bft)
07.01.2024 15:49 22,2 °C -1,4 °C 49 % 82 % 1024,0 hPa 0,0 l/m² 14,5 km/h (3 Bft) N-NO 12 ° 0 min 7 W/m² -4,1 °C -8,4 °C 17,7 km/h (3 Bft)
07.01.2024 15:51 22,2 °C -1,4 °C 49 % 82 % 1024,1 hPa 0,0 l/m² 10,6 km/h (2 Bft) N-NW 338 ° 0 min 7 W/m² -4,1 °C -5,5 °C 16,1 km/h (3 Bft)
07.01.2024 15:52 22,3 °C -1,4 °C 49 % 82 % 1024,0 hPa 0,0 l/m² 9,9 km/h (2 Bft) N-NW 341 ° 0 min 7 W/m² -4,1 °C -4,9 °C 14,5 km/h (3 Bft)
07.01.2024 15:53 22,3 °C -1,4 °C 49 % 82 % 1024,0 hPa 0,0 l/m² 11,1 km/h (2 Bft) N-NO 12 ° 0 min 7 W/m² -4,1 °C -5,9 °C 16,1 km/h (3 Bft)
07.01.2024 15:54 22,3 °C -1,4 °C 49 % 82 % 1024,0 hPa 0,0 l/m² 10,3 km/h (2 Bft) N-NW 345 ° 0 min 5 W/m² -4,1 °C -5,3 °C 14,5 km/h (3 Bft)
07.01.2024 15:55 22,3 °C -1,4 °C 50 % 82 % 1024,0 hPa 0,0 l/m² 11,5 km/h (2 Bft) N-NW 327 ° 0 min 5 W/m² -4,1 °C -6,2 °C 16,1 km/h (3 Bft)
07.01.2024 15:56 22,3 °C -1,4 °C 50 % 82 % 1024,0 hPa 0,0 l/m² 11,6 km/h (2 Bft) N 360 ° 0 min 5 W/m² -4,1 °C -6,3 °C 14,5 km/h (3 Bft)
07.01.2024 15:57 22,3 °C -1,4 °C 50 % 82 % 1024,0 hPa 0,0 l/m² 7,9 km/h (2 Bft) N-NW 344 ° 0 min 5 W/m² -4,1 °C -3,0 °C 12,9 km/h (3 Bft)
07.01.2024 15:58 22,3 °C -1,4 °C 50 % 82 % 1024,1 hPa 0,0 l/m² 11,3 km/h (2 Bft) N 355 ° 0 min 5 W/m² -4,1 °C -6,1 °C 16,1 km/h (3 Bft)
07.01.2024 15:59 22,3 °C -1,4 °C 50 % 82 % 1024,0 hPa 0,0 l/m² 12,3 km/h (2 Bft) N-NW 340 ° 0 min 5 W/m² -4,1 °C -6,8 °C 14,5 km/h (3 Bft)
07.01.2024 16:01 22,3 °C -1,4 °C 50 % 83 % 1024,1 hPa 0,0 l/m² 10,2 km/h (2 Bft) N-NO 15 ° 0 min 0 W/m² -3,9 °C -5,2 °C 16,1 km/h (3 Bft)
07.01.2024 16:03 22,3 °C -1,4 °C 50 % 83 % 1024,0 hPa 0,0 l/m² 5,7 km/h (2 Bft) N 350 ° 0 min 0 W/m² -3,9 °C -1,4 °C 12,9 km/h (3 Bft)
07.01.2024 16:04 22,4 °C -1,4 °C 50 % 83 % 1024,0 hPa 0,0 l/m² 7,6 km/h (2 Bft) N-NW 343 ° 0 min 0 W/m² -3,9 °C -2,7 °C 14,5 km/h (3 Bft)
07.01.2024 16:05 22,4 °C -1,4 °C 50 % 83 % 1024,0 hPa 0,0 l/m² 10,4 km/h (2 Bft) N-NW 348 ° 0 min 0 W/m² -3,9 °C -5,3 °C 17,7 km/h (3 Bft)
07.01.2024 16:06 22,4 °C -1,4 °C 50 % 83 % 1024,0 hPa 0,0 l/m² 14,2 km/h (3 Bft) N-NW 344 ° 0 min 0 W/m² -3,9 °C -8,2 °C 17,7 km/h (3 Bft)
07.01.2024 16:07 22,4 °C -1,4 °C 50 % 83 % 1024,0 hPa 0,0 l/m² 10,2 km/h (2 Bft) N-NW 338 ° 0 min 0 W/m² -3,9 °C -5,2 °C 14,5 km/h (3 Bft)
07.01.2024 16:08 22,4 °C -1,4 °C 50 % 83 % 1024,0 hPa 0,0 l/m² 10,4 km/h (2 Bft) NW 324 ° 0 min 0 W/m² -3,9 °C -5,3 °C 14,5 km/h (3 Bft)
07.01.2024 16:09 22,4 °C -1,4 °C 50 % 83 % 1024,0 hPa 0,0 l/m² 11,6 km/h (2 Bft) N 355 ° 0 min 0 W/m² -3,9 °C -6,3 °C 17,7 km/h (3 Bft)
07.01.2024 16:11 22,4 °C -1,4 °C 50 % 83 % 1024,1 hPa 0,0 l/m² 12,1 km/h (2 Bft) NW 315 ° 0 min 0 W/m² -3,9 °C -6,7 °C 16,1 km/h (3 Bft)
07.01.2024 16:13 22,4 °C -1,4 °C 50 % 83 % 1024,0 hPa 0,0 l/m² 7,6 km/h (2 Bft) NW 325 ° 0 min 0 W/m² -3,9 °C -2,7 °C 9,7 km/h (2 Bft)
07.01.2024 16:14 22,4 °C -1,4 °C 50 % 83 % 1024,0 hPa 0,0 l/m² 7,6 km/h (2 Bft) NW 323 ° 0 min 0 W/m² -3,9 °C -2,7 °C 12,9 km/h (3 Bft)
07.01.2024 16:15 22,4 °C -1,4 °C 50 % 83 % 1024,1 hPa 0,0 l/m² 6,2 km/h (2 Bft) N-NW 344 ° 0 min 0 W/m² -3,9 °C -1,4 °C 9,7 km/h (2 Bft)
07.01.2024 16:16 22,5 °C -1,4 °C 50 % 83 % 1024,1 hPa 0,0 l/m² 6,8 km/h (2 Bft) N-NW 337 ° 0 min 0 W/m² -3,9 °C -1,8 °C 9,7 km/h (2 Bft)
07.01.2024 16:17 22,5 °C -1,4 °C 50 % 83 % 1024,1 hPa 0,0 l/m² 8,0 km/h (2 Bft) N-NW 332 ° 0 min 0 W/m² -3,9 °C -3,1 °C 12,9 km/h (3 Bft)
07.01.2024 16:18 22,4 °C -1,4 °C 50 % 83 % 1024,1 hPa 0,0 l/m² 8,0 km/h (2 Bft) NW 318 ° 0 min 0 W/m² -3,9 °C -3,1 °C 11,3 km/h (2 Bft)
07.01.2024 16:19 22,4 °C -1,4 °C 50 % 83 % 1024,1 hPa 0,0 l/m² 9,9 km/h (2 Bft) N-NW 331 ° 0 min 0 W/m² -3,9 °C -4,9 °C 14,5 km/h (3 Bft)
07.01.2024 16:21 22,5 °C -1,4 °C 50 % 83 % 1024,2 hPa 0,0 l/m² 8,3 km/h (2 Bft) N-NW 345 ° 0 min 0 W/m² -3,9 °C -3,4 °C 12,9 km/h (3 Bft)
07.01.2024 16:23 22,5 °C -1,4 °C 50 % 84 % 1024,1 hPa 0,0 l/m² 7,4 km/h (2 Bft) NW 325 ° 0 min 0 W/m² -3,7 °C -2,5 °C 12,9 km/h (3 Bft)
07.01.2024 16:24 22,5 °C -1,4 °C 50 % 84 % 1024,2 hPa 0,0 l/m² 5,9 km/h (2 Bft) N-NW 346 ° 0 min 0 W/m² -3,7 °C -1,4 °C 8,0 km/h (2 Bft)
07.01.2024 16:25 22,5 °C -1,3 °C 50 % 84 % 1024,1 hPa 0,0 l/m² 8,9 km/h (2 Bft) N-NW 338 ° 0 min 0 W/m² -3,6 °C -3,9 °C 16,1 km/h (3 Bft)
07.01.2024 16:26 22,5 °C -1,4 °C 50 % 84 % 1024,2 hPa 0,0 l/m² 8,4 km/h (2 Bft) N-NW 336 ° 0 min 0 W/m² -3,7 °C -3,5 °C 12,9 km/h (3 Bft)
07.01.2024 16:27 22,5 °C -1,4 °C 50 % 84 % 1024,2 hPa 0,0 l/m² 12,1 km/h (2 Bft) N 355 ° 0 min 0 W/m² -3,7 °C -6,7 °C 16,1 km/h (3 Bft)
07.01.2024 16:28 22,6 °C -1,4 °C 50 % 84 % 1024,1 hPa 0,0 l/m² 8,1 km/h (2 Bft) NW 316 ° 0 min 0 W/m² -3,7 °C -3,2 °C 9,7 km/h (2 Bft)
07.01.2024 16:29 22,5 °C -1,4 °C 50 % 84 % 1024,2 hPa 0,0 l/m² 5,9 km/h (2 Bft) N-NW 342 ° 0 min 0 W/m² -3,7 °C -1,4 °C 8,0 km/h (2 Bft)
07.01.2024 16:31 22,5 °C -1,4 °C 50 % 84 % 1024,1 hPa 0,0 l/m² 5,5 km/h (2 Bft) NW 325 ° 0 min 0 W/m² -3,7 °C -1,4 °C 8,0 km/h (2 Bft)
07.01.2024 16:33 22,5 °C -1,4 °C 50 % 84 % 1024,3 hPa 0,0 l/m² 5,8 km/h (2 Bft) NW 306 ° 0 min 0 W/m² -3,7 °C -1,4 °C 11,3 km/h (2 Bft)
07.01.2024 16:34 22,6 °C -1,3 °C 50 % 84 % 1024,2 hPa 0,0 l/m² 5,1 km/h (1 Bft) NW 321 ° 0 min 0 W/m² -3,6 °C -1,3 °C 8,0 km/h (2 Bft)
07.01.2024 16:35 22,6 °C -1,3 °C 50 % 84 % 1024,2 hPa 0,0 l/m² 4,3 km/h (1 Bft) NW 325 ° 0 min 0 W/m² -3,6 °C -1,3 °C 6,4 km/h (2 Bft)
07.01.2024 16:36 22,6 °C -1,3 °C 50 % 84 % 1024,3 hPa 0,0 l/m² 8,0 km/h (2 Bft) N 360 ° 0 min 0 W/m² -3,6 °C -3,0 °C 14,5 km/h (3 Bft)
07.01.2024 16:37 22,6 °C -1,3 °C 50 % 84 % 1024,2 hPa 0,0 l/m² 6,8 km/h (2 Bft) N-NW 337 ° 0 min 0 W/m² -3,6 °C -1,7 °C 8,0 km/h (2 Bft)
07.01.2024 16:38 22,6 °C -1,3 °C 50 % 84 % 1024,3 hPa 0,0 l/m² 6,8 km/h (2 Bft) NW 321 ° 0 min 0 W/m² -3,6 °C -1,7 °C 9,7 km/h (2 Bft)
07.01.2024 16:39 22,6 °C -1,3 °C 50 % 84 % 1024,3 hPa 0,0 l/m² 6,9 km/h (2 Bft) N-NW 335 ° 0 min 0 W/m² -3,6 °C -1,8 °C 8,0 km/h (2 Bft)
07.01.2024 16:41 22,6 °C -1,3 °C 50 % 84 % 1024,2 hPa 0,0 l/m² 7,6 km/h (2 Bft) N-NW 342 ° 0 min 0 W/m² -3,6 °C -2,6 °C 14,5 km/h (3 Bft)
07.01.2024 16:43 22,6 °C -1,3 °C 50 % 85 % 1024,2 hPa 0,0 l/m² 10,8 km/h (2 Bft) NW 304 ° 0 min 0 W/m² -3,5 °C -5,6 °C 14,5 km/h (3 Bft)
07.01.2024 16:44 22,6 °C -1,3 °C 50 % 85 % 1024,2 hPa 0,0 l/m² 8,2 km/h (2 Bft) NW 309 ° 0 min 0 W/m² -3,5 °C -3,2 °C 12,9 km/h (3 Bft)
07.01.2024 16:45 22,6 °C -1,3 °C 50 % 85 % 1024,2 hPa 0,0 l/m² 7,0 km/h (2 Bft) N-NW 338 ° 0 min 0 W/m² -3,5 °C -1,9 °C 9,7 km/h (2 Bft)
07.01.2024 16:46 22,6 °C -1,3 °C 50 % 85 % 1024,4 hPa 0,0 l/m² 8,5 km/h (2 Bft) N-NW 345 ° 0 min 0 W/m² -3,5 °C -3,5 °C 12,9 km/h (3 Bft)
07.01.2024 16:47 22,6 °C -1,3 °C 50 % 85 % 1024,4 hPa 0,0 l/m² 7,2 km/h (2 Bft) N-NW 337 ° 0 min 0 W/m² -3,5 °C -2,2 °C 8,0 km/h (2 Bft)
07.01.2024 16:48 22,6 °C -1,3 °C 50 % 85 % 1024,3 hPa 0,0 l/m² 7,5 km/h (2 Bft) N-NW 331 ° 0 min 0 W/m² -3,5 °C -2,5 °C 12,9 km/h (3 Bft)
07.01.2024 16:49 22,7 °C -1,3 °C 50 % 85 % 1024,3 hPa 0,0 l/m² 9,4 km/h (2 Bft) N-NW 330 ° 0 min 0 W/m² -3,5 °C -4,4 °C 14,5 km/h (3 Bft)
07.01.2024 16:51 22,7 °C -1,3 °C 50 % 85 % 1024,3 hPa 0,0 l/m² 10,2 km/h (2 Bft) N-NW 342 ° 0 min 0 W/m² -3,5 °C -5,1 °C 14,5 km/h (3 Bft)
07.01.2024 16:53 22,7 °C -1,3 °C 51 % 85 % 1024,4 hPa 0,0 l/m² 7,0 km/h (2 Bft) NW 325 ° 0 min 0 W/m² -3,5 °C -1,9 °C 12,9 km/h (3 Bft)
07.01.2024 16:54 22,7 °C -1,3 °C 51 % 85 % 1024,3 hPa 0,0 l/m² 6,4 km/h (2 Bft) N-NO 13 ° 0 min 0 W/m² -3,5 °C -1,3 °C 8,0 km/h (2 Bft)
07.01.2024 16:55 22,7 °C -1,3 °C 51 % 85 % 1024,3 hPa 0,0 l/m² 6,7 km/h (2 Bft) NW 319 ° 0 min 0 W/m² -3,5 °C -1,6 °C 9,7 km/h (2 Bft)
07.01.2024 16:56 22,7 °C -1,3 °C 51 % 85 % 1024,4 hPa 0,0 l/m² 9,5 km/h (2 Bft) N-NW 328 ° 0 min 0 W/m² -3,5 °C -4,4 °C 12,9 km/h (3 Bft)
07.01.2024 16:57 22,7 °C -1,3 °C 51 % 85 % 1024,3 hPa 0,0 l/m² 9,6 km/h (2 Bft) N 350 ° 0 min 0 W/m² -3,5 °C -4,5 °C 12,9 km/h (3 Bft)
07.01.2024 16:58 22,7 °C -1,3 °C 51 % 85 % 1024,4 hPa 0,0 l/m² 8,8 km/h (2 Bft) N-NW 329 ° 0 min 0 W/m² -3,5 °C -3,8 °C 14,5 km/h (3 Bft)
07.01.2024 16:59 22,7 °C -1,3 °C 51 % 85 % 1024,4 hPa 0,0 l/m² 8,4 km/h (2 Bft) N-NW 330 ° 0 min 0 W/m² -3,5 °C -3,4 °C 12,9 km/h (3 Bft)
07.01.2024 17:01 22,7 °C -1,3 °C 51 % 85 % 1024,3 hPa 0,0 l/m² 7,6 km/h (2 Bft) N-NW 329 ° 0 min 0 W/m² -3,5 °C -2,6 °C 9,7 km/h (2 Bft)
07.01.2024 17:03 22,7 °C -1,3 °C 51 % 85 % 1024,4 hPa 0,0 l/m² 10,7 km/h (2 Bft) N-NW 338 ° 0 min 0 W/m² -3,5 °C -5,5 °C 16,1 km/h (3 Bft)
07.01.2024 17:04 22,7 °C -1,3 °C 51 % 85 % 1024,4 hPa 0,0 l/m² 6,8 km/h (2 Bft) NW 314 ° 0 min 0 W/m² -3,5 °C -1,7 °C 12,9 km/h (3 Bft)
07.01.2024 17:05 22,7 °C -1,3 °C 51 % 85 % 1024,4 hPa 0,0 l/m² 6,6 km/h (2 Bft) N-NW 332 ° 0 min 0 W/m² -3,5 °C -1,5 °C 8,0 km/h (2 Bft)
07.01.2024 17:06 22,7 °C -1,3 °C 51 % 85 % 1024,4 hPa 0,0 l/m² 6,8 km/h (2 Bft) NW 324 ° 0 min 0 W/m² -3,5 °C -1,7 °C 9,7 km/h (2 Bft)
07.01.2024 17:07 22,7 °C -1,3 °C 51 % 85 % 1024,4 hPa 0,0 l/m² 6,8 km/h (2 Bft) NW 320 ° 0 min 0 W/m² -3,5 °C -1,7 °C 9,7 km/h (2 Bft)
07.01.2024 17:08 22,7 °C -1,3 °C 51 % 85 % 1024,4 hPa 0,0 l/m² 8,4 km/h (2 Bft) N-NW 327 ° 0 min 0 W/m² -3,5 °C -3,4 °C 16,1 km/h (3 Bft)
07.01.2024 17:09 22,7 °C -1,3 °C 51 % 85 % 1024,4 hPa 0,0 l/m² 10,0 km/h (2 Bft) N-NW 337 ° 0 min 0 W/m² -3,5 °C -4,9 °C 14,5 km/h (3 Bft)
07.01.2024 17:11 22,7 °C -1,3 °C 51 % 86 % 1024,4 hPa 0,0 l/m² 7,2 km/h (2 Bft) N-NW 337 ° 0 min 0 W/m² -3,3 °C -2,2 °C 12,9 km/h (3 Bft)
07.01.2024 17:13 22,7 °C -1,3 °C 51 % 86 % 1024,5 hPa 0,0 l/m² 6,6 km/h (2 Bft) N-NW 344 ° 0 min 0 W/m² -3,3 °C -1,5 °C 9,7 km/h (2 Bft)
07.01.2024 17:14 22,8 °C -1,3 °C 51 % 86 % 1024,6 hPa 0,0 l/m² 7,5 km/h (2 Bft) N-NW 345 ° 0 min 0 W/m² -3,3 °C -2,5 °C 12,9 km/h (3 Bft)
07.01.2024 17:15 22,8 °C -1,3 °C 51 % 86 % 1024,5 hPa 0,0 l/m² 6,4 km/h (2 Bft) NW 317 ° 0 min 0 W/m² -3,3 °C -1,3 °C 8,0 km/h (2 Bft)
07.01.2024 17:16 22,8 °C -1,2 °C 51 % 86 % 1024,5 hPa 0,0 l/m² 7,2 km/h (2 Bft) N-NW 336 ° 0 min 0 W/m² -3,2 °C -2,1 °C 9,7 km/h (2 Bft)
07.01.2024 17:17 22,8 °C -1,3 °C 51 % 86 % 1024,5 hPa 0,0 l/m² 5,3 km/h (1 Bft) NW 321 ° 0 min 0 W/m² -3,3 °C -1,3 °C 8,0 km/h (2 Bft)
07.01.2024 17:18 22,8 °C -1,3 °C 51 % 86 % 1024,5 hPa 0,0 l/m² 6,6 km/h (2 Bft) N-NW 333 ° 0 min 0 W/m² -3,3 °C -1,5 °C 9,7 km/h (2 Bft)
07.01.2024 17:19 22,8 °C -1,3 °C 51 % 86 % 1024,5 hPa 0,0 l/m² 6,7 km/h (2 Bft) N-NW 339 ° 0 min 0 W/m² -3,3 °C -1,6 °C 9,7 km/h (2 Bft)
07.01.2024 17:21 22,8 °C -1,2 °C 51 % 86 % 1024,6 hPa 0,0 l/m² 9,0 km/h (2 Bft) N-NW 339 ° 0 min 0 W/m² -3,2 °C -3,9 °C 16,1 km/h (3 Bft)
07.01.2024 17:23 22,8 °C -1,3 °C 51 % 86 % 1024,5 hPa 0,0 l/m² 8,6 km/h (2 Bft) N-NW 342 ° 0 min 0 W/m² -3,3 °C -3,6 °C 14,5 km/h (3 Bft)
07.01.2024 17:24 22,8 °C -1,2 °C 51 % 86 % 1024,5 hPa 0,0 l/m² 7,4 km/h (2 Bft) N-NW 334 ° 0 min 0 W/m² -3,2 °C -2,3 °C 12,9 km/h (3 Bft)
07.01.2024 17:25 22,8 °C -1,2 °C 51 % 86 % 1024,6 hPa 0,0 l/m² 9,4 km/h (2 Bft) NW 323 ° 0 min 0 W/m² -3,2 °C -4,2 °C 16,1 km/h (3 Bft)
07.01.2024 17:26 22,7 °C -1,2 °C 51 % 86 % 1024,5 hPa 0,0 l/m² 13,4 km/h (3 Bft) N-NW 344 ° 0 min 0 W/m² -3,2 °C -7,4 °C 17,7 km/h (3 Bft)
07.01.2024 17:27 22,7 °C -1,2 °C 51 % 86 % 1024,5 hPa 0,0 l/m² 7,6 km/h (2 Bft) N-NW 348 ° 0 min 0 W/m² -3,2 °C -2,5 °C 12,9 km/h (3 Bft)
07.01.2024 17:28 22,7 °C -1,2 °C 51 % 86 % 1024,5 hPa 0,0 l/m² 8,9 km/h (2 Bft) NW 316 ° 0 min 0 W/m² -3,2 °C -3,8 °C 12,9 km/h (3 Bft)
07.01.2024 17:29 22,7 °C -1,2 °C 51 % 86 % 1024,5 hPa 0,0 l/m² 5,7 km/h (2 Bft) NW 320 ° 0 min 0 W/m² -3,2 °C -1,2 °C 11,3 km/h (2 Bft)
07.01.2024 17:31 22,7 °C -1,2 °C 51 % 86 % 1024,5 hPa 0,0 l/m² 7,5 km/h (2 Bft) N-NW 332 ° 0 min 0 W/m² -3,2 °C -2,4 °C 12,9 km/h (3 Bft)
07.01.2024 17:33 22,7 °C -1,2 °C 51 % 86 % 1024,6 hPa 0,0 l/m² 5,9 km/h (2 Bft) N-NW 329 ° 0 min 0 W/m² -3,2 °C -1,2 °C 9,7 km/h (2 Bft)
07.01.2024 17:34 22,7 °C -1,2 °C 51 % 86 % 1024,5 hPa 0,0 l/m² 6,3 km/h (2 Bft) NW 322 ° 0 min 0 W/m² -3,2 °C -1,2 °C 11,3 km/h (2 Bft)
07.01.2024 17:35 22,7 °C -1,2 °C 51 % 86 % 1024,5 hPa 0,0 l/m² 4,7 km/h (1 Bft) N-NW 337 ° 0 min 0 W/m² -3,2 °C -1,2 °C 6,4 km/h (2 Bft)
07.01.2024 17:36 22,7 °C -1,2 °C 51 % 86 % 1024,5 hPa 0,0 l/m² 9,2 km/h (2 Bft) N-NW 338 ° 0 min 0 W/m² -3,2 °C -4,1 °C 14,5 km/h (3 Bft)
07.01.2024 17:37 22,7 °C -1,2 °C 51 % 86 % 1024,6 hPa 0,0 l/m² 11,0 km/h (2 Bft) N-NW 348 ° 0 min 0 W/m² -3,2 °C -5,6 °C 14,5 km/h (3 Bft)
07.01.2024 17:38 22,7 °C -1,2 °C 51 % 86 % 1024,5 hPa 0,0 l/m² 7,9 km/h (2 Bft) N-NW 333 ° 0 min 0 W/m² -3,2 °C -2,8 °C 9,7 km/h (2 Bft)
07.01.2024 17:39 22,7 °C -1,2 °C 51 % 86 % 1024,6 hPa 0,0 l/m² 10,5 km/h (2 Bft) N 355 ° 0 min 0 W/m² -3,2 °C -5,2 °C 14,5 km/h (3 Bft)
07.01.2024 17:41 22,7 °C -1,2 °C 51 % 86 % 1024,6 hPa 0,0 l/m² 8,2 km/h (2 Bft) N-NW 336 ° 0 min 0 W/m² -3,2 °C -3,1 °C 14,5 km/h (3 Bft)
07.01.2024 17:43 22,7 °C -1,2 °C 51 % 86 % 1024,5 hPa 0,0 l/m² 8,1 km/h (2 Bft) NW 317 ° 0 min 0 W/m² -3,2 °C -3,0 °C 14,5 km/h (3 Bft)
07.01.2024 17:44 22,7 °C -1,1 °C 51 % 86 % 1024,5 hPa 0,0 l/m² 10,1 km/h (2 Bft) N-NW 342 ° 0 min 0 W/m² -3,1 °C -4,8 °C 16,1 km/h (3 Bft)
07.01.2024 17:45 22,6 °C -1,2 °C 51 % 86 % 1024,6 hPa 0,0 l/m² 8,0 km/h (2 Bft) N-NW 330 ° 0 min 0 W/m² -3,2 °C -2,9 °C 14,5 km/h (3 Bft)
07.01.2024 17:46 22,6 °C -1,1 °C 51 % 87 % 1024,5 hPa 0,0 l/m² 8,3 km/h (2 Bft) N-NW 340 ° 0 min 0 W/m² -3,0 °C -3,1 °C 12,9 km/h (3 Bft)
07.01.2024 17:47 22,6 °C -1,1 °C 51 % 87 % 1024,5 hPa 0,0 l/m² 7,6 km/h (2 Bft) N-NW 336 ° 0 min 0 W/m² -3,0 °C -2,4 °C 14,5 km/h (3 Bft)
07.01.2024 17:48 22,6 °C -1,1 °C 51 % 87 % 1024,5 hPa 0,0 l/m² 7,3 km/h (2 Bft) N-NW 334 ° 0 min 0 W/m² -3,0 °C -2,1 °C 12,9 km/h (3 Bft)
07.01.2024 17:49 22,6 °C -1,1 °C 51 % 87 % 1024,5 hPa 0,0 l/m² 7,3 km/h (2 Bft) NW 325 ° 0 min 0 W/m² -3,0 °C -2,1 °C 12,9 km/h (3 Bft)
07.01.2024 17:51 22,6 °C -1,1 °C 51 % 87 % 1024,5 hPa 0,0 l/m² 8,8 km/h (2 Bft) N 355 ° 0 min 0 W/m² -3,0 °C -3,6 °C 14,5 km/h (3 Bft)
07.01.2024 17:53 22,6 °C -1,1 °C 51 % 87 % 1024,6 hPa 0,0 l/m² 8,2 km/h (2 Bft) NW 322 ° 0 min 0 W/m² -3,0 °C -3,0 °C 14,5 km/h (3 Bft)
07.01.2024 17:54 22,6 °C -1,1 °C 47 % 87 % 1024,6 hPa 0,0 l/m² 6,9 km/h (2 Bft) N-NW 345 ° 0 min 0 W/m² -3,0 °C -1,6 °C 12,9 km/h (3 Bft)
07.01.2024 17:55 22,5 °C -1,1 °C 45 % 87 % 1024,6 hPa 0,0 l/m² 4,3 km/h (1 Bft) NW 321 ° 0 min 0 W/m² -3,0 °C -1,1 °C 9,7 km/h (2 Bft)
07.01.2024 17:56 22,5 °C -1,1 °C 44 % 87 % 1024,6 hPa 0,0 l/m² 8,2 km/h (2 Bft) NW 304 ° 0 min 0 W/m² -3,0 °C -3,0 °C 11,3 km/h (2 Bft)
07.01.2024 17:57 22,5 °C -1,1 °C 44 % 87 % 1024,6 hPa 0,0 l/m² 10,8 km/h (2 Bft) W-NW 286 ° 0 min 0 W/m² -3,0 °C -5,3 °C 16,1 km/h (3 Bft)
07.01.2024 17:58 22,4 °C -1,1 °C 44 % 87 % 1024,6 hPa 0,0 l/m² 8,0 km/h (2 Bft) N-NW 331 ° 0 min 0 W/m² -3,0 °C -2,8 °C 12,9 km/h (3 Bft)
07.01.2024 17:59 22,4 °C -1,1 °C 44 % 87 % 1024,6 hPa 0,0 l/m² 10,5 km/h (2 Bft) N 355 ° 0 min 0 W/m² -3,0 °C -5,1 °C 16,1 km/h (3 Bft)
07.01.2024 18:01 22,4 °C -1,1 °C 45 % 87 % 1024,6 hPa 0,0 l/m² 8,9 km/h (2 Bft) N-NW 340 ° 0 min 0 W/m² -3,0 °C -3,7 °C 14,5 km/h (3 Bft)
07.01.2024 18:03 22,3 °C -1,1 °C 46 % 87 % 1024,7 hPa 0,0 l/m² 6,5 km/h (2 Bft) NW 319 ° 0 min 0 W/m² -3,0 °C -1,2 °C 12,9 km/h (3 Bft)
07.01.2024 18:04 22,3 °C -1,1 °C 46 % 87 % 1024,6 hPa 0,0 l/m² 8,0 km/h (2 Bft) N-NW 343 ° 0 min 0 W/m² -3,0 °C -2,8 °C 12,9 km/h (3 Bft)
07.01.2024 18:05 22,3 °C -1,1 °C 46 % 87 % 1024,5 hPa 0,0 l/m² 9,8 km/h (2 Bft) NW 319 ° 0 min 0 W/m² -3,0 °C -4,5 °C 12,9 km/h (3 Bft)
07.01.2024 18:06 22,3 °C -1,1 °C 46 % 87 % 1024,5 hPa 0,0 l/m² 8,0 km/h (2 Bft) N 360 ° 0 min 0 W/m² -3,0 °C -2,8 °C 12,9 km/h (3 Bft)
07.01.2024 18:07 22,3 °C -1,1 °C 46 % 87 % 1024,6 hPa 0,0 l/m² 12,3 km/h (2 Bft) N-NW 331 ° 0 min 0 W/m² -3,0 °C -6,5 °C 19,3 km/h (3 Bft)
07.01.2024 18:08 22,3 °C -1,0 °C 47 % 87 % 1024,6 hPa 0,0 l/m² 13,8 km/h (3 Bft) N-NW 343 ° 0 min 0 W/m² -2,9 °C -7,4 °C 19,3 km/h (3 Bft)
07.01.2024 18:09 22,3 °C -1,0 °C 47 % 87 % 1024,7 hPa 0,0 l/m² 10,6 km/h (2 Bft) NW 317 ° 0 min 0 W/m² -2,9 °C -5,1 °C 17,7 km/h (3 Bft)
07.01.2024 18:11 22,3 °C -1,0 °C 47 % 87 % 1024,7 hPa 0,0 l/m² 11,3 km/h (2 Bft) N-NW 342 ° 0 min 0 W/m² -2,9 °C -5,6 °C 16,1 km/h (3 Bft)
07.01.2024 18:13 22,3 °C -1,0 °C 47 % 87 % 1024,6 hPa 0,0 l/m² 12,4 km/h (2 Bft) N-NW 335 ° 0 min 0 W/m² -2,9 °C -6,4 °C 19,3 km/h (3 Bft)
07.01.2024 18:14 22,3 °C -1,0 °C 47 % 87 % 1024,7 hPa 0,0 l/m² 8,8 km/h (2 Bft) NW 317 ° 0 min 0 W/m² -2,9 °C -3,5 °C 12,9 km/h (3 Bft)
07.01.2024 18:15 22,2 °C -1,0 °C 48 % 87 % 1024,7 hPa 0,0 l/m² 12,3 km/h (2 Bft) N-NW 340 ° 0 min 0 W/m² -2,9 °C -6,4 °C 17,7 km/h (3 Bft)
07.01.2024 18:16 22,2 °C -1,0 °C 48 % 87 % 1024,7 hPa 0,0 l/m² 8,4 km/h (2 Bft) N-NW 346 ° 0 min 0 W/m² -2,9 °C -3,1 °C 12,9 km/h (3 Bft)
07.01.2024 18:17 22,2 °C -1,0 °C 48 % 87 % 1024,7 hPa 0,0 l/m² 8,0 km/h (2 Bft) N 355 ° 0 min 0 W/m² -2,9 °C -2,7 °C 12,9 km/h (3 Bft)
07.01.2024 18:18 22,3 °C -1,0 °C 48 % 87 % 1024,7 hPa 0,0 l/m² 8,1 km/h (2 Bft) N-NW 334 ° 0 min 0 W/m² -2,9 °C -2,8 °C 12,9 km/h (3 Bft)
07.01.2024 18:19 22,3 °C -1,0 °C 48 % 87 % 1024,7 hPa 0,0 l/m² 11,5 km/h (2 Bft) N-NW 346 ° 0 min 0 W/m² -2,9 °C -5,8 °C 17,7 km/h (3 Bft)
07.01.2024 18:21 22,2 °C -1,0 °C 48 % 87 % 1024,8 hPa 0,0 l/m² 14,0 km/h (3 Bft) N 360 ° 0 min 0 W/m² -2,9 °C -7,6 °C 22,5 km/h (4 Bft)
07.01.2024 18:23 22,2 °C -1,0 °C 48 % 87 % 1024,8 hPa 0,0 l/m² 12,5 km/h (2 Bft) N-NW 340 ° 0 min 0 W/m² -2,9 °C -6,5 °C 19,3 km/h (3 Bft)
07.01.2024 18:24 22,2 °C -0,9 °C 49 % 86 % 1024,8 hPa 0,0 l/m² 13,3 km/h (3 Bft) N-NW 346 ° 0 min 0 W/m² -2,9 °C -7,0 °C 16,1 km/h (3 Bft)
07.01.2024 18:25 22,2 °C -0,9 °C 49 % 86 % 1024,8 hPa 0,0 l/m² 10,8 km/h (2 Bft) NW 321 ° 0 min 0 W/m² -2,9 °C -5,1 °C 16,1 km/h (3 Bft)
07.01.2024 18:26 22,2 °C -0,9 °C 49 % 86 % 1024,8 hPa 0,0 l/m² 9,9 km/h (2 Bft) W-NW 296 ° 0 min 0 W/m² -2,9 °C -4,4 °C 14,5 km/h (3 Bft)
07.01.2024 18:27 22,2 °C -0,9 °C 49 % 86 % 1024,8 hPa 0,0 l/m² 17,0 km/h (3 Bft) N 355 ° 0 min 0 W/m² -2,9 °C -9,2 °C 20,9 km/h (4 Bft)
07.01.2024 18:28 22,2 °C -0,9 °C 49 % 86 % 1024,8 hPa 0,0 l/m² 14,7 km/h (3 Bft) N-NW 340 ° 0 min 0 W/m² -2,9 °C -7,9 °C 19,3 km/h (3 Bft)
07.01.2024 18:29 22,2 °C -0,9 °C 49 % 86 % 1024,8 hPa 0,0 l/m² 13,2 km/h (3 Bft) N-NW 340 ° 0 min 0 W/m² -2,9 °C -6,9 °C 17,7 km/h (3 Bft)
07.01.2024 18:31 22,2 °C -0,9 °C 49 % 86 % 1024,8 hPa 0,0 l/m² 11,0 km/h (2 Bft) N 355 ° 0 min 0 W/m² -2,9 °C -5,3 °C 16,1 km/h (3 Bft)
07.01.2024 18:33 22,2 °C -0,9 °C 49 % 86 % 1024,9 hPa 0,0 l/m² 10,5 km/h (2 Bft) N-NW 329 ° 0 min 0 W/m² -2,9 °C -4,9 °C 14,5 km/h (3 Bft)
07.01.2024 18:34 22,2 °C -0,9 °C 49 % 86 % 1024,9 hPa 0,0 l/m² 14,2 km/h (3 Bft) NW 325 ° 0 min 0 W/m² -2,9 °C -7,6 °C 20,9 km/h (4 Bft)
07.01.2024 18:35 22,2 °C -0,9 °C 49 % 86 % 1024,8 hPa 0,0 l/m² 12,9 km/h (3 Bft) N-NW 339 ° 0 min 0 W/m² -2,9 °C -6,7 °C 17,7 km/h (3 Bft)
07.01.2024 18:36 22,2 °C -0,9 °C 49 % 86 % 1024,8 hPa 0,0 l/m² 11,5 km/h (2 Bft) N 355 ° 0 min 0 W/m² -2,9 °C -5,7 °C 16,1 km/h (3 Bft)
07.01.2024 18:37 22,2 °C -0,9 °C 49 % 85 % 1024,9 hPa 0,0 l/m² 14,5 km/h (3 Bft) N-NW 334 ° 0 min 0 W/m² -3,1 °C -7,8 °C 22,5 km/h (4 Bft)
07.01.2024 18:38 22,2 °C -0,9 °C 49 % 85 % 1024,9 hPa 0,0 l/m² 14,1 km/h (3 Bft) N-NW 347 ° 0 min 0 W/m² -3,1 °C -7,5 °C 16,1 km/h (3 Bft)
07.01.2024 18:39 22,2 °C -0,9 °C 49 % 85 % 1024,9 hPa 0,0 l/m² 12,4 km/h (2 Bft) N 350 ° 0 min 0 W/m² -3,1 °C -6,3 °C 17,7 km/h (3 Bft)
07.01.2024 18:41 22,1 °C -0,9 °C 50 % 85 % 1024,9 hPa 0,0 l/m² 18,0 km/h (3 Bft) N 349 ° 0 min 0 W/m² -3,1 °C -9,8 °C 27,4 km/h (5 Bft)
07.01.2024 18:43 22,1 °C -0,9 °C 50 % 85 % 1024,9 hPa 0,0 l/m² 14,8 km/h (3 Bft) N-NW 342 ° 0 min 0 W/m² -3,1 °C -7,9 °C 19,3 km/h (3 Bft)
07.01.2024 18:45 22,2 °C -0,9 °C 50 % 84 % 1024,9 hPa 0,0 l/m² 12,8 km/h (3 Bft) N-NW 329 ° 0 min 0 W/m² -3,3 °C -6,6 °C 19,3 km/h (3 Bft)
07.01.2024 18:46 22,1 °C -0,9 °C 50 % 84 % 1024,9 hPa 0,0 l/m² 13,0 km/h (3 Bft) N 355 ° 0 min 0 W/m² -3,3 °C -6,8 °C 17,7 km/h (3 Bft)
07.01.2024 18:47 22,1 °C -0,9 °C 50 % 84 % 1024,9 hPa 0,0 l/m² 17,1 km/h (3 Bft) N-NW 337 ° 0 min 0 W/m² -3,3 °C -9,3 °C 24,1 km/h (4 Bft)
07.01.2024 18:48 22,1 °C -0,9 °C 50 % 84 % 1024,9 hPa 0,0 l/m² 13,4 km/h (3 Bft) N-NW 337 ° 0 min 0 W/m² -3,3 °C -7,0 °C 20,9 km/h (4 Bft)
07.01.2024 18:49 22,1 °C -0,9 °C 50 % 84 % 1024,8 hPa 0,0 l/m² 16,4 km/h (3 Bft) N 5 ° 0 min 0 W/m² -3,3 °C -8,9 °C 20,9 km/h (4 Bft)
07.01.2024 18:51 22,2 °C -0,9 °C 51 % 84 % 1024,9 hPa 0,0 l/m² 15,2 km/h (3 Bft) N-NW 329 ° 0 min 0 W/m² -3,3 °C -8,2 °C 24,1 km/h (4 Bft)
07.01.2024 18:53 22,1 °C -0,8 °C 51 % 84 % 1024,9 hPa 0,0 l/m² 13,7 km/h (3 Bft) NW 320 ° 0 min 0 W/m² -3,2 °C -7,1 °C 20,9 km/h (4 Bft)
07.01.2024 18:54 22,1 °C -0,9 °C 51 % 84 % 1024,9 hPa 0,0 l/m² 15,7 km/h (3 Bft) N-NW 331 ° 0 min 0 W/m² -3,3 °C -8,5 °C 19,3 km/h (3 Bft)
07.01.2024 18:55 22,1 °C -0,8 °C 51 % 84 % 1024,9 hPa 0,0 l/m² 16,7 km/h (3 Bft) N-NW 340 ° 0 min 0 W/m² -3,2 °C -9,0 °C 20,9 km/h (4 Bft)
07.01.2024 18:56 22,1 °C -0,8 °C 51 % 83 % 1024,9 hPa 0,0 l/m² 10,5 km/h (2 Bft) N-NW 340 ° 0 min 0 W/m² -3,3 °C -4,8 °C 20,9 km/h (4 Bft)
07.01.2024 18:57 22,1 °C -0,8 °C 51 % 83 % 1024,9 hPa 0,0 l/m² 14,2 km/h (3 Bft) N-NW 342 ° 0 min 0 W/m² -3,3 °C -7,4 °C 19,3 km/h (3 Bft)
07.01.2024 18:58 22,1 °C -0,8 °C 51 % 83 % 1024,9 hPa 0,0 l/m² 13,8 km/h (3 Bft) N 360 ° 0 min 0 W/m² -3,3 °C -7,2 °C 22,5 km/h (4 Bft)
07.01.2024 18:59 22,1 °C -0,9 °C 51 % 83 % 1024,8 hPa 0,0 l/m² 14,6 km/h (3 Bft) N-NW 342 ° 0 min 0 W/m² -3,4 °C -7,8 °C 24,1 km/h (4 Bft)
07.01.2024 19:01 22,2 °C -0,8 °C 51 % 83 % 1024,9 hPa 0,0 l/m² 16,0 km/h (3 Bft) N-NW 345 ° 0 min 0 W/m² -3,3 °C -8,6 °C 24,1 km/h (4 Bft)
07.01.2024 19:03 22,1 °C -0,9 °C 52 % 83 % 1025,0 hPa 0,0 l/m² 15,3 km/h (3 Bft) N-NW 344 ° 0 min 0 W/m² -3,4 °C -8,3 °C 24,1 km/h (4 Bft)
07.01.2024 19:04 22,2 °C -0,9 °C 52 % 83 % 1025,0 hPa 0,0 l/m² 18,9 km/h (3 Bft) N-NW 348 ° 0 min 0 W/m² -3,4 °C -10,3 °C 25,7 km/h (4 Bft)
07.01.2024 19:05 22,2 °C -0,8 °C 52 % 83 % 1025,0 hPa 0,0 l/m² 16,6 km/h (3 Bft) N 349 ° 0 min 0 W/m² -3,3 °C -8,9 °C 20,9 km/h (4 Bft)
07.01.2024 19:06 22,1 °C -0,9 °C 52 % 83 % 1025,0 hPa 0,0 l/m² 14,9 km/h (3 Bft) N-NW 342 ° 0 min 0 W/m² -3,4 °C -8,0 °C 24,1 km/h (4 Bft)
07.01.2024 19:07 22,2 °C -0,8 °C 52 % 83 % 1025,0 hPa 0,0 l/m² 15,5 km/h (3 Bft) N-NW 346 ° 0 min 0 W/m² -3,3 °C -8,3 °C 20,9 km/h (4 Bft)
07.01.2024 19:08 22,2 °C -0,9 °C 52 % 83 % 1025,0 hPa 0,0 l/m² 14,9 km/h (3 Bft) N-NO 24 ° 0 min 0 W/m² -3,4 °C -8,0 °C 17,7 km/h (3 Bft)
07.01.2024 19:09 22,2 °C -0,9 °C 52 % 83 % 1025,0 hPa 0,0 l/m² 17,5 km/h (3 Bft) N-NW 348 ° 0 min 0 W/m² -3,4 °C -9,5 °C 22,5 km/h (4 Bft)
07.01.2024 19:11 22,2 °C -0,9 °C 52 % 83 % 1025,0 hPa 0,0 l/m² 16,1 km/h (3 Bft) N-NW 346 ° 0 min 0 W/m² -3,4 °C -8,7 °C 24,1 km/h (4 Bft)
07.01.2024 19:13 22,2 °C -0,9 °C 52 % 83 % 1025,0 hPa 0,0 l/m² 14,3 km/h (3 Bft) N-NW 342 ° 0 min 0 W/m² -3,4 °C -7,6 °C 20,9 km/h (4 Bft)
07.01.2024 19:14 22,2 °C -0,8 °C 52 % 83 % 1025,1 hPa 0,0 l/m² 12,6 km/h (3 Bft) N-NW 332 ° 0 min 0 W/m² -3,3 °C -6,4 °C 17,7 km/h (3 Bft)
07.01.2024 19:15 22,2 °C -0,8 °C 52 % 83 % 1025,0 hPa 0,0 l/m² 14,6 km/h (3 Bft) N 360 ° 0 min 0 W/m² -3,3 °C -7,7 °C 17,7 km/h (3 Bft)
07.01.2024 19:16 22,2 °C -0,9 °C 52 % 83 % 1025,1 hPa 0,0 l/m² 12,3 km/h (2 Bft) N-NW 328 ° 0 min 0 W/m² -3,4 °C -6,3 °C 17,7 km/h (3 Bft)
07.01.2024 19:17 22,2 °C -0,9 °C 53 % 83 % 1025,1 hPa 0,0 l/m² 14,8 km/h (3 Bft) N-NW 337 ° 0 min 0 W/m² -3,4 °C -7,9 °C 20,9 km/h (4 Bft)
07.01.2024 19:18 22,2 °C -0,9 °C 53 % 83 % 1025,0 hPa 0,0 l/m² 16,2 km/h (3 Bft) NW 324 ° 0 min 0 W/m² -3,4 °C -8,8 °C 20,9 km/h (4 Bft)
07.01.2024 19:19 22,2 °C -0,9 °C 53 % 83 % 1025,0 hPa 0,0 l/m² 17,6 km/h (3 Bft) N 355 ° 0 min 0 W/m² -3,4 °C -9,6 °C 22,5 km/h (4 Bft)
07.01.2024 19:21 22,2 °C -0,9 °C 52 % 83 % 1025,1 hPa 0,0 l/m² 14,4 km/h (3 Bft) NW 325 ° 0 min 0 W/m² -3,4 °C -7,7 °C 20,9 km/h (4 Bft)
07.01.2024 19:23 22,2 °C -0,9 °C 53 % 83 % 1025,1 hPa 0,0 l/m² 12,6 km/h (3 Bft) NW 311 ° 0 min 0 W/m² -3,4 °C -6,5 °C 17,7 km/h (3 Bft)
07.01.2024 19:24 22,2 °C -0,9 °C 53 % 83 % 1025,1 hPa 0,0 l/m² 11,9 km/h (2 Bft) W-NW 295 ° 0 min 0 W/m² -3,4 °C -6,0 °C 19,3 km/h (3 Bft)
07.01.2024 19:25 22,2 °C -0,9 °C 53 % 83 % 1025,1 hPa 0,0 l/m² 12,2 km/h (2 Bft) NW 323 ° 0 min 0 W/m² -3,4 °C -6,2 °C 16,1 km/h (3 Bft)
07.01.2024 19:26 22,2 °C -0,9 °C 53 % 83 % 1025,1 hPa 0,0 l/m² 16,5 km/h (3 Bft) N-NW 331 ° 0 min 0 W/m² -3,4 °C -9,0 °C 24,1 km/h (4 Bft)
07.01.2024 19:27 22,2 °C -0,9 °C 53 % 83 % 1025,1 hPa 0,0 l/m² 15,5 km/h (3 Bft) NW 304 ° 0 min 0 W/m² -3,4 °C -8,4 °C 22,5 km/h (4 Bft)
07.01.2024 19:28 22,2 °C -0,9 °C 53 % 83 % 1025,1 hPa 0,0 l/m² 19,1 km/h (3 Bft) N-NW 338 ° 0 min 0 W/m² -3,4 °C -10,4 °C 24,1 km/h (4 Bft)
07.01.2024 19:29 22,2 °C -0,9 °C 53 % 83 % 1025,2 hPa 0,0 l/m² 14,2 km/h (3 Bft) N 355 ° 0 min 0 W/m² -3,4 °C -7,6 °C 20,9 km/h (4 Bft)
07.01.2024 19:31 22,2 °C -0,9 °C 53 % 83 % 1025,1 hPa 0,0 l/m² 16,0 km/h (3 Bft) N-NW 329 ° 0 min 0 W/m² -3,4 °C -8,7 °C 20,9 km/h (4 Bft)
07.01.2024 19:33 22,2 °C -0,9 °C 53 % 83 % 1025,2 hPa 0,0 l/m² 12,8 km/h (3 Bft) N-NW 346 ° 0 min 0 W/m² -3,4 °C -6,6 °C 19,3 km/h (3 Bft)
07.01.2024 19:34 22,2 °C -0,9 °C 53 % 83 % 1025,1 hPa 0,0 l/m² 14,6 km/h (3 Bft) N-NW 338 ° 0 min 0 W/m² -3,4 °C -7,8 °C 20,9 km/h (4 Bft)
07.01.2024 19:35 22,2 °C -0,9 °C 53 % 83 % 1025,2 hPa 0,0 l/m² 14,8 km/h (3 Bft) N-NW 327 ° 0 min 0 W/m² -3,4 °C -7,9 °C 22,5 km/h (4 Bft)
07.01.2024 19:36 22,2 °C -0,9 °C 53 % 83 % 1025,2 hPa 0,0 l/m² 14,2 km/h (3 Bft) N 355 ° 0 min 0 W/m² -3,4 °C -7,6 °C 17,7 km/h (3 Bft)
07.01.2024 19:37 22,2 °C -0,9 °C 53 % 83 % 1025,2 hPa 0,0 l/m² 12,5 km/h (2 Bft) N 360 ° 0 min 0 W/m² -3,4 °C -6,4 °C 16,1 km/h (3 Bft)
07.01.2024 19:38 22,2 °C -0,9 °C 53 % 83 % 1025,1 hPa 0,0 l/m² 18,3 km/h (3 Bft) NW 317 ° 0 min 0 W/m² -3,4 °C -9,9 °C 24,1 km/h (4 Bft)
07.01.2024 19:39 22,2 °C -0,9 °C 53 % 83 % 1025,1 hPa 0,0 l/m² 15,2 km/h (3 Bft) N 5 ° 0 min 0 W/m² -3,4 °C -8,2 °C 22,5 km/h (4 Bft)
07.01.2024 19:41 22,2 °C -0,9 °C 53 % 83 % 1025,1 hPa 0,0 l/m² 16,0 km/h (3 Bft) N-NW 337 ° 0 min 0 W/m² -3,4 °C -8,7 °C 22,5 km/h (4 Bft)
07.01.2024 19:43 22,2 °C -0,9 °C 54 % 83 % 1025,1 hPa 0,0 l/m² 12,6 km/h (3 Bft) N 355 ° 0 min 0 W/m² -3,4 °C -6,5 °C 19,3 km/h (3 Bft)
07.01.2024 19:44 22,2 °C -1,0 °C 53 % 83 % 1025,1 hPa 0,0 l/m² 15,7 km/h (3 Bft) N-NW 333 ° 0 min 0 W/m² -3,5 °C -8,6 °C 22,5 km/h (4 Bft)
07.01.2024 19:45 22,2 °C -0,9 °C 53 % 83 % 1025,0 hPa 0,0 l/m² 15,4 km/h (3 Bft) N 355 ° 0 min 0 W/m² -3,4 °C -8,3 °C 20,9 km/h (4 Bft)
07.01.2024 19:46 22,2 °C -0,9 °C 53 % 83 % 1025,0 hPa 0,0 l/m² 14,5 km/h (3 Bft) NW 321 ° 0 min 0 W/m² -3,4 °C -7,8 °C 19,3 km/h (3 Bft)
07.01.2024 19:47 22,2 °C -0,9 °C 53 % 83 % 1025,1 hPa 0,0 l/m² 16,1 km/h (3 Bft) N-NW 337 ° 0 min 0 W/m² -3,4 °C -8,7 °C 20,9 km/h (4 Bft)
07.01.2024 19:48 22,3 °C -0,9 °C 53 % 83 % 1025,1 hPa 0,0 l/m² 13,6 km/h (3 Bft) N-NW 327 ° 0 min 0 W/m² -3,4 °C -7,2 °C 19,3 km/h (3 Bft)
07.01.2024 19:49 22,2 °C -1,0 °C 53 % 83 % 1025,1 hPa 0,0 l/m² 15,7 km/h (3 Bft) NW 319 ° 0 min 0 W/m² -3,5 °C -8,6 °C 20,9 km/h (4 Bft)
07.01.2024 19:51 22,2 °C -0,9 °C 53 % 83 % 1025,1 hPa 0,0 l/m² 14,5 km/h (3 Bft) N-NW 336 ° 0 min 0 W/m² -3,4 °C -7,8 °C 19,3 km/h (3 Bft)
07.01.2024 19:53 22,2 °C -0,9 °C 53 % 83 % 1025,2 hPa 0,0 l/m² 14,7 km/h (3 Bft) N-NW 347 ° 0 min 0 W/m² -3,4 °C -7,9 °C 20,9 km/h (4 Bft)
07.01.2024 19:54 22,2 °C -0,9 °C 53 % 83 % 1025,1 hPa 0,0 l/m² 12,8 km/h (3 Bft) N-NW 345 ° 0 min 0 W/m² -3,4 °C -6,6 °C 19,3 km/h (3 Bft)
07.01.2024 19:55 22,2 °C -0,9 °C 53 % 83 % 1025,2 hPa 0,0 l/m² 12,4 km/h (2 Bft) N-NW 338 ° 0 min 0 W/m² -3,4 °C -6,3 °C 17,7 km/h (3 Bft)
07.01.2024 19:56 22,2 °C -0,9 °C 53 % 83 % 1025,2 hPa 0,0 l/m² 11,6 km/h (2 Bft) N 5 ° 0 min 0 W/m² -3,4 °C -5,7 °C 16,1 km/h (3 Bft)
07.01.2024 19:57 22,3 °C -0,9 °C 53 % 83 % 1025,2 hPa 0,0 l/m² 12,1 km/h (2 Bft) N-NW 347 ° 0 min 0 W/m² -3,4 °C -6,1 °C 14,5 km/h (3 Bft)
07.01.2024 19:58 22,2 °C -0,9 °C 53 % 83 % 1025,3 hPa 0,0 l/m² 15,0 km/h (3 Bft) N 349 ° 0 min 0 W/m² -3,4 °C -8,1 °C 19,3 km/h (3 Bft)
07.01.2024 19:59 22,3 °C -0,9 °C 53 % 83 % 1025,3 hPa 0,0 l/m² 14,8 km/h (3 Bft) N-NW 346 ° 0 min 0 W/m² -3,4 °C -7,9 °C 19,3 km/h (3 Bft)
07.01.2024 20:01 22,3 °C -0,9 °C 53 % 83 % 1025,2 hPa 0,0 l/m² 10,4 km/h (2 Bft) NW 325 ° 0 min 0 W/m² -3,4 °C -4,8 °C 16,1 km/h (3 Bft)
07.01.2024 20:03 22,2 °C -0,9 °C 53 % 83 % 1025,2 hPa 0,0 l/m² 16,3 km/h (3 Bft) N-NW 338 ° 0 min 0 W/m² -3,4 °C -8,8 °C 22,5 km/h (4 Bft)
07.01.2024 20:04 22,2 °C -0,9 °C 53 % 83 % 1025,3 hPa 0,0 l/m² 14,7 km/h (3 Bft) N-NW 338 ° 0 min 0 W/m² -3,4 °C -7,9 °C 20,9 km/h (4 Bft)
07.01.2024 20:05 22,2 °C -0,9 °C 53 % 83 % 1025,3 hPa 0,0 l/m² 15,2 km/h (3 Bft) NW 315 ° 0 min 0 W/m² -3,4 °C -8,2 °C 19,3 km/h (3 Bft)
07.01.2024 20:06 22,2 °C -0,9 °C 53 % 83 % 1025,4 hPa 0,0 l/m² 16,3 km/h (3 Bft) N-NW 330 ° 0 min 0 W/m² -3,4 °C -8,8 °C 25,7 km/h (4 Bft)
07.01.2024 20:07 22,2 °C -1,0 °C 53 % 83 % 1025,2 hPa 0,0 l/m² 19,9 km/h (4 Bft) N 355 ° 0 min 0 W/m² -3,5 °C -10,9 °C 27,4 km/h (5 Bft)
07.01.2024 20:08 22,2 °C -0,9 °C 53 % 83 % 1025,2 hPa 0,0 l/m² 18,0 km/h (3 Bft) N 355 ° 0 min 0 W/m² -3,4 °C -9,8 °C 25,7 km/h (4 Bft)
07.01.2024 20:09 22,2 °C -0,9 °C 53 % 83 % 1025,2 hPa 0,0 l/m² 14,7 km/h (3 Bft) N 349 ° 0 min 0 W/m² -3,4 °C -7,9 °C 20,9 km/h (4 Bft)
07.01.2024 20:11 22,2 °C -0,9 °C 53 % 83 % 1025,3 hPa 0,0 l/m² 17,0 km/h (3 Bft) N-NW 340 ° 0 min 0 W/m² -3,4 °C -9,2 °C 22,5 km/h (4 Bft)
07.01.2024 20:13 22,2 °C -0,9 °C 53 % 83 % 1025,2 hPa 0,0 l/m² 13,4 km/h (3 Bft) N 355 ° 0 min 0 W/m² -3,4 °C -7,0 °C 19,3 km/h (3 Bft)
07.01.2024 20:14 22,2 °C -0,9 °C 53 % 83 % 1025,3 hPa 0,0 l/m² 14,3 km/h (3 Bft) N-NW 346 ° 0 min 0 W/m² -3,4 °C -7,6 °C 17,7 km/h (3 Bft)
07.01.2024 20:15 22,2 °C -0,9 °C 53 % 83 % 1025,3 hPa 0,0 l/m² 15,6 km/h (3 Bft) N-NW 346 ° 0 min 0 W/m² -3,4 °C -8,4 °C 24,1 km/h (4 Bft)
07.01.2024 20:16 22,2 °C -0,9 °C 53 % 83 % 1025,3 hPa 0,0 l/m² 17,0 km/h (3 Bft) N-NW 345 ° 0 min 0 W/m² -3,4 °C -9,2 °C 20,9 km/h (4 Bft)
07.01.2024 20:17 22,2 °C -0,9 °C 53 % 83 % 1025,3 hPa 0,0 l/m² 16,3 km/h (3 Bft) N-NW 344 ° 0 min 0 W/m² -3,4 °C -8,8 °C 24,1 km/h (4 Bft)
07.01.2024 20:18 22,3 °C -0,9 °C 53 % 83 % 1025,3 hPa 0,0 l/m² 15,7 km/h (3 Bft) N 355 ° 0 min 0 W/m² -3,4 °C -8,5 °C 20,9 km/h (4 Bft)
07.01.2024 20:19 22,3 °C -0,9 °C 53 % 83 % 1025,3 hPa 0,0 l/m² 17,1 km/h (3 Bft) N-NW 336 ° 0 min 0 W/m² -3,4 °C -9,3 °C 20,9 km/h (4 Bft)
07.01.2024 20:21 22,2 °C -0,9 °C 53 % 83 % 1025,3 hPa 0,0 l/m² 14,1 km/h (3 Bft) N-NW 338 ° 0 min 0 W/m² -3,4 °C -7,5 °C 22,5 km/h (4 Bft)
07.01.2024 20:23 22,3 °C -0,9 °C 53 % 84 % 1025,3 hPa 0,0 l/m² 19,6 km/h (3 Bft) N-NW 331 ° 0 min 0 W/m² -3,3 °C -10,6 °C 29,0 km/h (5 Bft)
07.01.2024 20:24 22,2 °C -0,9 °C 53 % 84 % 1025,4 hPa 0,0 l/m² 18,5 km/h (3 Bft) N 355 ° 0 min 0 W/m² -3,3 °C -10,0 °C 25,7 km/h (4 Bft)
07.01.2024 20:25 22,2 °C -0,9 °C 53 % 84 % 1025,4 hPa 0,0 l/m² 14,1 km/h (3 Bft) N-NW 348 ° 0 min 0 W/m² -3,3 °C -7,5 °C 20,9 km/h (4 Bft)
07.01.2024 20:26 22,3 °C -0,9 °C 53 % 84 % 1025,4 hPa 0,0 l/m² 14,0 km/h (3 Bft) N-NW 342 ° 0 min 0 W/m² -3,3 °C -7,4 °C 19,3 km/h (3 Bft)
07.01.2024 20:27 22,3 °C -0,9 °C 53 % 84 % 1025,4 hPa 0,0 l/m² 10,8 km/h (2 Bft) N-NW 333 ° 0 min 0 W/m² -3,3 °C -5,1 °C 17,7 km/h (3 Bft)
07.01.2024 20:28 22,3 °C -0,9 °C 53 % 84 % 1025,4 hPa 0,0 l/m² 7,4 km/h (2 Bft) NW 324 ° 0 min 0 W/m² -3,3 °C -2,0 °C 9,7 km/h (2 Bft)
07.01.2024 20:29 22,3 °C -0,9 °C 53 % 84 % 1025,4 hPa 0,0 l/m² 14,6 km/h (3 Bft) N-NW 339 ° 0 min 0 W/m² -3,3 °C -7,8 °C 20,9 km/h (4 Bft)
07.01.2024 20:31 22,3 °C -0,9 °C 53 % 84 % 1025,3 hPa 0,0 l/m² 15,9 km/h (3 Bft) N 9 ° 0 min 0 W/m² -3,3 °C -8,6 °C 22,5 km/h (4 Bft)
07.01.2024 20:33 22,3 °C -0,9 °C 53 % 84 % 1025,4 hPa 0,0 l/m² 17,5 km/h (3 Bft) NW 320 ° 0 min 0 W/m² -3,3 °C -9,5 °C 24,1 km/h (4 Bft)
07.01.2024 20:34 22,3 °C -1,0 °C 53 % 84 % 1025,4 hPa 0,0 l/m² 16,1 km/h (3 Bft) N-NW 342 ° 0 min 0 W/m² -3,4 °C -8,9 °C 20,9 km/h (4 Bft)
07.01.2024 20:35 22,3 °C -0,9 °C 53 % 84 % 1025,5 hPa 0,0 l/m² 18,3 km/h (3 Bft) N-NW 327 ° 0 min 0 W/m² -3,3 °C -9,9 °C 25,7 km/h (4 Bft)
07.01.2024 20:36 22,3 °C -1,0 °C 53 % 84 % 1025,5 hPa 0,0 l/m² 17,8 km/h (3 Bft) N-NW 333 ° 0 min 0 W/m² -3,4 °C -9,8 °C 25,7 km/h (4 Bft)
07.01.2024 20:37 22,3 °C -1,0 °C 53 % 84 % 1025,5 hPa 0,0 l/m² 15,6 km/h (3 Bft) N-NW 346 ° 0 min 0 W/m² -3,4 °C -8,6 °C 20,9 km/h (4 Bft)
07.01.2024 20:38 22,3 °C -1,0 °C 53 % 84 % 1025,5 hPa 0,0 l/m² 12,8 km/h (3 Bft) N-NW 331 ° 0 min 0 W/m² -3,4 °C -6,7 °C 19,3 km/h (3 Bft)
07.01.2024 20:39 22,3 °C -1,0 °C 53 % 84 % 1025,5 hPa 0,0 l/m² 12,7 km/h (3 Bft) N-NW 337 ° 0 min 0 W/m² -3,4 °C -6,7 °C 19,3 km/h (3 Bft)
07.01.2024 20:41 22,3 °C -1,0 °C 53 % 84 % 1025,5 hPa 0,0 l/m² 13,2 km/h (3 Bft) NW 315 ° 0 min 0 W/m² -3,4 °C -7,0 °C 17,7 km/h (3 Bft)
07.01.2024 20:43 22,4 °C -1,0 °C 54 % 84 % 1025,6 hPa 0,0 l/m² 11,2 km/h (2 Bft) N 355 ° 0 min 0 W/m² -3,4 °C -5,5 °C 16,1 km/h (3 Bft)
07.01.2024 20:44 22,4 °C -1,0 °C 54 % 84 % 1025,6 hPa 0,0 l/m² 6,9 km/h (2 Bft) N-NW 331 ° 0 min 0 W/m² -3,4 °C -1,5 °C 9,7 km/h (2 Bft)
07.01.2024 20:45 22,4 °C -1,0 °C 54 % 84 % 1025,6 hPa 0,0 l/m² 11,6 km/h (2 Bft) NW 325 ° 0 min 0 W/m² -3,4 °C -5,9 °C 19,3 km/h (3 Bft)
07.01.2024 20:46 22,4 °C -1,0 °C 54 % 85 % 1025,6 hPa 0,0 l/m² 15,7 km/h (3 Bft) N-NO 17 ° 0 min 0 W/m² -3,2 °C -8,6 °C 20,9 km/h (4 Bft)
07.01.2024 20:47 22,4 °C -1,0 °C 54 % 85 % 1025,6 hPa 0,0 l/m² 13,1 km/h (3 Bft) N 360 ° 0 min 0 W/m² -3,2 °C -6,9 °C 19,3 km/h (3 Bft)
07.01.2024 20:48 22,4 °C -1,0 °C 54 % 85 % 1025,6 hPa 0,0 l/m² 12,3 km/h (2 Bft) N-NW 344 ° 0 min 0 W/m² -3,2 °C -6,4 °C 17,7 km/h (3 Bft)
07.01.2024 20:49 22,4 °C -1,0 °C 54 % 85 % 1025,6 hPa 0,0 l/m² 14,3 km/h (3 Bft) N 9 ° 0 min 0 W/m² -3,2 °C -7,7 °C 17,7 km/h (3 Bft)
07.01.2024 20:51 22,4 °C -1,1 °C 54 % 85 % 1025,6 hPa 0,0 l/m² 10,7 km/h (2 Bft) N 10 ° 0 min 0 W/m² -3,3 °C -5,3 °C 16,1 km/h (3 Bft)
07.01.2024 20:53 22,4 °C -1,1 °C 54 % 85 % 1025,7 hPa 0,0 l/m² 12,1 km/h (2 Bft) N-NW 347 ° 0 min 0 W/m² -3,3 °C -6,3 °C 19,3 km/h (3 Bft)
07.01.2024 20:54 22,4 °C -1,0 °C 54 % 85 % 1025,7 hPa 0,0 l/m² 8,9 km/h (2 Bft) N-NW 330 ° 0 min 0 W/m² -3,2 °C -3,6 °C 14,5 km/h (3 Bft)
07.01.2024 20:55 22,5 °C -1,1 °C 54 % 85 % 1025,7 hPa 0,0 l/m² 15,9 km/h (3 Bft) N-NW 329 ° 0 min 0 W/m² -3,3 °C -8,9 °C 20,9 km/h (4 Bft)
07.01.2024 20:56 22,5 °C -1,1 °C 54 % 85 % 1025,7 hPa 0,0 l/m² 13,8 km/h (3 Bft) N 355 ° 0 min 0 W/m² -3,3 °C -7,5 °C 17,7 km/h (3 Bft)
07.01.2024 20:57 22,4 °C -1,1 °C 54 % 85 % 1025,7 hPa 0,0 l/m² 15,7 km/h (3 Bft) N-NW 348 ° 0 min 0 W/m² -3,3 °C -8,7 °C 20,9 km/h (4 Bft)
07.01.2024 20:58 22,4 °C -1,1 °C 54 % 85 % 1025,7 hPa 0,0 l/m² 13,7 km/h (3 Bft) N-NW 335 ° 0 min 0 W/m² -3,3 °C -7,5 °C 19,3 km/h (3 Bft)
07.01.2024 20:59 22,5 °C -1,1 °C 54 % 85 % 1025,7 hPa 0,0 l/m² 15,2 km/h (3 Bft) N 5 ° 0 min 0 W/m² -3,3 °C -8,4 °C 22,5 km/h (4 Bft)
07.01.2024 21:01 22,5 °C -1,1 °C 54 % 85 % 1025,7 hPa 0,0 l/m² 15,9 km/h (3 Bft) N 5 ° 0 min 0 W/m² -3,3 °C -8,9 °C 22,5 km/h (4 Bft)
07.01.2024 21:03 22,6 °C -1,1 °C 54 % 86 % 1025,7 hPa 0,0 l/m² 13,5 km/h (3 Bft) N-NW 341 ° 0 min 0 W/m² -3,1 °C -7,3 °C 20,9 km/h (4 Bft)
07.01.2024 21:04 22,6 °C -1,1 °C 54 % 86 % 1025,8 hPa 0,0 l/m² 17,9 km/h (3 Bft) N-NW 340 ° 0 min 0 W/m² -3,1 °C -10,0 °C 20,9 km/h (4 Bft)
07.01.2024 21:05 22,6 °C -1,1 °C 54 % 86 % 1025,8 hPa 0,0 l/m² 13,4 km/h (3 Bft) N-NW 338 ° 0 min 0 W/m² -3,1 °C -7,3 °C 20,9 km/h (4 Bft)
07.01.2024 21:06 22,6 °C -1,1 °C 55 % 86 % 1025,8 hPa 0,0 l/m² 11,4 km/h (2 Bft) N-NW 333 ° 0 min 0 W/m² -3,1 °C -5,8 °C 20,9 km/h (4 Bft)
07.01.2024 21:07 22,6 °C -1,1 °C 55 % 86 % 1025,7 hPa 0,0 l/m² 12,2 km/h (2 Bft) N 360 ° 0 min 0 W/m² -3,1 °C -6,4 °C 16,1 km/h (3 Bft)
07.01.2024 21:08 22,6 °C -1,1 °C 55 % 86 % 1025,7 hPa 0,0 l/m² 13,5 km/h (3 Bft) N-NW 342 ° 0 min 0 W/m² -3,1 °C -7,3 °C 20,9 km/h (4 Bft)
07.01.2024 21:09 22,6 °C -1,1 °C 55 % 86 % 1025,7 hPa 0,0 l/m² 15,0 km/h (3 Bft) N 349 ° 0 min 0 W/m² -3,1 °C -8,3 °C 19,3 km/h (3 Bft)
07.01.2024 21:11 22,6 °C -1,1 °C 55 % 86 % 1025,7 hPa 0,0 l/m² 10,8 km/h (2 Bft) N-NW 327 ° 0 min 0 W/m² -3,1 °C -5,3 °C 19,3 km/h (3 Bft)
07.01.2024 21:13 22,6 °C -1,1 °C 55 % 86 % 1025,7 hPa 0,0 l/m² 14,9 km/h (3 Bft) N-NW 348 ° 0 min 0 W/m² -3,1 °C -8,3 °C 20,9 km/h (4 Bft)
07.01.2024 21:14 22,6 °C -1,2 °C 55 % 86 % 1025,8 hPa 0,0 l/m² 11,8 km/h (2 Bft) N-NO 27 ° 0 min 0 W/m² -3,2 °C -6,2 °C 19,3 km/h (3 Bft)
07.01.2024 21:15 22,6 °C -1,2 °C 55 % 86 % 1025,8 hPa 0,0 l/m² 15,4 km/h (3 Bft) N-NW 334 ° 0 min 0 W/m² -3,2 °C -8,7 °C 19,3 km/h (3 Bft)
07.01.2024 21:16 22,6 °C -1,2 °C 55 % 86 % 1025,8 hPa 0,0 l/m² 11,6 km/h (2 Bft) N 355 ° 0 min 0 W/m² -3,2 °C -6,1 °C 16,1 km/h (3 Bft)
07.01.2024 21:17 22,6 °C -1,2 °C 55 % 86 % 1025,9 hPa 0,0 l/m² 14,9 km/h (3 Bft) N-NW 330 ° 0 min 0 W/m² -3,2 °C -8,4 °C 19,3 km/h (3 Bft)
07.01.2024 21:18 22,6 °C -1,2 °C 55 % 86 % 1025,9 hPa 0,0 l/m² 11,5 km/h (2 Bft) N-NO 22 ° 0 min 0 W/m² -3,2 °C -6,0 °C 16,1 km/h (3 Bft)
07.01.2024 21:19 22,6 °C -1,2 °C 54 % 86 % 1025,8 hPa 0,0 l/m² 12,0 km/h (2 Bft) N-NW 329 ° 0 min 0 W/m² -3,2 °C -6,4 °C 17,7 km/h (3 Bft)
07.01.2024 21:21 22,6 °C -1,2 °C 54 % 86 % 1025,9 hPa 0,0 l/m² 11,3 km/h (2 Bft) N 360 ° 0 min 0 W/m² -3,2 °C -5,8 °C 14,5 km/h (3 Bft)
07.01.2024 21:23 22,6 °C -1,2 °C 54 % 87 % 1025,9 hPa 0,0 l/m² 8,7 km/h (2 Bft) N 355 ° 0 min 0 W/m² -3,1 °C -3,6 °C 14,5 km/h (3 Bft)
07.01.2024 21:24 22,6 °C -1,2 °C 54 % 87 % 1025,9 hPa 0,0 l/m² 11,9 km/h (2 Bft) N 355 ° 0 min 0 W/m² -3,1 °C -6,3 °C 14,5 km/h (3 Bft)
07.01.2024 21:25 22,6 °C -1,2 °C 54 % 87 % 1025,8 hPa 0,0 l/m² 9,3 km/h (2 Bft) N-NW 336 ° 0 min 0 W/m² -3,1 °C -4,2 °C 14,5 km/h (3 Bft)
07.01.2024 21:26 22,6 °C -1,2 °C 54 % 87 % 1025,8 hPa 0,0 l/m² 11,9 km/h (2 Bft) NW 305 ° 0 min 0 W/m² -3,1 °C -6,3 °C 16,1 km/h (3 Bft)
07.01.2024 21:27 22,6 °C -1,2 °C 54 % 87 % 1025,9 hPa 0,0 l/m² 12,2 km/h (2 Bft) N-NW 344 ° 0 min 0 W/m² -3,1 °C -6,5 °C 14,5 km/h (3 Bft)
07.01.2024 21:28 22,6 °C -1,3 °C 53 % 87 % 1025,9 hPa 0,0 l/m² 11,5 km/h (2 Bft) N 355 ° 0 min 0 W/m² -3,2 °C -6,1 °C 17,7 km/h (3 Bft)
07.01.2024 21:29 22,6 °C -1,2 °C 53 % 87 % 1025,8 hPa 0,0 l/m² 10,0 km/h (2 Bft) N-NW 346 ° 0 min 0 W/m² -3,1 °C -4,8 °C 16,1 km/h (3 Bft)
07.01.2024 21:31 22,6 °C -1,2 °C 53 % 87 % 1025,8 hPa 0,0 l/m² 9,4 km/h (2 Bft) N-NW 330 ° 0 min 0 W/m² -3,1 °C -4,2 °C 16,1 km/h (3 Bft)
07.01.2024 21:33 22,6 °C -1,2 °C 53 % 87 % 1025,9 hPa 0,0 l/m² 13,2 km/h (3 Bft) N-NW 338 ° 0 min 0 W/m² -3,1 °C -7,2 °C 19,3 km/h (3 Bft)
07.01.2024 21:34 22,6 °C -1,3 °C 53 % 87 % 1025,9 hPa 0,0 l/m² 9,8 km/h (2 Bft) N-NW 337 ° 0 min 0 W/m² -3,2 °C -4,7 °C 17,7 km/h (3 Bft)
07.01.2024 21:35 22,6 °C -1,2 °C 53 % 87 % 1025,8 hPa 0,0 l/m² 7,2 km/h (2 Bft) N-NW 336 ° 0 min 0 W/m² -3,1 °C -2,1 °C 12,9 km/h (3 Bft)
07.01.2024 21:36 22,6 °C -1,3 °C 53 % 87 % 1025,8 hPa 0,0 l/m² 11,4 km/h (2 Bft) W-NW 289 ° 0 min 0 W/m² -3,2 °C -6,0 °C 16,1 km/h (3 Bft)
07.01.2024 21:37 22,6 °C -1,3 °C 53 % 87 % 1025,9 hPa 0,0 l/m² 12,0 km/h (2 Bft) N 349 ° 0 min 0 W/m² -3,2 °C -6,5 °C 16,1 km/h (3 Bft)
07.01.2024 21:38 22,6 °C -1,2 °C 53 % 87 % 1025,9 hPa 0,0 l/m² 15,4 km/h (3 Bft) N-NW 342 ° 0 min 0 W/m² -3,1 °C -8,7 °C 17,7 km/h (3 Bft)
07.01.2024 21:39 22,6 °C -1,2 °C 53 % 87 % 1025,9 hPa 0,0 l/m² 13,4 km/h (3 Bft) NW 323 ° 0 min 0 W/m² -3,1 °C -7,4 °C 17,7 km/h (3 Bft)
07.01.2024 21:41 22,6 °C -1,3 °C 53 % 87 % 1025,9 hPa 0,0 l/m² 12,3 km/h (2 Bft) N-NW 333 ° 0 min 0 W/m² -3,2 °C -6,7 °C 19,3 km/h (3 Bft)
07.01.2024 21:43 22,6 °C -1,2 °C 53 % 87 % 1025,9 hPa 0,0 l/m² 12,4 km/h (2 Bft) N-NW 340 ° 0 min 0 W/m² -3,1 °C -6,7 °C 17,7 km/h (3 Bft)
07.01.2024 21:45 22,7 °C -1,3 °C 54 % 87 % 1025,9 hPa 0,0 l/m² 13,5 km/h (3 Bft) N 350 ° 0 min 0 W/m² -3,2 °C -7,6 °C 20,9 km/h (4 Bft)
07.01.2024 21:46 22,7 °C -1,2 °C 54 % 87 % 1025,9 hPa 0,0 l/m² 11,3 km/h (2 Bft) N-NW 346 ° 0 min 0 W/m² -3,1 °C -5,8 °C 17,7 km/h (3 Bft)
07.01.2024 21:47 22,7 °C -1,2 °C 54 % 87 % 1025,9 hPa 0,0 l/m² 11,9 km/h (2 Bft) N 355 ° 0 min 0 W/m² -3,1 °C -6,3 °C 19,3 km/h (3 Bft)
07.01.2024 21:48 22,7 °C -1,2 °C 54 % 87 % 1025,9 hPa 0,0 l/m² 8,9 km/h (2 Bft) N-NW 336 ° 0 min 0 W/m² -3,1 °C -3,8 °C 14,5 km/h (3 Bft)
07.01.2024 21:49 22,7 °C -1,2 °C 54 % 87 % 1025,9 hPa 0,0 l/m² 11,3 km/h (2 Bft) N-NW 348 ° 0 min 0 W/m² -3,1 °C -5,8 °C 17,7 km/h (3 Bft)
07.01.2024 21:51 22,7 °C -1,3 °C 54 % 87 % 1025,9 hPa 0,0 l/m² 13,6 km/h (3 Bft) N-NW 346 ° 0 min 0 W/m² -3,2 °C -7,6 °C 17,7 km/h (3 Bft)
07.01.2024 21:53 22,7 °C -1,2 °C 54 % 87 % 1025,9 hPa 0,0 l/m² 11,8 km/h (2 Bft) NW 312 ° 0 min 0 W/m² -3,1 °C -6,2 °C 19,3 km/h (3 Bft)
07.01.2024 21:54 22,7 °C -1,2 °C 54 % 87 % 1025,9 hPa 0,0 l/m² 15,0 km/h (3 Bft) N-NW 344 ° 0 min 0 W/m² -3,1 °C -8,4 °C 24,1 km/h (4 Bft)
07.01.2024 21:55 22,7 °C -1,3 °C 54 % 87 % 1025,9 hPa 0,0 l/m² 11,1 km/h (2 Bft) N-NW 337 ° 0 min 0 W/m² -3,2 °C -5,8 °C 14,5 km/h (3 Bft)
07.01.2024 21:56 22,7 °C -1,2 °C 54 % 87 % 1025,9 hPa 0,0 l/m² 9,3 km/h (2 Bft) N-NW 341 ° 0 min 0 W/m² -3,1 °C -4,2 °C 14,5 km/h (3 Bft)
07.01.2024 21:57 22,7 °C -1,2 °C 54 % 87 % 1025,9 hPa 0,0 l/m² 10,9 km/h (2 Bft) N 355 ° 0 min 0 W/m² -3,1 °C -5,5 °C 17,7 km/h (3 Bft)
07.01.2024 21:58 22,7 °C -1,2 °C 54 % 87 % 1025,9 hPa 0,0 l/m² 10,1 km/h (2 Bft) N-NW 344 ° 0 min 0 W/m² -3,1 °C -4,9 °C 19,3 km/h (3 Bft)
07.01.2024 21:59 22,7 °C -1,3 °C 54 % 87 % 1025,9 hPa 0,0 l/m² 11,4 km/h (2 Bft) N-NO 19 ° 0 min 0 W/m² -3,2 °C -6,0 °C 14,5 km/h (3 Bft)
07.01.2024 22:01 22,7 °C -1,3 °C 54 % 87 % 1025,9 hPa 0,0 l/m² 10,0 km/h (2 Bft) N-NW 327 ° 0 min 0 W/m² -3,2 °C -4,9 °C 16,1 km/h (3 Bft)
07.01.2024 22:03 22,7 °C -1,3 °C 54 % 87 % 1026,0 hPa 0,0 l/m² 13,5 km/h (3 Bft) N-NW 338 ° 0 min 0 W/m² -3,2 °C -7,6 °C 17,7 km/h (3 Bft)
07.01.2024 22:04 22,7 °C -1,3 °C 54 % 88 % 1025,9 hPa 0,0 l/m² 13,0 km/h (3 Bft) N-NW 348 ° 0 min 0 W/m² -3,0 °C -7,2 °C 19,3 km/h (3 Bft)
07.01.2024 22:05 22,7 °C -1,3 °C 54 % 88 % 1026,0 hPa 0,0 l/m² 13,9 km/h (3 Bft) N-NW 344 ° 0 min 0 W/m² -3,0 °C -7,8 °C 16,1 km/h (3 Bft)
07.01.2024 22:06 22,7 °C -1,3 °C 54 % 88 % 1025,9 hPa 0,0 l/m² 12,2 km/h (2 Bft) N 355 ° 0 min 0 W/m² -3,0 °C -6,6 °C 19,3 km/h (3 Bft)
07.01.2024 22:07 22,7 °C -1,3 °C 54 % 88 % 1026,0 hPa 0,0 l/m² 12,2 km/h (2 Bft) N 360 ° 0 min 0 W/m² -3,0 °C -6,6 °C 16,1 km/h (3 Bft)
07.01.2024 22:08 22,7 °C -1,3 °C 54 % 88 % 1026,0 hPa 0,0 l/m² 10,9 km/h (2 Bft) N-NW 342 ° 0 min 0 W/m² -3,0 °C -5,6 °C 16,1 km/h (3 Bft)
07.01.2024 22:09 22,7 °C -1,3 °C 54 % 88 % 1025,9 hPa 0,0 l/m² 9,9 km/h (2 Bft) N-NW 337 ° 0 min 0 W/m² -3,0 °C -4,8 °C 14,5 km/h (3 Bft)
07.01.2024 22:11 22,7 °C -1,3 °C 54 % 88 % 1025,9 hPa 0,0 l/m² 10,0 km/h (2 Bft) N 355 ° 0 min 0 W/m² -3,0 °C -4,9 °C 17,7 km/h (3 Bft)
07.01.2024 22:13 22,7 °C -1,3 °C 54 % 88 % 1026,0 hPa 0,0 l/m² 13,6 km/h (3 Bft) N 355 ° 0 min 0 W/m² -3,0 °C -7,6 °C 17,7 km/h (3 Bft)
07.01.2024 22:14 22,7 °C -1,3 °C 54 % 88 % 1026,0 hPa 0,0 l/m² 13,8 km/h (3 Bft) N-NW 346 ° 0 min 0 W/m² -3,0 °C -7,8 °C 19,3 km/h (3 Bft)
07.01.2024 22:15 22,7 °C -1,3 °C 54 % 88 % 1025,9 hPa 0,0 l/m² 9,6 km/h (2 Bft) N-NW 345 ° 0 min 0 W/m² -3,0 °C -4,5 °C 19,3 km/h (3 Bft)
07.01.2024 22:16 22,7 °C -1,3 °C 54 % 88 % 1025,9 hPa 0,0 l/m² 15,6 km/h (3 Bft) N-NW 343 ° 0 min 0 W/m² -3,0 °C -8,9 °C 19,3 km/h (3 Bft)
07.01.2024 22:17 22,7 °C -1,3 °C 54 % 88 % 1026,0 hPa 0,0 l/m² 18,8 km/h (3 Bft) N-NW 341 ° 0 min 0 W/m² -3,0 °C -10,7 °C 27,4 km/h (5 Bft)
07.01.2024 22:18 22,7 °C -1,3 °C 54 % 88 % 1025,9 hPa 0,0 l/m² 19,5 km/h (3 Bft) N-NW 339 ° 0 min 0 W/m² -3,0 °C -11,1 °C 27,4 km/h (5 Bft)
07.01.2024 22:19 22,7 °C -1,3 °C 54 % 88 % 1025,9 hPa 0,0 l/m² 17,7 km/h (3 Bft) N-NW 346 ° 0 min 0 W/m² -3,0 °C -10,1 °C 24,1 km/h (4 Bft)
07.01.2024 22:21 22,7 °C -1,3 °C 54 % 88 % 1025,9 hPa 0,0 l/m² 11,5 km/h (2 Bft) N-NW 340 ° 0 min 0 W/m² -3,0 °C -6,1 °C 17,7 km/h (3 Bft)
07.01.2024 22:23 22,7 °C -1,3 °C 54 % 88 % 1025,9 hPa 0,0 l/m² 16,5 km/h (3 Bft) N-NW 344 ° 0 min 0 W/m² -3,0 °C -9,5 °C 22,5 km/h (4 Bft)
07.01.2024 22:24 22,7 °C -1,3 °C 54 % 88 % 1025,9 hPa 0,0 l/m² 12,1 km/h (2 Bft) N-NW 348 ° 0 min 0 W/m² -3,0 °C -6,6 °C 14,5 km/h (3 Bft)
07.01.2024 22:25 22,7 °C -1,3 °C 54 % 88 % 1025,9 hPa 0,0 l/m² 12,8 km/h (3 Bft) N-NW 344 ° 0 min 0 W/m² -3,0 °C -7,1 °C 19,3 km/h (3 Bft)
07.01.2024 22:26 22,7 °C -1,3 °C 54 % 88 % 1026,0 hPa 0,0 l/m² 9,7 km/h (2 Bft) N-NW 337 ° 0 min 0 W/m² -3,0 °C -4,6 °C 14,5 km/h (3 Bft)
07.01.2024 22:27 22,7 °C -1,3 °C 54 % 88 % 1026,0 hPa 0,0 l/m² 11,3 km/h (2 Bft) N 360 ° 0 min 0 W/m² -3,0 °C -6,0 °C 16,1 km/h (3 Bft)
07.01.2024 22:28 22,7 °C -1,3 °C 54 % 88 % 1025,9 hPa 0,0 l/m² 11,3 km/h (2 Bft) N-NW 337 ° 0 min 0 W/m² -3,0 °C -6,0 °C 14,5 km/h (3 Bft)
07.01.2024 22:29 22,7 °C -1,3 °C 54 % 88 % 1026,0 hPa 0,0 l/m² 12,9 km/h (3 Bft) N-NW 337 ° 0 min 0 W/m² -3,0 °C -7,2 °C 19,3 km/h (3 Bft)
07.01.2024 22:30 22,7 °C -1,3 °C 54 % 88 % 1025,9 hPa 0,0 l/m² 14,5 km/h (3 Bft) N-NW 337 ° 0 min 0 W/m² -3,0 °C -8,2 °C 19,3 km/h (3 Bft)
07.01.2024 22:31 22,7 °C -1,4 °C 54 % 88 % 1025,9 hPa 0,0 l/m² 14,5 km/h (3 Bft) N-NW 337 ° 0 min 0 W/m² -3,1 °C -8,4 °C 22,5 km/h (4 Bft)
07.01.2024 22:32 22,7 °C -1,4 °C 54 % 88 % 1025,9 hPa 0,0 l/m² 12,9 km/h (3 Bft) N-NW 337 ° 0 min 0 W/m² -3,1 °C -7,3 °C 19,3 km/h (3 Bft)
07.01.2024 22:33 22,7 °C -1,4 °C 53 % 89 % 1025,9 hPa 0,0 l/m² 11,3 km/h (2 Bft) N-NW 337 ° 0 min 0 W/m² -3,0 °C -6,1 °C 16,1 km/h (3 Bft)
07.01.2024 22:34 22,7 °C -1,4 °C 53 % 89 % 1026,0 hPa 0,0 l/m² 14,5 km/h (3 Bft) N-NW 337 ° 0 min 0 W/m² -3,0 °C -8,4 °C 19,3 km/h (3 Bft)
07.01.2024 22:35 22,6 °C -1,4 °C 53 % 89 % 1025,9 hPa 0,0 l/m² 12,9 km/h (3 Bft) N-NW 337 ° 0 min 0 W/m² -3,0 °C -7,3 °C 17,7 km/h (3 Bft)
07.01.2024 22:36 22,6 °C -1,4 °C 53 % 89 % 1025,9 hPa 0,0 l/m² 9,7 km/h (2 Bft) N-NW 337 ° 0 min 0 W/m² -3,0 °C -4,7 °C 17,7 km/h (3 Bft)
07.01.2024 22:37 22,6 °C -1,4 °C 53 % 89 % 1025,9 hPa 0,0 l/m² 11,3 km/h (2 Bft) N 360 ° 0 min 0 W/m² -3,0 °C -6,1 °C 17,7 km/h (3 Bft)
07.01.2024 22:38 22,6 °C -1,4 °C 53 % 89 % 1025,9 hPa 0,0 l/m² 11,3 km/h (2 Bft) N-NW 337 ° 0 min 0 W/m² -3,0 °C -6,1 °C 17,7 km/h (3 Bft)
07.01.2024 22:39 22,6 °C -1,4 °C 53 % 89 % 1025,9 hPa 0,0 l/m² 9,7 km/h (2 Bft) N 360 ° 0 min 0 W/m² -3,0 °C -4,7 °C 14,5 km/h (3 Bft)
07.01.2024 22:40 22,6 °C -1,4 °C 53 % 89 % 1026,0 hPa 0,0 l/m² 9,7 km/h (2 Bft) N-NW 337 ° 0 min 0 W/m² -3,0 °C -4,7 °C 14,5 km/h (3 Bft)
07.01.2024 22:41 22,6 °C -1,4 °C 53 % 89 % 1025,9 hPa 0,0 l/m² 14,5 km/h (3 Bft) N-NW 337 ° 0 min 0 W/m² -3,0 °C -8,4 °C 19,3 km/h (3 Bft)
07.01.2024 22:42 22,6 °C -1,4 °C 53 % 89 % 1025,8 hPa 0,0 l/m² 12,9 km/h (3 Bft) N-NW 337 ° 0 min 0 W/m² -3,0 °C -7,3 °C 17,7 km/h (3 Bft)
07.01.2024 22:43 22,6 °C -1,4 °C 53 % 89 % 1025,9 hPa 0,0 l/m² 12,9 km/h (3 Bft) N 360 ° 0 min 0 W/m² -3,0 °C -7,3 °C 17,7 km/h (3 Bft)
07.01.2024 22:44 22,5 °C -1,4 °C 53 % 89 % 1025,9 hPa 0,0 l/m² 12,9 km/h (3 Bft) N-NW 337 ° 0 min 0 W/m² -3,0 °C -7,3 °C 16,1 km/h (3 Bft)
07.01.2024 22:45 22,5 °C -1,4 °C 53 % 89 % 1025,8 hPa 0,0 l/m² 11,3 km/h (2 Bft) N-NW 337 ° 0 min 0 W/m² -3,0 °C -6,1 °C 17,7 km/h (3 Bft)
07.01.2024 22:46 22,5 °C -1,4 °C 53 % 89 % 1025,8 hPa 0,0 l/m² 11,3 km/h (2 Bft) N-NW 337 ° 0 min 0 W/m² -3,0 °C -6,1 °C 16,1 km/h (3 Bft)
07.01.2024 22:47 22,4 °C -1,4 °C 53 % 89 % 1025,9 hPa 0,0 l/m² 12,9 km/h (3 Bft) N-NW 337 ° 0 min 0 W/m² -3,0 °C -7,3 °C 17,7 km/h (3 Bft)
07.01.2024 22:48 22,4 °C -1,4 °C 53 % 89 % 1025,9 hPa 0,0 l/m² 16,1 km/h (3 Bft) N-NW 337 ° 0 min 0 W/m² -3,0 °C -9,3 °C 19,3 km/h (3 Bft)
07.01.2024 22:49 22,4 °C -1,4 °C 53 % 89 % 1025,9 hPa 0,0 l/m² 14,5 km/h (3 Bft) N-NW 337 ° 0 min 0 W/m² -3,0 °C -8,4 °C 19,3 km/h (3 Bft)
07.01.2024 22:50 22,4 °C -1,4 °C 53 % 89 % 1025,9 hPa 0,0 l/m² 16,1 km/h (3 Bft) N-NW 337 ° 0 min 0 W/m² -3,0 °C -9,3 °C 19,3 km/h (3 Bft)
07.01.2024 22:51 22,4 °C -1,4 °C 53 % 89 % 1025,9 hPa 0,0 l/m² 16,1 km/h (3 Bft) N-NW 337 ° 0 min 0 W/m² -3,0 °C -9,3 °C 22,5 km/h (4 Bft)
07.01.2024 22:52 22,4 °C -1,4 °C 53 % 89 % 1025,9 hPa 0,0 l/m² 8,0 km/h (2 Bft) N-NW 337 ° 0 min 0 W/m² -3,0 °C -3,1 °C 12,9 km/h (3 Bft)
07.01.2024 22:53 22,4 °C -1,4 °C 53 % 89 % 1025,9 hPa 0,0 l/m² 12,9 km/h (3 Bft) N 360 ° 0 min 0 W/m² -3,0 °C -7,3 °C 17,7 km/h (3 Bft)
07.01.2024 22:54 22,4 °C -1,4 °C 53 % 89 % 1025,8 hPa 0,0 l/m² 14,5 km/h (3 Bft) N-NW 337 ° 0 min 0 W/m² -3,0 °C -8,4 °C 22,5 km/h (4 Bft)
07.01.2024 22:55 22,4 °C -1,4 °C 53 % 89 % 1025,8 hPa 0,0 l/m² 8,0 km/h (2 Bft) N 360 ° 0 min 0 W/m² -3,0 °C -3,1 °C 14,5 km/h (3 Bft)
07.01.2024 22:56 22,3 °C -1,4 °C 53 % 89 % 1025,9 hPa 0,0 l/m² 12,9 km/h (3 Bft) N-NW 337 ° 0 min 0 W/m² -3,0 °C -7,3 °C 19,3 km/h (3 Bft)
07.01.2024 22:57 22,3 °C -1,4 °C 53 % 89 % 1025,9 hPa 0,0 l/m² 12,9 km/h (3 Bft) N-NW 337 ° 0 min 0 W/m² -3,0 °C -7,3 °C 19,3 km/h (3 Bft)
07.01.2024 22:58 22,3 °C -1,4 °C 53 % 89 % 1025,8 hPa 0,0 l/m² 8,0 km/h (2 Bft) N 360 ° 0 min 0 W/m² -3,0 °C -3,1 °C 16,1 km/h (3 Bft)
07.01.2024 22:59 22,3 °C -1,4 °C 53 % 88 % 1025,9 hPa 0,0 l/m² 11,3 km/h (2 Bft) N-NW 337 ° 0 min 0 W/m² -3,1 °C -6,1 °C 16,1 km/h (3 Bft)
07.01.2024 23:00 22,3 °C -1,4 °C 53 % 88 % 1025,9 hPa 0,0 l/m² 9,7 km/h (2 Bft) N 360 ° 0 min 0 W/m² -3,1 °C -4,7 °C 16,1 km/h (3 Bft)
07.01.2024 23:01 22,3 °C -1,4 °C 53 % 88 % 1025,9 hPa 0,0 l/m² 14,5 km/h (3 Bft) N-NW 337 ° 0 min 0 W/m² -3,1 °C -8,4 °C 22,5 km/h (4 Bft)
07.01.2024 23:02 22,3 °C -1,4 °C 53 % 88 % 1025,9 hPa 0,0 l/m² 14,5 km/h (3 Bft) N 360 ° 0 min 0 W/m² -3,1 °C -8,4 °C 22,5 km/h (4 Bft)
07.01.2024 23:03 22,3 °C -1,4 °C 53 % 88 % 1025,9 hPa 0,0 l/m² 16,1 km/h (3 Bft) N 360 ° 0 min 0 W/m² -3,1 °C -9,3 °C 22,5 km/h (4 Bft)
07.01.2024 23:04 22,3 °C -1,4 °C 53 % 88 % 1025,8 hPa 0,0 l/m² 14,5 km/h (3 Bft) N-NW 337 ° 0 min 0 W/m² -3,1 °C -8,4 °C 20,9 km/h (4 Bft)
07.01.2024 23:05 22,3 °C -1,4 °C 53 % 88 % 1025,9 hPa 0,0 l/m² 12,9 km/h (3 Bft) N 360 ° 0 min 0 W/m² -3,1 °C -7,3 °C 17,7 km/h (3 Bft)
07.01.2024 23:06 22,3 °C -1,4 °C 53 % 88 % 1026,0 hPa 0,0 l/m² 11,3 km/h (2 Bft) N 360 ° 0 min 0 W/m² -3,1 °C -6,1 °C 14,5 km/h (3 Bft)
07.01.2024 23:07 22,3 °C -1,4 °C 53 % 88 % 1025,9 hPa 0,0 l/m² 8,0 km/h (2 Bft) N-NW 337 ° 0 min 0 W/m² -3,1 °C -3,1 °C 14,5 km/h (3 Bft)
07.01.2024 23:08 22,3 °C -1,4 °C 53 % 88 % 1026,0 hPa 0,0 l/m² 11,3 km/h (2 Bft) N 360 ° 0 min 0 W/m² -3,1 °C -6,1 °C 16,1 km/h (3 Bft)
07.01.2024 23:09 22,3 °C -1,4 °C 53 % 88 % 1026,0 hPa 0,0 l/m² 8,0 km/h (2 Bft) N 360 ° 0 min 0 W/m² -3,1 °C -3,1 °C 14,5 km/h (3 Bft)
07.01.2024 23:10 22,2 °C -1,4 °C 53 % 88 % 1026,0 hPa 0,0 l/m² 9,7 km/h (2 Bft) N 360 ° 0 min 0 W/m² -3,1 °C -4,7 °C 17,7 km/h (3 Bft)
07.01.2024 23:11 22,3 °C -1,4 °C 53 % 88 % 1026,0 hPa 0,0 l/m² 8,0 km/h (2 Bft) N 360 ° 0 min 0 W/m² -3,1 °C -3,1 °C 16,1 km/h (3 Bft)
07.01.2024 23:12 22,2 °C -1,4 °C 53 % 88 % 1026,0 hPa 0,0 l/m² 12,9 km/h (3 Bft) N-NW 337 ° 0 min 0 W/m² -3,1 °C -7,3 °C 16,1 km/h (3 Bft)
07.01.2024 23:13 22,2 °C -1,4 °C 53 % 88 % 1026,0 hPa 0,0 l/m² 14,5 km/h (3 Bft) N 360 ° 0 min 0 W/m² -3,1 °C -8,4 °C 17,7 km/h (3 Bft)
07.01.2024 23:14 22,2 °C -1,4 °C 53 % 88 % 1026,0 hPa 0,0 l/m² 9,7 km/h (2 Bft) N 360 ° 0 min 0 W/m² -3,1 °C -4,7 °C 17,7 km/h (3 Bft)
07.01.2024 23:15 22,2 °C -1,4 °C 53 % 88 % 1025,9 hPa 0,0 l/m² 11,3 km/h (2 Bft) N 360 ° 0 min 0 W/m² -3,1 °C -6,1 °C 14,5 km/h (3 Bft)
07.01.2024 23:16 22,2 °C -1,3 °C 53 % 88 % 1025,9 hPa 0,0 l/m² 14,5 km/h (3 Bft) N 360 ° 0 min 0 W/m² -3,0 °C -8,2 °C 20,9 km/h (4 Bft)
07.01.2024 23:17 22,2 °C -1,4 °C 53 % 88 % 1026,0 hPa 0,0 l/m² 11,3 km/h (2 Bft) N-NO 22 ° 0 min 0 W/m² -3,1 °C -6,1 °C 19,3 km/h (3 Bft)
07.01.2024 23:18 22,2 °C -1,3 °C 53 % 88 % 1025,9 hPa 0,0 l/m² 9,7 km/h (2 Bft) N 360 ° 0 min 0 W/m² -3,0 °C -4,6 °C 19,3 km/h (3 Bft)
07.01.2024 23:19 22,2 °C -1,4 °C 53 % 87 % 1026,0 hPa 0,0 l/m² 11,3 km/h (2 Bft) N 360 ° 0 min 0 W/m² -3,3 °C -6,1 °C 16,1 km/h (3 Bft)
07.01.2024 23:20 22,2 °C -1,3 °C 53 % 87 % 1026,0 hPa 0,0 l/m² 9,7 km/h (2 Bft) N-NO 22 ° 0 min 0 W/m² -3,2 °C -4,6 °C 14,5 km/h (3 Bft)
07.01.2024 23:21 22,2 °C -1,3 °C 53 % 87 % 1026,0 hPa 0,0 l/m² 11,3 km/h (2 Bft) N 360 ° 0 min 0 W/m² -3,2 °C -6,0 °C 17,7 km/h (3 Bft)
07.01.2024 23:22 22,2 °C -1,3 °C 53 % 87 % 1026,0 hPa 0,0 l/m² 12,9 km/h (3 Bft) N 360 ° 0 min 0 W/m² -3,2 °C -7,2 °C 17,7 km/h (3 Bft)
07.01.2024 23:23 22,2 °C -1,3 °C 53 % 87 % 1025,9 hPa 0,0 l/m² 11,3 km/h (2 Bft) N 360 ° 0 min 0 W/m² -3,2 °C -6,0 °C 17,7 km/h (3 Bft)
07.01.2024 23:24 22,2 °C -1,4 °C 53 % 87 % 1025,9 hPa 0,0 l/m² 8,0 km/h (2 Bft) N 360 ° 0 min 0 W/m² -3,3 °C -3,1 °C 14,5 km/h (3 Bft)
07.01.2024 23:25 22,2 °C -1,3 °C 53 % 87 % 1026,0 hPa 0,0 l/m² 16,1 km/h (3 Bft) N 360 ° 0 min 0 W/m² -3,2 °C -9,2 °C 29,0 km/h (5 Bft)
07.01.2024 23:26 22,2 °C -1,3 °C 53 % 87 % 1026,0 hPa 0,0 l/m² 17,7 km/h (3 Bft) N 360 ° 0 min 0 W/m² -3,2 °C -10,1 °C 24,1 km/h (4 Bft)
07.01.2024 23:27 22,2 °C -1,3 °C 53 % 86 % 1026,0 hPa 0,0 l/m² 14,5 km/h (3 Bft) N 360 ° 0 min 0 W/m² -3,3 °C -8,2 °C 20,9 km/h (4 Bft)
07.01.2024 23:28 22,1 °C -1,4 °C 54 % 86 % 1026,0 hPa 0,0 l/m² 17,7 km/h (3 Bft) N 360 ° 0 min 0 W/m² -3,4 °C -10,3 °C 22,5 km/h (4 Bft)
07.01.2024 23:29 22,1 °C -1,3 °C 53 % 86 % 1026,0 hPa 0,0 l/m² 14,5 km/h (3 Bft) N-NO 22 ° 0 min 0 W/m² -3,3 °C -8,2 °C 19,3 km/h (3 Bft)
07.01.2024 23:30 22,1 °C -1,3 °C 53 % 86 % 1026,0 hPa 0,0 l/m² 11,3 km/h (2 Bft) N-NO 22 ° 0 min 0 W/m² -3,3 °C -6,0 °C 17,7 km/h (3 Bft)
07.01.2024 23:31 22,1 °C -1,3 °C 53 % 85 % 1026,1 hPa 0,0 l/m² 11,3 km/h (2 Bft) N 360 ° 0 min 0 W/m² -3,5 °C -6,0 °C 19,3 km/h (3 Bft)
07.01.2024 23:32 22,1 °C -1,3 °C 53 % 85 % 1026,0 hPa 0,0 l/m² 12,9 km/h (3 Bft) N-NO 22 ° 0 min 0 W/m² -3,5 °C -7,2 °C 19,3 km/h (3 Bft)
07.01.2024 23:33 22,1 °C -1,3 °C 53 % 85 % 1026,1 hPa 0,0 l/m² 11,3 km/h (2 Bft) N 360 ° 0 min 0 W/m² -3,5 °C -6,0 °C 17,7 km/h (3 Bft)
07.01.2024 23:34 22,1 °C -1,3 °C 54 % 85 % 1026,1 hPa 0,0 l/m² 12,9 km/h (3 Bft) N-NO 22 ° 0 min 0 W/m² -3,5 °C -7,2 °C 22,5 km/h (4 Bft)
07.01.2024 23:35 22,1 °C -1,3 °C 54 % 85 % 1026,1 hPa 0,0 l/m² 12,9 km/h (3 Bft) N 360 ° 0 min 0 W/m² -3,5 °C -7,2 °C 17,7 km/h (3 Bft)
07.01.2024 23:36 22,1 °C -1,3 °C 54 % 84 % 1026,2 hPa 0,0 l/m² 14,5 km/h (3 Bft) N-NW 337 ° 0 min 0 W/m² -3,6 °C -8,2 °C 22,5 km/h (4 Bft)
07.01.2024 23:37 22,1 °C -1,3 °C 54 % 84 % 1026,1 hPa 0,0 l/m² 16,1 km/h (3 Bft) N 360 ° 0 min 0 W/m² -3,6 °C -9,2 °C 22,5 km/h (4 Bft)
07.01.2024 23:38 22,1 °C -1,3 °C 53 % 84 % 1026,2 hPa 0,0 l/m² 11,3 km/h (2 Bft) N 360 ° 0 min 0 W/m² -3,6 °C -6,0 °C 16,1 km/h (3 Bft)
07.01.2024 23:39 22,1 °C -1,3 °C 54 % 84 % 1026,2 hPa 0,0 l/m² 16,1 km/h (3 Bft) N 360 ° 0 min 0 W/m² -3,6 °C -9,2 °C 20,9 km/h (4 Bft)
07.01.2024 23:40 22,1 °C -1,3 °C 54 % 84 % 1026,2 hPa 0,0 l/m² 9,7 km/h (2 Bft) N-NO 22 ° 0 min 0 W/m² -3,6 °C -4,6 °C 19,3 km/h (3 Bft)
07.01.2024 23:41 22,1 °C -1,3 °C 54 % 84 % 1026,2 hPa 0,0 l/m² 8,0 km/h (2 Bft) N 360 ° 0 min 0 W/m² -3,6 °C -3,0 °C 12,9 km/h (3 Bft)
07.01.2024 23:42 22,1 °C -1,3 °C 53 % 84 % 1026,2 hPa 0,0 l/m² 8,0 km/h (2 Bft) N 360 ° 0 min 0 W/m² -3,6 °C -3,0 °C 12,9 km/h (3 Bft)
07.01.2024 23:43 22,1 °C -1,3 °C 53 % 84 % 1026,2 hPa 0,0 l/m² 6,4 km/h (2 Bft) N-NO 22 ° 0 min 0 W/m² -3,6 °C -1,3 °C 11,3 km/h (2 Bft)
07.01.2024 23:44 22,1 °C -1,3 °C 54 % 84 % 1026,3 hPa 0,0 l/m² 9,7 km/h (2 Bft) N 360 ° 0 min 0 W/m² -3,6 °C -4,6 °C 16,1 km/h (3 Bft)
07.01.2024 23:45 22,1 °C -1,3 °C 53 % 84 % 1026,3 hPa 0,0 l/m² 9,7 km/h (2 Bft) N-NO 22 ° 0 min 0 W/m² -3,6 °C -4,6 °C 16,1 km/h (3 Bft)
07.01.2024 23:46 22,1 °C -1,3 °C 53 % 84 % 1026,3 hPa 0,0 l/m² 9,7 km/h (2 Bft) N 360 ° 0 min 0 W/m² -3,6 °C -4,6 °C 16,1 km/h (3 Bft)
07.01.2024 23:47 22,0 °C -1,3 °C 53 % 84 % 1026,3 hPa 0,0 l/m² 9,7 km/h (2 Bft) N 360 ° 0 min 0 W/m² -3,6 °C -4,6 °C 14,5 km/h (3 Bft)
07.01.2024 23:48 22,1 °C -1,3 °C 53 % 84 % 1026,3 hPa 0,0 l/m² 9,7 km/h (2 Bft) N 360 ° 0 min 0 W/m² -3,6 °C -4,6 °C 14,5 km/h (3 Bft)
07.01.2024 23:49 22,1 °C -1,3 °C 54 % 84 % 1026,4 hPa 0,0 l/m² 11,3 km/h (2 Bft) N 360 ° 0 min 0 W/m² -3,6 °C -6,0 °C 14,5 km/h (3 Bft)
07.01.2024 23:50 22,1 °C -1,3 °C 53 % 84 % 1026,4 hPa 0,0 l/m² 8,0 km/h (2 Bft) N 360 ° 0 min 0 W/m² -3,6 °C -3,0 °C 12,9 km/h (3 Bft)
07.01.2024 23:51 22,1 °C -1,3 °C 53 % 84 % 1026,4 hPa 0,0 l/m² 11,3 km/h (2 Bft) N 360 ° 0 min 0 W/m² -3,6 °C -6,0 °C 17,7 km/h (3 Bft)
07.01.2024 23:52 22,1 °C -1,3 °C 53 % 84 % 1026,5 hPa 0,0 l/m² 8,0 km/h (2 Bft) N 360 ° 0 min 0 W/m² -3,6 °C -3,0 °C 12,9 km/h (3 Bft)
07.01.2024 23:53 22,1 °C -1,3 °C 53 % 84 % 1026,5 hPa 0,0 l/m² 9,7 km/h (2 Bft) N-NW 337 ° 0 min 0 W/m² -3,6 °C -4,6 °C 19,3 km/h (3 Bft)
07.01.2024 23:54 22,0 °C -1,3 °C 53 % 84 % 1026,4 hPa 0,0 l/m² 11,3 km/h (2 Bft) N-NO 22 ° 0 min 0 W/m² -3,6 °C -6,0 °C 19,3 km/h (3 Bft)
07.01.2024 23:55 22,1 °C -1,3 °C 53 % 84 % 1026,5 hPa 0,0 l/m² 9,7 km/h (2 Bft) N 360 ° 0 min 0 W/m² -3,6 °C -4,6 °C 16,1 km/h (3 Bft)
07.01.2024 23:56 22,0 °C -1,3 °C 53 % 84 % 1026,5 hPa 0,0 l/m² 9,7 km/h (2 Bft) N-NO 22 ° 0 min 0 W/m² -3,6 °C -4,6 °C 14,5 km/h (3 Bft)
07.01.2024 23:57 22,0 °C -1,3 °C 53 % 84 % 1026,5 hPa 0,0 l/m² 6,4 km/h (2 Bft) N-NO 22 ° 0 min 0 W/m² -3,6 °C -1,3 °C 12,9 km/h (3 Bft)
07.01.2024 23:58 22,1 °C -1,3 °C 54 % 84 % 1026,4 hPa 0,0 l/m² 11,3 km/h (2 Bft) N 360 ° 0 min 0 W/m² -3,6 °C -6,0 °C 16,1 km/h (3 Bft)
07.01.2024 23:59 22,0 °C -1,3 °C 53 % 84 % 1026,5 hPa 0,0 l/m² 9,7 km/h (2 Bft) N 360 ° 0 min 0 W/m² -3,6 °C -4,6 °C 17,7 km/h (3 Bft)
_ Min-Zeit 10:53 10:11 10:34 13:50 00:03 - 05:36 - - - - 10:11 09:59 05:37
Minimum _ 20,9 °C -2,7 °C 35 % 72 % 1015,5 hPa - 0,0 km/h (0 Bft) - - - - -5,8 °C -13,4 °C 3,2 km/h (1 Bft)
_ Max-Zeit 17:25 00:00 07:03 01:57 23:59 23:59 11:41 - - 10:27 13:32 00:00 00:00 11:41
Maximum _ 22,8 °C 0,2 °C 56 % 94 % 1026,5 hPa 0,0 l/m² 21,2 km/h
NO (4 Bft)
- - 7 min 276 W/m² -0,6 °C 0,2 °C 32,2 km/h
O (5 Bft)
Durchschnitt _ 21,9 °C -1,3 °C 52 % 85 % 1021,9 hPa #0,0 l/m² 10,4 km/h (2 Bft) N-NO - #4:38 h 33 W/m² -3,6 °C -5,1 °C 16,9 km/h (3 Bft)
© 2009 Mathias Hoßbach